<?xml version="1.0" encoding="UTF-8" standalone="no" ?>
<gpx xmlns="http://www.topografix.com/GPX/1/1" xmlns:xsi="http://www.w3.org/2001/XMLSchema-instance" xsi:schemaLocation="http://www.topografix.com/GPX/1/1 http://www.topografix.com/GPX/1/1/gpx.xsd" version="1.1" creator="VisuGPX - https://www.visugpx.com">
  <metadata>
    <name>Randonnée pédestre St Porchaire 17</name>
    <desc><![CDATA[St porchaire]]></desc>
  </metadata>
  <trk>
    <name><![CDATA[28/09/2014 9:16]]></name>
    <desc><![CDATA[St porchaire]]></desc>
    <trkseg>
      <trkpt lat="45.82074" lon="-0.77128">
        <ele>32</ele>
        <time>2014-09-28T07:16:45.395Z</time>
      </trkpt>
      <trkpt lat="45.82074" lon="-0.77128">
        <ele>32</ele>
        <time>2014-09-28T07:16:54.784Z</time>
      </trkpt>
      <trkpt lat="45.82076" lon="-0.77113">
        <ele>32</ele>
        <time>2014-09-28T07:16:55.797Z</time>
      </trkpt>
      <trkpt lat="45.82085" lon="-0.77109">
        <ele>32</ele>
        <time>2014-09-28T07:17:05.791Z</time>
      </trkpt>
      <trkpt lat="45.82086" lon="-0.77109">
        <ele>32</ele>
        <time>2014-09-28T07:17:06.795Z</time>
      </trkpt>
      <trkpt lat="45.82094" lon="-0.7711">
        <ele>32</ele>
        <time>2014-09-28T07:17:14.781Z</time>
      </trkpt>
      <trkpt lat="45.82095" lon="-0.7711">
        <ele>32</ele>
        <time>2014-09-28T07:17:15.785Z</time>
      </trkpt>
      <trkpt lat="45.82103" lon="-0.77105">
        <ele>32</ele>
        <time>2014-09-28T07:17:21.814Z</time>
      </trkpt>
      <trkpt lat="45.82104" lon="-0.77105">
        <ele>32</ele>
        <time>2014-09-28T07:17:22.782Z</time>
      </trkpt>
      <trkpt lat="45.82112" lon="-0.77102">
        <ele>32</ele>
        <time>2014-09-28T07:17:29.768Z</time>
      </trkpt>
      <trkpt lat="45.82113" lon="-0.77102">
        <ele>32</ele>
        <time>2014-09-28T07:17:30.778Z</time>
      </trkpt>
      <trkpt lat="45.8212" lon="-0.77099">
        <ele>32</ele>
        <time>2014-09-28T07:17:36.778Z</time>
      </trkpt>
      <trkpt lat="45.82122" lon="-0.77098">
        <ele>32</ele>
        <time>2014-09-28T07:17:37.779Z</time>
      </trkpt>
      <trkpt lat="45.82128" lon="-0.77092">
        <ele>31</ele>
        <time>2014-09-28T07:17:42.784Z</time>
      </trkpt>
      <trkpt lat="45.82129" lon="-0.7709">
        <ele>31</ele>
        <time>2014-09-28T07:17:43.775Z</time>
      </trkpt>
      <trkpt lat="45.82136" lon="-0.77083">
        <ele>32</ele>
        <time>2014-09-28T07:17:49.485Z</time>
      </trkpt>
      <trkpt lat="45.82136" lon="-0.77082">
        <ele>32</ele>
        <time>2014-09-28T07:17:49.774Z</time>
      </trkpt>
      <trkpt lat="45.82142" lon="-0.77076">
        <ele>32</ele>
        <time>2014-09-28T07:17:56.773Z</time>
      </trkpt>
      <trkpt lat="45.82144" lon="-0.77075">
        <ele>32</ele>
        <time>2014-09-28T07:17:57.779Z</time>
      </trkpt>
      <trkpt lat="45.8215" lon="-0.77067">
        <ele>32</ele>
        <time>2014-09-28T07:18:03.784Z</time>
      </trkpt>
      <trkpt lat="45.82151" lon="-0.77066">
        <ele>32</ele>
        <time>2014-09-28T07:18:04.774Z</time>
      </trkpt>
      <trkpt lat="45.82157" lon="-0.77059">
        <ele>32</ele>
        <time>2014-09-28T07:18:11.778Z</time>
      </trkpt>
      <trkpt lat="45.82159" lon="-0.77057">
        <ele>32</ele>
        <time>2014-09-28T07:18:12.778Z</time>
      </trkpt>
      <trkpt lat="45.82165" lon="-0.7705">
        <ele>32</ele>
        <time>2014-09-28T07:18:19.788Z</time>
      </trkpt>
      <trkpt lat="45.82166" lon="-0.77049">
        <ele>32</ele>
        <time>2014-09-28T07:18:20.827Z</time>
      </trkpt>
      <trkpt lat="45.82172" lon="-0.77042">
        <ele>31</ele>
        <time>2014-09-28T07:18:26.773Z</time>
      </trkpt>
      <trkpt lat="45.82173" lon="-0.7704">
        <ele>31</ele>
        <time>2014-09-28T07:18:27.785Z</time>
      </trkpt>
      <trkpt lat="45.82179" lon="-0.77032">
        <ele>31</ele>
        <time>2014-09-28T07:18:35.789Z</time>
      </trkpt>
      <trkpt lat="45.82179" lon="-0.77031">
        <ele>31</ele>
        <time>2014-09-28T07:18:36.786Z</time>
      </trkpt>
      <trkpt lat="45.82188" lon="-0.7703">
        <ele>31</ele>
        <time>2014-09-28T07:18:44.790Z</time>
      </trkpt>
      <trkpt lat="45.82189" lon="-0.77031">
        <ele>31</ele>
        <time>2014-09-28T07:18:45.782Z</time>
      </trkpt>
      <trkpt lat="45.82196" lon="-0.77037">
        <ele>31</ele>
        <time>2014-09-28T07:18:51.786Z</time>
      </trkpt>
      <trkpt lat="45.82197" lon="-0.77038">
        <ele>31</ele>
        <time>2014-09-28T07:18:52.782Z</time>
      </trkpt>
      <trkpt lat="45.82204" lon="-0.77044">
        <ele>31</ele>
        <time>2014-09-28T07:18:59.787Z</time>
      </trkpt>
      <trkpt lat="45.82205" lon="-0.77044">
        <ele>31</ele>
        <time>2014-09-28T07:19:00.779Z</time>
      </trkpt>
      <trkpt lat="45.82213" lon="-0.7705">
        <ele>30</ele>
        <time>2014-09-28T07:19:07.781Z</time>
      </trkpt>
      <trkpt lat="45.82213" lon="-0.7705">
        <ele>30</ele>
        <time>2014-09-28T07:19:08.782Z</time>
      </trkpt>
      <trkpt lat="45.82221" lon="-0.77055">
        <ele>30</ele>
        <time>2014-09-28T07:19:16.776Z</time>
      </trkpt>
      <trkpt lat="45.82221" lon="-0.77056">
        <ele>30</ele>
        <time>2014-09-28T07:19:17.777Z</time>
      </trkpt>
      <trkpt lat="45.82226" lon="-0.77067">
        <ele>30</ele>
        <time>2014-09-28T07:19:24.775Z</time>
      </trkpt>
      <trkpt lat="45.82226" lon="-0.77068">
        <ele>30</ele>
        <time>2014-09-28T07:19:25.774Z</time>
      </trkpt>
      <trkpt lat="45.8223" lon="-0.77079">
        <ele>30</ele>
        <time>2014-09-28T07:19:32.780Z</time>
      </trkpt>
      <trkpt lat="45.82231" lon="-0.7708">
        <ele>30</ele>
        <time>2014-09-28T07:19:33.779Z</time>
      </trkpt>
      <trkpt lat="45.82236" lon="-0.7709">
        <ele>30</ele>
        <time>2014-09-28T07:19:41.780Z</time>
      </trkpt>
      <trkpt lat="45.82237" lon="-0.77092">
        <ele>30</ele>
        <time>2014-09-28T07:19:42.781Z</time>
      </trkpt>
      <trkpt lat="45.82243" lon="-0.77101">
        <ele>30</ele>
        <time>2014-09-28T07:19:48.778Z</time>
      </trkpt>
      <trkpt lat="45.82243" lon="-0.77103">
        <ele>30</ele>
        <time>2014-09-28T07:19:49.777Z</time>
      </trkpt>
      <trkpt lat="45.82248" lon="-0.77112">
        <ele>30</ele>
        <time>2014-09-28T07:19:56.779Z</time>
      </trkpt>
      <trkpt lat="45.82248" lon="-0.77114">
        <ele>30</ele>
        <time>2014-09-28T07:19:57.783Z</time>
      </trkpt>
      <trkpt lat="45.82253" lon="-0.77125">
        <ele>29</ele>
        <time>2014-09-28T07:20:04.780Z</time>
      </trkpt>
      <trkpt lat="45.82253" lon="-0.77126">
        <ele>29</ele>
        <time>2014-09-28T07:20:05.792Z</time>
      </trkpt>
      <trkpt lat="45.82258" lon="-0.77136">
        <ele>29</ele>
        <time>2014-09-28T07:20:12.788Z</time>
      </trkpt>
      <trkpt lat="45.82259" lon="-0.77138">
        <ele>29</ele>
        <time>2014-09-28T07:20:13.777Z</time>
      </trkpt>
      <trkpt lat="45.82263" lon="-0.77148">
        <ele>29</ele>
        <time>2014-09-28T07:20:20.780Z</time>
      </trkpt>
      <trkpt lat="45.82264" lon="-0.77149">
        <ele>29</ele>
        <time>2014-09-28T07:20:21.778Z</time>
      </trkpt>
      <trkpt lat="45.82268" lon="-0.77158">
        <ele>29</ele>
        <time>2014-09-28T07:20:27.780Z</time>
      </trkpt>
      <trkpt lat="45.82269" lon="-0.77159">
        <ele>29</ele>
        <time>2014-09-28T07:20:28.778Z</time>
      </trkpt>
      <trkpt lat="45.82275" lon="-0.77166">
        <ele>29</ele>
        <time>2014-09-28T07:20:33.782Z</time>
      </trkpt>
      <trkpt lat="45.82276" lon="-0.77168">
        <ele>29</ele>
        <time>2014-09-28T07:20:34.775Z</time>
      </trkpt>
      <trkpt lat="45.82285" lon="-0.77165">
        <ele>29</ele>
        <time>2014-09-28T07:20:40.779Z</time>
      </trkpt>
      <trkpt lat="45.82286" lon="-0.77164">
        <ele>29</ele>
        <time>2014-09-28T07:20:41.786Z</time>
      </trkpt>
      <trkpt lat="45.8229" lon="-0.77155">
        <ele>29</ele>
        <time>2014-09-28T07:20:46.779Z</time>
      </trkpt>
      <trkpt lat="45.82291" lon="-0.77153">
        <ele>29</ele>
        <time>2014-09-28T07:20:47.786Z</time>
      </trkpt>
      <trkpt lat="45.82293" lon="-0.77142">
        <ele>28</ele>
        <time>2014-09-28T07:20:53.781Z</time>
      </trkpt>
      <trkpt lat="45.82294" lon="-0.7714">
        <ele>28</ele>
        <time>2014-09-28T07:20:54.781Z</time>
      </trkpt>
      <trkpt lat="45.82297" lon="-0.77129">
        <ele>28</ele>
        <time>2014-09-28T07:21:00.774Z</time>
      </trkpt>
      <trkpt lat="45.82298" lon="-0.77127">
        <ele>28</ele>
        <time>2014-09-28T07:21:01.781Z</time>
      </trkpt>
      <trkpt lat="45.823" lon="-0.77115">
        <ele>28</ele>
        <time>2014-09-28T07:21:09.776Z</time>
      </trkpt>
      <trkpt lat="45.823" lon="-0.77113">
        <ele>28</ele>
        <time>2014-09-28T07:21:10.775Z</time>
      </trkpt>
      <trkpt lat="45.82302" lon="-0.77102">
        <ele>28</ele>
        <time>2014-09-28T07:21:16.767Z</time>
      </trkpt>
      <trkpt lat="45.82302" lon="-0.771">
        <ele>28</ele>
        <time>2014-09-28T07:21:17.778Z</time>
      </trkpt>
      <trkpt lat="45.82305" lon="-0.77089">
        <ele>28</ele>
        <time>2014-09-28T07:21:24.782Z</time>
      </trkpt>
      <trkpt lat="45.82305" lon="-0.77088">
        <ele>28</ele>
        <time>2014-09-28T07:21:25.782Z</time>
      </trkpt>
      <trkpt lat="45.82314" lon="-0.77086">
        <ele>28</ele>
        <time>2014-09-28T07:21:34.782Z</time>
      </trkpt>
      <trkpt lat="45.82315" lon="-0.77087">
        <ele>28</ele>
        <time>2014-09-28T07:21:35.779Z</time>
      </trkpt>
      <trkpt lat="45.82322" lon="-0.77093">
        <ele>28</ele>
        <time>2014-09-28T07:21:41.781Z</time>
      </trkpt>
      <trkpt lat="45.82324" lon="-0.77094">
        <ele>28</ele>
        <time>2014-09-28T07:21:42.782Z</time>
      </trkpt>
      <trkpt lat="45.82331" lon="-0.771">
        <ele>28</ele>
        <time>2014-09-28T07:21:49.777Z</time>
      </trkpt>
      <trkpt lat="45.82332" lon="-0.77101">
        <ele>28</ele>
        <time>2014-09-28T07:21:50.780Z</time>
      </trkpt>
      <trkpt lat="45.82339" lon="-0.77107">
        <ele>27</ele>
        <time>2014-09-28T07:21:56.778Z</time>
      </trkpt>
      <trkpt lat="45.8234" lon="-0.77108">
        <ele>27</ele>
        <time>2014-09-28T07:21:57.780Z</time>
      </trkpt>
      <trkpt lat="45.82347" lon="-0.77115">
        <ele>27</ele>
        <time>2014-09-28T07:22:03.997Z</time>
      </trkpt>
      <trkpt lat="45.82348" lon="-0.77116">
        <ele>27</ele>
        <time>2014-09-28T07:22:04.777Z</time>
      </trkpt>
      <trkpt lat="45.82356" lon="-0.77121">
        <ele>27</ele>
        <time>2014-09-28T07:22:11.780Z</time>
      </trkpt>
      <trkpt lat="45.82357" lon="-0.77121">
        <ele>27</ele>
        <time>2014-09-28T07:22:12.777Z</time>
      </trkpt>
      <trkpt lat="45.82365" lon="-0.77127">
        <ele>27</ele>
        <time>2014-09-28T07:22:19.776Z</time>
      </trkpt>
      <trkpt lat="45.82366" lon="-0.77127">
        <ele>27</ele>
        <time>2014-09-28T07:22:20.774Z</time>
      </trkpt>
      <trkpt lat="45.82373" lon="-0.77132">
        <ele>27</ele>
        <time>2014-09-28T07:22:26.781Z</time>
      </trkpt>
      <trkpt lat="45.82374" lon="-0.77133">
        <ele>27</ele>
        <time>2014-09-28T07:22:27.780Z</time>
      </trkpt>
      <trkpt lat="45.82381" lon="-0.7714">
        <ele>27</ele>
        <time>2014-09-28T07:22:32.780Z</time>
      </trkpt>
      <trkpt lat="45.82382" lon="-0.77141">
        <ele>27</ele>
        <time>2014-09-28T07:22:33.783Z</time>
      </trkpt>
      <trkpt lat="45.82389" lon="-0.77148">
        <ele>27</ele>
        <time>2014-09-28T07:22:39.781Z</time>
      </trkpt>
      <trkpt lat="45.8239" lon="-0.77149">
        <ele>27</ele>
        <time>2014-09-28T07:22:40.779Z</time>
      </trkpt>
      <trkpt lat="45.82397" lon="-0.77154">
        <ele>27</ele>
        <time>2014-09-28T07:22:47.765Z</time>
      </trkpt>
      <trkpt lat="45.82398" lon="-0.77155">
        <ele>27</ele>
        <time>2014-09-28T07:22:48.778Z</time>
      </trkpt>
      <trkpt lat="45.82405" lon="-0.77161">
        <ele>27</ele>
        <time>2014-09-28T07:22:55.782Z</time>
      </trkpt>
      <trkpt lat="45.82406" lon="-0.77162">
        <ele>27</ele>
        <time>2014-09-28T07:22:56.773Z</time>
      </trkpt>
      <trkpt lat="45.82413" lon="-0.77169">
        <ele>27</ele>
        <time>2014-09-28T07:23:04.031Z</time>
      </trkpt>
      <trkpt lat="45.82414" lon="-0.7717">
        <ele>27</ele>
        <time>2014-09-28T07:23:04.780Z</time>
      </trkpt>
      <trkpt lat="45.8242" lon="-0.77176">
        <ele>27</ele>
        <time>2014-09-28T07:23:09.778Z</time>
      </trkpt>
      <trkpt lat="45.82422" lon="-0.77178">
        <ele>27</ele>
        <time>2014-09-28T07:23:10.778Z</time>
      </trkpt>
      <trkpt lat="45.82428" lon="-0.77185">
        <ele>27</ele>
        <time>2014-09-28T07:23:17.779Z</time>
      </trkpt>
      <trkpt lat="45.8243" lon="-0.77186">
        <ele>27</ele>
        <time>2014-09-28T07:23:18.777Z</time>
      </trkpt>
      <trkpt lat="45.82437" lon="-0.77191">
        <ele>27</ele>
        <time>2014-09-28T07:23:25.783Z</time>
      </trkpt>
      <trkpt lat="45.82438" lon="-0.77192">
        <ele>27</ele>
        <time>2014-09-28T07:23:26.778Z</time>
      </trkpt>
      <trkpt lat="45.82445" lon="-0.77198">
        <ele>27</ele>
        <time>2014-09-28T07:23:32.791Z</time>
      </trkpt>
      <trkpt lat="45.82446" lon="-0.77199">
        <ele>27</ele>
        <time>2014-09-28T07:23:33.796Z</time>
      </trkpt>
      <trkpt lat="45.82453" lon="-0.77205">
        <ele>27</ele>
        <time>2014-09-28T07:23:39.783Z</time>
      </trkpt>
      <trkpt lat="45.82454" lon="-0.77206">
        <ele>27</ele>
        <time>2014-09-28T07:23:40.783Z</time>
      </trkpt>
      <trkpt lat="45.82461" lon="-0.77213">
        <ele>26</ele>
        <time>2014-09-28T07:23:48.927Z</time>
      </trkpt>
      <trkpt lat="45.82462" lon="-0.77214">
        <ele>26</ele>
        <time>2014-09-28T07:23:49.788Z</time>
      </trkpt>
      <trkpt lat="45.82469" lon="-0.7722">
        <ele>26</ele>
        <time>2014-09-28T07:23:55.790Z</time>
      </trkpt>
      <trkpt lat="45.8247" lon="-0.77221">
        <ele>26</ele>
        <time>2014-09-28T07:23:56.786Z</time>
      </trkpt>
      <trkpt lat="45.82477" lon="-0.77228">
        <ele>26</ele>
        <time>2014-09-28T07:24:04.005Z</time>
      </trkpt>
      <trkpt lat="45.82478" lon="-0.77229">
        <ele>26</ele>
        <time>2014-09-28T07:24:04.782Z</time>
      </trkpt>
      <trkpt lat="45.82485" lon="-0.77234">
        <ele>26</ele>
        <time>2014-09-28T07:24:10.784Z</time>
      </trkpt>
      <trkpt lat="45.82486" lon="-0.77235">
        <ele>26</ele>
        <time>2014-09-28T07:24:11.784Z</time>
      </trkpt>
      <trkpt lat="45.82494" lon="-0.7724">
        <ele>26</ele>
        <time>2014-09-28T07:24:19.071Z</time>
      </trkpt>
      <trkpt lat="45.82495" lon="-0.77242">
        <ele>26</ele>
        <time>2014-09-28T07:24:19.883Z</time>
      </trkpt>
      <trkpt lat="45.82502" lon="-0.77248">
        <ele>26</ele>
        <time>2014-09-28T07:24:26.834Z</time>
      </trkpt>
      <trkpt lat="45.82503" lon="-0.77249">
        <ele>26</ele>
        <time>2014-09-28T07:24:27.786Z</time>
      </trkpt>
      <trkpt lat="45.8251" lon="-0.77255">
        <ele>26</ele>
        <time>2014-09-28T07:24:34.121Z</time>
      </trkpt>
      <trkpt lat="45.82511" lon="-0.77256">
        <ele>26</ele>
        <time>2014-09-28T07:24:34.793Z</time>
      </trkpt>
      <trkpt lat="45.82519" lon="-0.77261">
        <ele>26</ele>
        <time>2014-09-28T07:24:40.798Z</time>
      </trkpt>
      <trkpt lat="45.82519" lon="-0.77261">
        <ele>26</ele>
        <time>2014-09-28T07:24:41.786Z</time>
      </trkpt>
      <trkpt lat="45.82527" lon="-0.77266">
        <ele>26</ele>
        <time>2014-09-28T07:24:48.945Z</time>
      </trkpt>
      <trkpt lat="45.82528" lon="-0.77268">
        <ele>26</ele>
        <time>2014-09-28T07:24:49.788Z</time>
      </trkpt>
      <trkpt lat="45.82536" lon="-0.77274">
        <ele>26</ele>
        <time>2014-09-28T07:24:57.784Z</time>
      </trkpt>
      <trkpt lat="45.82537" lon="-0.77275">
        <ele>26</ele>
        <time>2014-09-28T07:24:58.790Z</time>
      </trkpt>
      <trkpt lat="45.82544" lon="-0.77281">
        <ele>26</ele>
        <time>2014-09-28T07:25:06.781Z</time>
      </trkpt>
      <trkpt lat="45.82545" lon="-0.77281">
        <ele>26</ele>
        <time>2014-09-28T07:25:07.783Z</time>
      </trkpt>
      <trkpt lat="45.82552" lon="-0.77286">
        <ele>26</ele>
        <time>2014-09-28T07:25:24.127Z</time>
      </trkpt>
      <trkpt lat="45.82553" lon="-0.77286">
        <ele>26</ele>
        <time>2014-09-28T07:25:24.765Z</time>
      </trkpt>
      <trkpt lat="45.82559" lon="-0.77293">
        <ele>26</ele>
        <time>2014-09-28T07:25:30.788Z</time>
      </trkpt>
      <trkpt lat="45.82561" lon="-0.77294">
        <ele>26</ele>
        <time>2014-09-28T07:25:31.790Z</time>
      </trkpt>
      <trkpt lat="45.82568" lon="-0.773">
        <ele>26</ele>
        <time>2014-09-28T07:25:37.777Z</time>
      </trkpt>
      <trkpt lat="45.82569" lon="-0.77301">
        <ele>26</ele>
        <time>2014-09-28T07:25:38.780Z</time>
      </trkpt>
      <trkpt lat="45.82577" lon="-0.77304">
        <ele>26</ele>
        <time>2014-09-28T07:25:45.776Z</time>
      </trkpt>
      <trkpt lat="45.82578" lon="-0.77304">
        <ele>26</ele>
        <time>2014-09-28T07:25:46.801Z</time>
      </trkpt>
      <trkpt lat="45.82585" lon="-0.77297">
        <ele>25</ele>
        <time>2014-09-28T07:25:51.780Z</time>
      </trkpt>
      <trkpt lat="45.82586" lon="-0.77296">
        <ele>25</ele>
        <time>2014-09-28T07:25:52.779Z</time>
      </trkpt>
      <trkpt lat="45.82593" lon="-0.77287">
        <ele>25</ele>
        <time>2014-09-28T07:25:59.783Z</time>
      </trkpt>
      <trkpt lat="45.82593" lon="-0.77285">
        <ele>25</ele>
        <time>2014-09-28T07:26:00.805Z</time>
      </trkpt>
      <trkpt lat="45.82597" lon="-0.77275">
        <ele>24</ele>
        <time>2014-09-28T07:26:07.781Z</time>
      </trkpt>
      <trkpt lat="45.82597" lon="-0.77273">
        <ele>24</ele>
        <time>2014-09-28T07:26:08.772Z</time>
      </trkpt>
      <trkpt lat="45.826" lon="-0.77262">
        <ele>24</ele>
        <time>2014-09-28T07:26:14.780Z</time>
      </trkpt>
      <trkpt lat="45.826" lon="-0.77261">
        <ele>24</ele>
        <time>2014-09-28T07:26:15.778Z</time>
      </trkpt>
      <trkpt lat="45.82609" lon="-0.77261">
        <ele>24</ele>
        <time>2014-09-28T07:26:24.780Z</time>
      </trkpt>
      <trkpt lat="45.8261" lon="-0.77262">
        <ele>24</ele>
        <time>2014-09-28T07:26:25.781Z</time>
      </trkpt>
      <trkpt lat="45.82616" lon="-0.7727">
        <ele>24</ele>
        <time>2014-09-28T07:26:32.781Z</time>
      </trkpt>
      <trkpt lat="45.82617" lon="-0.77271">
        <ele>24</ele>
        <time>2014-09-28T07:26:33.785Z</time>
      </trkpt>
      <trkpt lat="45.82621" lon="-0.7728">
        <ele>24</ele>
        <time>2014-09-28T07:26:39.781Z</time>
      </trkpt>
      <trkpt lat="45.82622" lon="-0.77282">
        <ele>24</ele>
        <time>2014-09-28T07:26:40.779Z</time>
      </trkpt>
      <trkpt lat="45.82626" lon="-0.77292">
        <ele>24</ele>
        <time>2014-09-28T07:26:48.946Z</time>
      </trkpt>
      <trkpt lat="45.82627" lon="-0.77294">
        <ele>25</ele>
        <time>2014-09-28T07:26:49.778Z</time>
      </trkpt>
      <trkpt lat="45.82632" lon="-0.77303">
        <ele>25</ele>
        <time>2014-09-28T07:26:56.789Z</time>
      </trkpt>
      <trkpt lat="45.82632" lon="-0.77304">
        <ele>25</ele>
        <time>2014-09-28T07:26:57.778Z</time>
      </trkpt>
      <trkpt lat="45.82638" lon="-0.77313">
        <ele>25</ele>
        <time>2014-09-28T07:27:04.778Z</time>
      </trkpt>
      <trkpt lat="45.82639" lon="-0.77314">
        <ele>25</ele>
        <time>2014-09-28T07:27:05.781Z</time>
      </trkpt>
      <trkpt lat="45.82644" lon="-0.77324">
        <ele>25</ele>
        <time>2014-09-28T07:27:12.779Z</time>
      </trkpt>
      <trkpt lat="45.82644" lon="-0.77326">
        <ele>25</ele>
        <time>2014-09-28T07:27:13.780Z</time>
      </trkpt>
      <trkpt lat="45.82649" lon="-0.77336">
        <ele>26</ele>
        <time>2014-09-28T07:27:21.773Z</time>
      </trkpt>
      <trkpt lat="45.8265" lon="-0.77338">
        <ele>26</ele>
        <time>2014-09-28T07:27:22.774Z</time>
      </trkpt>
      <trkpt lat="45.82655" lon="-0.77347">
        <ele>26</ele>
        <time>2014-09-28T07:27:29.190Z</time>
      </trkpt>
      <trkpt lat="45.82656" lon="-0.77348">
        <ele>26</ele>
        <time>2014-09-28T07:27:29.772Z</time>
      </trkpt>
      <trkpt lat="45.8266" lon="-0.77358">
        <ele>26</ele>
        <time>2014-09-28T07:27:35.769Z</time>
      </trkpt>
      <trkpt lat="45.82661" lon="-0.7736">
        <ele>26</ele>
        <time>2014-09-28T07:27:36.769Z</time>
      </trkpt>
      <trkpt lat="45.82665" lon="-0.77369">
        <ele>26</ele>
        <time>2014-09-28T07:27:42.767Z</time>
      </trkpt>
      <trkpt lat="45.82666" lon="-0.7737">
        <ele>26</ele>
        <time>2014-09-28T07:27:43.773Z</time>
      </trkpt>
      <trkpt lat="45.82671" lon="-0.7738">
        <ele>25</ele>
        <time>2014-09-28T07:27:51.778Z</time>
      </trkpt>
      <trkpt lat="45.82672" lon="-0.77382">
        <ele>25</ele>
        <time>2014-09-28T07:27:52.777Z</time>
      </trkpt>
      <trkpt lat="45.82678" lon="-0.77391">
        <ele>25</ele>
        <time>2014-09-28T07:27:59.781Z</time>
      </trkpt>
      <trkpt lat="45.82679" lon="-0.77393">
        <ele>25</ele>
        <time>2014-09-28T07:28:00.787Z</time>
      </trkpt>
      <trkpt lat="45.82684" lon="-0.77403">
        <ele>25</ele>
        <time>2014-09-28T07:28:06.770Z</time>
      </trkpt>
      <trkpt lat="45.82685" lon="-0.77404">
        <ele>25</ele>
        <time>2014-09-28T07:28:07.793Z</time>
      </trkpt>
      <trkpt lat="45.82689" lon="-0.77414">
        <ele>25</ele>
        <time>2014-09-28T07:28:14.775Z</time>
      </trkpt>
      <trkpt lat="45.8269" lon="-0.77415">
        <ele>25</ele>
        <time>2014-09-28T07:28:15.776Z</time>
      </trkpt>
      <trkpt lat="45.82695" lon="-0.77425">
        <ele>26</ele>
        <time>2014-09-28T07:28:22.772Z</time>
      </trkpt>
      <trkpt lat="45.82696" lon="-0.77427">
        <ele>26</ele>
        <time>2014-09-28T07:28:23.772Z</time>
      </trkpt>
      <trkpt lat="45.82701" lon="-0.77437">
        <ele>26</ele>
        <time>2014-09-28T07:28:31.771Z</time>
      </trkpt>
      <trkpt lat="45.82702" lon="-0.77438">
        <ele>26</ele>
        <time>2014-09-28T07:28:32.772Z</time>
      </trkpt>
      <trkpt lat="45.82708" lon="-0.77446">
        <ele>26</ele>
        <time>2014-09-28T07:28:39.688Z</time>
      </trkpt>
      <trkpt lat="45.82709" lon="-0.77447">
        <ele>26</ele>
        <time>2014-09-28T07:28:39.774Z</time>
      </trkpt>
      <trkpt lat="45.82715" lon="-0.77455">
        <ele>26</ele>
        <time>2014-09-28T07:28:46.776Z</time>
      </trkpt>
      <trkpt lat="45.82716" lon="-0.77456">
        <ele>26</ele>
        <time>2014-09-28T07:28:47.771Z</time>
      </trkpt>
      <trkpt lat="45.82722" lon="-0.77464">
        <ele>26</ele>
        <time>2014-09-28T07:28:55.777Z</time>
      </trkpt>
      <trkpt lat="45.82723" lon="-0.77465">
        <ele>26</ele>
        <time>2014-09-28T07:28:56.779Z</time>
      </trkpt>
      <trkpt lat="45.8273" lon="-0.77473">
        <ele>26</ele>
        <time>2014-09-28T07:29:05.775Z</time>
      </trkpt>
      <trkpt lat="45.82731" lon="-0.77473">
        <ele>26</ele>
        <time>2014-09-28T07:29:06.779Z</time>
      </trkpt>
      <trkpt lat="45.82739" lon="-0.77475">
        <ele>26</ele>
        <time>2014-09-28T07:29:14.345Z</time>
      </trkpt>
      <trkpt lat="45.8274" lon="-0.77475">
        <ele>26</ele>
        <time>2014-09-28T07:29:14.771Z</time>
      </trkpt>
      <trkpt lat="45.82748" lon="-0.77472">
        <ele>26</ele>
        <time>2014-09-28T07:29:21.770Z</time>
      </trkpt>
      <trkpt lat="45.82749" lon="-0.77471">
        <ele>26</ele>
        <time>2014-09-28T07:29:22.766Z</time>
      </trkpt>
      <trkpt lat="45.82756" lon="-0.77466">
        <ele>25</ele>
        <time>2014-09-28T07:29:29.775Z</time>
      </trkpt>
      <trkpt lat="45.82757" lon="-0.77466">
        <ele>25</ele>
        <time>2014-09-28T07:29:30.771Z</time>
      </trkpt>
      <trkpt lat="45.82765" lon="-0.77462">
        <ele>25</ele>
        <time>2014-09-28T07:29:39.476Z</time>
      </trkpt>
      <trkpt lat="45.82767" lon="-0.77463">
        <ele>25</ele>
        <time>2014-09-28T07:29:39.775Z</time>
      </trkpt>
      <trkpt lat="45.82774" lon="-0.77467">
        <ele>25</ele>
        <time>2014-09-28T07:29:46.773Z</time>
      </trkpt>
      <trkpt lat="45.82776" lon="-0.77468">
        <ele>25</ele>
        <time>2014-09-28T07:29:47.774Z</time>
      </trkpt>
      <trkpt lat="45.82783" lon="-0.77473">
        <ele>25</ele>
        <time>2014-09-28T07:29:54.776Z</time>
      </trkpt>
      <trkpt lat="45.82784" lon="-0.77474">
        <ele>25</ele>
        <time>2014-09-28T07:29:55.778Z</time>
      </trkpt>
      <trkpt lat="45.82791" lon="-0.7748">
        <ele>25</ele>
        <time>2014-09-28T07:30:02.775Z</time>
      </trkpt>
      <trkpt lat="45.82792" lon="-0.77481">
        <ele>25</ele>
        <time>2014-09-28T07:30:03.776Z</time>
      </trkpt>
      <trkpt lat="45.82798" lon="-0.77488">
        <ele>25</ele>
        <time>2014-09-28T07:30:10.787Z</time>
      </trkpt>
      <trkpt lat="45.82799" lon="-0.77489">
        <ele>25</ele>
        <time>2014-09-28T07:30:11.778Z</time>
      </trkpt>
      <trkpt lat="45.82807" lon="-0.77495">
        <ele>25</ele>
        <time>2014-09-28T07:30:19.193Z</time>
      </trkpt>
      <trkpt lat="45.82808" lon="-0.77496">
        <ele>25</ele>
        <time>2014-09-28T07:30:19.783Z</time>
      </trkpt>
      <trkpt lat="45.82815" lon="-0.77504">
        <ele>25</ele>
        <time>2014-09-28T07:30:26.790Z</time>
      </trkpt>
      <trkpt lat="45.82815" lon="-0.77504">
        <ele>25</ele>
        <time>2014-09-28T07:30:27.782Z</time>
      </trkpt>
      <trkpt lat="45.82823" lon="-0.77508">
        <ele>25</ele>
        <time>2014-09-28T07:30:34.787Z</time>
      </trkpt>
      <trkpt lat="45.82824" lon="-0.77509">
        <ele>25</ele>
        <time>2014-09-28T07:30:35.785Z</time>
      </trkpt>
      <trkpt lat="45.8283" lon="-0.77515">
        <ele>25</ele>
        <time>2014-09-28T07:30:42.779Z</time>
      </trkpt>
      <trkpt lat="45.82831" lon="-0.77516">
        <ele>25</ele>
        <time>2014-09-28T07:30:43.782Z</time>
      </trkpt>
      <trkpt lat="45.82838" lon="-0.77521">
        <ele>25</ele>
        <time>2014-09-28T07:30:50.781Z</time>
      </trkpt>
      <trkpt lat="45.8284" lon="-0.77523">
        <ele>25</ele>
        <time>2014-09-28T07:30:51.777Z</time>
      </trkpt>
      <trkpt lat="45.82847" lon="-0.77529">
        <ele>24</ele>
        <time>2014-09-28T07:30:58.767Z</time>
      </trkpt>
      <trkpt lat="45.82848" lon="-0.77529">
        <ele>24</ele>
        <time>2014-09-28T07:30:59.779Z</time>
      </trkpt>
      <trkpt lat="45.82856" lon="-0.77536">
        <ele>24</ele>
        <time>2014-09-28T07:31:06.781Z</time>
      </trkpt>
      <trkpt lat="45.82857" lon="-0.77537">
        <ele>24</ele>
        <time>2014-09-28T07:31:07.779Z</time>
      </trkpt>
      <trkpt lat="45.82864" lon="-0.77542">
        <ele>24</ele>
        <time>2014-09-28T07:31:13.784Z</time>
      </trkpt>
      <trkpt lat="45.82865" lon="-0.77543">
        <ele>24</ele>
        <time>2014-09-28T07:31:14.782Z</time>
      </trkpt>
      <trkpt lat="45.82872" lon="-0.7755">
        <ele>24</ele>
        <time>2014-09-28T07:31:20.783Z</time>
      </trkpt>
      <trkpt lat="45.82873" lon="-0.77552">
        <ele>24</ele>
        <time>2014-09-28T07:31:21.787Z</time>
      </trkpt>
      <trkpt lat="45.82878" lon="-0.7756">
        <ele>24</ele>
        <time>2014-09-28T07:31:29.776Z</time>
      </trkpt>
      <trkpt lat="45.82879" lon="-0.77561">
        <ele>24</ele>
        <time>2014-09-28T07:31:30.778Z</time>
      </trkpt>
      <trkpt lat="45.82887" lon="-0.77566">
        <ele>24</ele>
        <time>2014-09-28T07:31:37.783Z</time>
      </trkpt>
      <trkpt lat="45.82888" lon="-0.77566">
        <ele>24</ele>
        <time>2014-09-28T07:31:38.783Z</time>
      </trkpt>
      <trkpt lat="45.82895" lon="-0.77573">
        <ele>24</ele>
        <time>2014-09-28T07:31:44.781Z</time>
      </trkpt>
      <trkpt lat="45.82896" lon="-0.77574">
        <ele>24</ele>
        <time>2014-09-28T07:31:45.789Z</time>
      </trkpt>
      <trkpt lat="45.82904" lon="-0.77576">
        <ele>24</ele>
        <time>2014-09-28T07:31:52.776Z</time>
      </trkpt>
      <trkpt lat="45.82906" lon="-0.77577">
        <ele>24</ele>
        <time>2014-09-28T07:31:53.783Z</time>
      </trkpt>
      <trkpt lat="45.82913" lon="-0.77583">
        <ele>24</ele>
        <time>2014-09-28T07:31:59.789Z</time>
      </trkpt>
      <trkpt lat="45.82914" lon="-0.77585">
        <ele>24</ele>
        <time>2014-09-28T07:32:00.786Z</time>
      </trkpt>
      <trkpt lat="45.82921" lon="-0.77592">
        <ele>24</ele>
        <time>2014-09-28T07:32:07.786Z</time>
      </trkpt>
      <trkpt lat="45.82922" lon="-0.77593">
        <ele>24</ele>
        <time>2014-09-28T07:32:08.786Z</time>
      </trkpt>
      <trkpt lat="45.82929" lon="-0.776">
        <ele>24</ele>
        <time>2014-09-28T07:32:15.788Z</time>
      </trkpt>
      <trkpt lat="45.8293" lon="-0.776">
        <ele>24</ele>
        <time>2014-09-28T07:32:16.788Z</time>
      </trkpt>
      <trkpt lat="45.82938" lon="-0.77605">
        <ele>23</ele>
        <time>2014-09-28T07:32:24.073Z</time>
      </trkpt>
      <trkpt lat="45.82939" lon="-0.77606">
        <ele>23</ele>
        <time>2014-09-28T07:32:24.782Z</time>
      </trkpt>
      <trkpt lat="45.82946" lon="-0.77613">
        <ele>23</ele>
        <time>2014-09-28T07:32:31.794Z</time>
      </trkpt>
      <trkpt lat="45.82947" lon="-0.77613">
        <ele>23</ele>
        <time>2014-09-28T07:32:32.785Z</time>
      </trkpt>
      <trkpt lat="45.82954" lon="-0.7762">
        <ele>23</ele>
        <time>2014-09-28T07:32:39.787Z</time>
      </trkpt>
      <trkpt lat="45.82956" lon="-0.77621">
        <ele>23</ele>
        <time>2014-09-28T07:32:40.791Z</time>
      </trkpt>
      <trkpt lat="45.82962" lon="-0.7763">
        <ele>23</ele>
        <time>2014-09-28T07:32:47.789Z</time>
      </trkpt>
      <trkpt lat="45.82963" lon="-0.77631">
        <ele>23</ele>
        <time>2014-09-28T07:32:48.791Z</time>
      </trkpt>
      <trkpt lat="45.8297" lon="-0.77638">
        <ele>23</ele>
        <time>2014-09-28T07:32:54.795Z</time>
      </trkpt>
      <trkpt lat="45.82971" lon="-0.77639">
        <ele>23</ele>
        <time>2014-09-28T07:32:55.791Z</time>
      </trkpt>
      <trkpt lat="45.8298" lon="-0.77641">
        <ele>23</ele>
        <time>2014-09-28T07:33:02.789Z</time>
      </trkpt>
      <trkpt lat="45.82981" lon="-0.77641">
        <ele>23</ele>
        <time>2014-09-28T07:33:03.793Z</time>
      </trkpt>
      <trkpt lat="45.82989" lon="-0.77647">
        <ele>23</ele>
        <time>2014-09-28T07:33:10.786Z</time>
      </trkpt>
      <trkpt lat="45.8299" lon="-0.77647">
        <ele>23</ele>
        <time>2014-09-28T07:33:11.791Z</time>
      </trkpt>
      <trkpt lat="45.82997" lon="-0.77652">
        <ele>23</ele>
        <time>2014-09-28T07:33:17.791Z</time>
      </trkpt>
      <trkpt lat="45.82998" lon="-0.77652">
        <ele>23</ele>
        <time>2014-09-28T07:33:18.792Z</time>
      </trkpt>
      <trkpt lat="45.83006" lon="-0.77658">
        <ele>23</ele>
        <time>2014-09-28T07:33:25.789Z</time>
      </trkpt>
      <trkpt lat="45.83007" lon="-0.77659">
        <ele>23</ele>
        <time>2014-09-28T07:33:26.790Z</time>
      </trkpt>
      <trkpt lat="45.83013" lon="-0.77667">
        <ele>23</ele>
        <time>2014-09-28T07:33:32.787Z</time>
      </trkpt>
      <trkpt lat="45.83014" lon="-0.77668">
        <ele>22</ele>
        <time>2014-09-28T07:33:33.787Z</time>
      </trkpt>
      <trkpt lat="45.83021" lon="-0.77675">
        <ele>22</ele>
        <time>2014-09-28T07:33:39.791Z</time>
      </trkpt>
      <trkpt lat="45.83022" lon="-0.77676">
        <ele>22</ele>
        <time>2014-09-28T07:33:40.786Z</time>
      </trkpt>
      <trkpt lat="45.83028" lon="-0.7768">
        <ele>22</ele>
        <time>2014-09-28T07:33:46.792Z</time>
      </trkpt>
      <trkpt lat="45.8303" lon="-0.77681">
        <ele>22</ele>
        <time>2014-09-28T07:33:47.789Z</time>
      </trkpt>
      <trkpt lat="45.83037" lon="-0.77689">
        <ele>22</ele>
        <time>2014-09-28T07:33:54.795Z</time>
      </trkpt>
      <trkpt lat="45.83038" lon="-0.77689">
        <ele>22</ele>
        <time>2014-09-28T07:33:55.794Z</time>
      </trkpt>
      <trkpt lat="45.83044" lon="-0.77695">
        <ele>22</ele>
        <time>2014-09-28T07:34:01.790Z</time>
      </trkpt>
      <trkpt lat="45.83046" lon="-0.77696">
        <ele>22</ele>
        <time>2014-09-28T07:34:02.791Z</time>
      </trkpt>
      <trkpt lat="45.83051" lon="-0.77705">
        <ele>22</ele>
        <time>2014-09-28T07:34:07.788Z</time>
      </trkpt>
      <trkpt lat="45.83052" lon="-0.77706">
        <ele>22</ele>
        <time>2014-09-28T07:34:08.790Z</time>
      </trkpt>
      <trkpt lat="45.8306" lon="-0.77712">
        <ele>22</ele>
        <time>2014-09-28T07:34:15.789Z</time>
      </trkpt>
      <trkpt lat="45.83061" lon="-0.77712">
        <ele>22</ele>
        <time>2014-09-28T07:34:16.793Z</time>
      </trkpt>
      <trkpt lat="45.83069" lon="-0.77717">
        <ele>22</ele>
        <time>2014-09-28T07:34:24.796Z</time>
      </trkpt>
      <trkpt lat="45.8307" lon="-0.77718">
        <ele>22</ele>
        <time>2014-09-28T07:34:25.792Z</time>
      </trkpt>
      <trkpt lat="45.83077" lon="-0.77721">
        <ele>22</ele>
        <time>2014-09-28T07:34:31.790Z</time>
      </trkpt>
      <trkpt lat="45.83079" lon="-0.77722">
        <ele>22</ele>
        <time>2014-09-28T07:34:32.790Z</time>
      </trkpt>
      <trkpt lat="45.83086" lon="-0.77727">
        <ele>23</ele>
        <time>2014-09-28T07:34:39.586Z</time>
      </trkpt>
      <trkpt lat="45.83087" lon="-0.77728">
        <ele>23</ele>
        <time>2014-09-28T07:34:39.801Z</time>
      </trkpt>
      <trkpt lat="45.83094" lon="-0.77732">
        <ele>23</ele>
        <time>2014-09-28T07:34:45.791Z</time>
      </trkpt>
      <trkpt lat="45.83096" lon="-0.77732">
        <ele>23</ele>
        <time>2014-09-28T07:34:46.806Z</time>
      </trkpt>
      <trkpt lat="45.83103" lon="-0.77738">
        <ele>23</ele>
        <time>2014-09-28T07:34:53.951Z</time>
      </trkpt>
      <trkpt lat="45.83104" lon="-0.77739">
        <ele>23</ele>
        <time>2014-09-28T07:34:54.788Z</time>
      </trkpt>
      <trkpt lat="45.8311" lon="-0.77746">
        <ele>23</ele>
        <time>2014-09-28T07:34:59.794Z</time>
      </trkpt>
      <trkpt lat="45.83112" lon="-0.77746">
        <ele>23</ele>
        <time>2014-09-28T07:35:00.877Z</time>
      </trkpt>
      <trkpt lat="45.83119" lon="-0.77752">
        <ele>22</ele>
        <time>2014-09-28T07:35:07.788Z</time>
      </trkpt>
      <trkpt lat="45.8312" lon="-0.77753">
        <ele>22</ele>
        <time>2014-09-28T07:35:08.784Z</time>
      </trkpt>
      <trkpt lat="45.83126" lon="-0.77761">
        <ele>22</ele>
        <time>2014-09-28T07:35:14.792Z</time>
      </trkpt>
      <trkpt lat="45.83127" lon="-0.77762">
        <ele>22</ele>
        <time>2014-09-28T07:35:15.787Z</time>
      </trkpt>
      <trkpt lat="45.83135" lon="-0.77769">
        <ele>22</ele>
        <time>2014-09-28T07:35:24.047Z</time>
      </trkpt>
      <trkpt lat="45.83136" lon="-0.77769">
        <ele>22</ele>
        <time>2014-09-28T07:35:24.785Z</time>
      </trkpt>
      <trkpt lat="45.83143" lon="-0.77773">
        <ele>22</ele>
        <time>2014-09-28T07:35:30.787Z</time>
      </trkpt>
      <trkpt lat="45.83144" lon="-0.77774">
        <ele>22</ele>
        <time>2014-09-28T07:35:31.793Z</time>
      </trkpt>
      <trkpt lat="45.83152" lon="-0.77778">
        <ele>22</ele>
        <time>2014-09-28T07:35:39.415Z</time>
      </trkpt>
      <trkpt lat="45.83153" lon="-0.77779">
        <ele>22</ele>
        <time>2014-09-28T07:35:39.785Z</time>
      </trkpt>
      <trkpt lat="45.83161" lon="-0.77784">
        <ele>22</ele>
        <time>2014-09-28T07:35:46.790Z</time>
      </trkpt>
      <trkpt lat="45.83162" lon="-0.77785">
        <ele>22</ele>
        <time>2014-09-28T07:35:47.790Z</time>
      </trkpt>
      <trkpt lat="45.83169" lon="-0.77792">
        <ele>23</ele>
        <time>2014-09-28T07:35:53.966Z</time>
      </trkpt>
      <trkpt lat="45.8317" lon="-0.77793">
        <ele>23</ele>
        <time>2014-09-28T07:35:54.784Z</time>
      </trkpt>
      <trkpt lat="45.83178" lon="-0.77799">
        <ele>23</ele>
        <time>2014-09-28T07:36:02.786Z</time>
      </trkpt>
      <trkpt lat="45.83179" lon="-0.778">
        <ele>23</ele>
        <time>2014-09-28T07:36:03.787Z</time>
      </trkpt>
      <trkpt lat="45.83185" lon="-0.77807">
        <ele>23</ele>
        <time>2014-09-28T07:36:09.781Z</time>
      </trkpt>
      <trkpt lat="45.83186" lon="-0.77808">
        <ele>23</ele>
        <time>2014-09-28T07:36:10.787Z</time>
      </trkpt>
      <trkpt lat="45.83193" lon="-0.77815">
        <ele>23</ele>
        <time>2014-09-28T07:36:17.787Z</time>
      </trkpt>
      <trkpt lat="45.83194" lon="-0.77815">
        <ele>23</ele>
        <time>2014-09-28T07:36:18.783Z</time>
      </trkpt>
      <trkpt lat="45.83202" lon="-0.77819">
        <ele>23</ele>
        <time>2014-09-28T07:36:24.792Z</time>
      </trkpt>
      <trkpt lat="45.83204" lon="-0.7782">
        <ele>23</ele>
        <time>2014-09-28T07:36:25.786Z</time>
      </trkpt>
      <trkpt lat="45.8321" lon="-0.77824">
        <ele>23</ele>
        <time>2014-09-28T07:36:30.788Z</time>
      </trkpt>
      <trkpt lat="45.83212" lon="-0.77825">
        <ele>23</ele>
        <time>2014-09-28T07:36:31.784Z</time>
      </trkpt>
      <trkpt lat="45.83219" lon="-0.77829">
        <ele>23</ele>
        <time>2014-09-28T07:36:37.787Z</time>
      </trkpt>
      <trkpt lat="45.8322" lon="-0.7783">
        <ele>23</ele>
        <time>2014-09-28T07:36:38.786Z</time>
      </trkpt>
      <trkpt lat="45.83229" lon="-0.77834">
        <ele>23</ele>
        <time>2014-09-28T07:36:46.787Z</time>
      </trkpt>
      <trkpt lat="45.8323" lon="-0.77835">
        <ele>23</ele>
        <time>2014-09-28T07:36:47.784Z</time>
      </trkpt>
      <trkpt lat="45.83237" lon="-0.77842">
        <ele>23</ele>
        <time>2014-09-28T07:36:53.970Z</time>
      </trkpt>
      <trkpt lat="45.83238" lon="-0.77843">
        <ele>23</ele>
        <time>2014-09-28T07:36:54.792Z</time>
      </trkpt>
      <trkpt lat="45.83245" lon="-0.7785">
        <ele>23</ele>
        <time>2014-09-28T07:37:01.789Z</time>
      </trkpt>
      <trkpt lat="45.83246" lon="-0.77852">
        <ele>23</ele>
        <time>2014-09-28T07:37:02.794Z</time>
      </trkpt>
      <trkpt lat="45.83254" lon="-0.77859">
        <ele>23</ele>
        <time>2014-09-28T07:37:09.792Z</time>
      </trkpt>
      <trkpt lat="45.83255" lon="-0.7786">
        <ele>23</ele>
        <time>2014-09-28T07:37:10.801Z</time>
      </trkpt>
      <trkpt lat="45.83262" lon="-0.77866">
        <ele>23</ele>
        <time>2014-09-28T07:37:16.801Z</time>
      </trkpt>
      <trkpt lat="45.83263" lon="-0.77867">
        <ele>23</ele>
        <time>2014-09-28T07:37:17.801Z</time>
      </trkpt>
      <trkpt lat="45.83267" lon="-0.77877">
        <ele>23</ele>
        <time>2014-09-28T07:37:24.803Z</time>
      </trkpt>
      <trkpt lat="45.83267" lon="-0.77878">
        <ele>23</ele>
        <time>2014-09-28T07:37:25.804Z</time>
      </trkpt>
      <trkpt lat="45.83272" lon="-0.77886">
        <ele>23</ele>
        <time>2014-09-28T07:37:31.805Z</time>
      </trkpt>
      <trkpt lat="45.83273" lon="-0.77888">
        <ele>23</ele>
        <time>2014-09-28T07:37:32.794Z</time>
      </trkpt>
      <trkpt lat="45.83279" lon="-0.77897">
        <ele>23</ele>
        <time>2014-09-28T07:37:37.803Z</time>
      </trkpt>
      <trkpt lat="45.8328" lon="-0.77898">
        <ele>23</ele>
        <time>2014-09-28T07:37:38.803Z</time>
      </trkpt>
      <trkpt lat="45.83288" lon="-0.77904">
        <ele>23</ele>
        <time>2014-09-28T07:37:45.790Z</time>
      </trkpt>
      <trkpt lat="45.83289" lon="-0.77904">
        <ele>23</ele>
        <time>2014-09-28T07:37:46.816Z</time>
      </trkpt>
      <trkpt lat="45.83296" lon="-0.7791">
        <ele>23</ele>
        <time>2014-09-28T07:37:53.989Z</time>
      </trkpt>
      <trkpt lat="45.83297" lon="-0.77911">
        <ele>23</ele>
        <time>2014-09-28T07:37:54.790Z</time>
      </trkpt>
      <trkpt lat="45.83304" lon="-0.77918">
        <ele>24</ele>
        <time>2014-09-28T07:38:01.781Z</time>
      </trkpt>
      <trkpt lat="45.83305" lon="-0.77919">
        <ele>24</ele>
        <time>2014-09-28T07:38:02.781Z</time>
      </trkpt>
      <trkpt lat="45.83312" lon="-0.77924">
        <ele>24</ele>
        <time>2014-09-28T07:38:09.035Z</time>
      </trkpt>
      <trkpt lat="45.83313" lon="-0.77925">
        <ele>24</ele>
        <time>2014-09-28T07:38:09.776Z</time>
      </trkpt>
      <trkpt lat="45.83321" lon="-0.77929">
        <ele>24</ele>
        <time>2014-09-28T07:38:17.789Z</time>
      </trkpt>
      <trkpt lat="45.83323" lon="-0.7793">
        <ele>24</ele>
        <time>2014-09-28T07:38:18.797Z</time>
      </trkpt>
      <trkpt lat="45.8333" lon="-0.77935">
        <ele>24</ele>
        <time>2014-09-28T07:38:24.790Z</time>
      </trkpt>
      <trkpt lat="45.83331" lon="-0.77935">
        <ele>24</ele>
        <time>2014-09-28T07:38:25.797Z</time>
      </trkpt>
      <trkpt lat="45.83337" lon="-0.77942">
        <ele>23</ele>
        <time>2014-09-28T07:38:31.790Z</time>
      </trkpt>
      <trkpt lat="45.83338" lon="-0.77943">
        <ele>23</ele>
        <time>2014-09-28T07:38:32.796Z</time>
      </trkpt>
      <trkpt lat="45.83345" lon="-0.77952">
        <ele>23</ele>
        <time>2014-09-28T07:38:39.182Z</time>
      </trkpt>
      <trkpt lat="45.83346" lon="-0.77952">
        <ele>23</ele>
        <time>2014-09-28T07:38:39.788Z</time>
      </trkpt>
      <trkpt lat="45.83352" lon="-0.7796">
        <ele>23</ele>
        <time>2014-09-28T07:38:52.782Z</time>
      </trkpt>
      <trkpt lat="45.83353" lon="-0.77961">
        <ele>23</ele>
        <time>2014-09-28T07:38:53.787Z</time>
      </trkpt>
      <trkpt lat="45.83354" lon="-0.77973">
        <ele>23</ele>
        <time>2014-09-28T07:39:05.784Z</time>
      </trkpt>
      <trkpt lat="45.83355" lon="-0.77975">
        <ele>23</ele>
        <time>2014-09-28T07:39:06.794Z</time>
      </trkpt>
      <trkpt lat="45.83347" lon="-0.7797">
        <ele>23</ele>
        <time>2014-09-28T07:39:29.950Z</time>
      </trkpt>
      <trkpt lat="45.83346" lon="-0.77969">
        <ele>23</ele>
        <time>2014-09-28T07:39:30.777Z</time>
      </trkpt>
      <trkpt lat="45.83338" lon="-0.77966">
        <ele>23</ele>
        <time>2014-09-28T07:39:37.776Z</time>
      </trkpt>
      <trkpt lat="45.83337" lon="-0.77966">
        <ele>23</ele>
        <time>2014-09-28T07:39:38.779Z</time>
      </trkpt>
      <trkpt lat="45.83329" lon="-0.77969">
        <ele>24</ele>
        <time>2014-09-28T07:39:44.765Z</time>
      </trkpt>
      <trkpt lat="45.83328" lon="-0.77969">
        <ele>24</ele>
        <time>2014-09-28T07:39:45.776Z</time>
      </trkpt>
      <trkpt lat="45.83319" lon="-0.7797">
        <ele>24</ele>
        <time>2014-09-28T07:39:53.963Z</time>
      </trkpt>
      <trkpt lat="45.83318" lon="-0.77969">
        <ele>24</ele>
        <time>2014-09-28T07:39:54.783Z</time>
      </trkpt>
      <trkpt lat="45.83309" lon="-0.77969">
        <ele>24</ele>
        <time>2014-09-28T07:40:01.783Z</time>
      </trkpt>
      <trkpt lat="45.83308" lon="-0.77969">
        <ele>24</ele>
        <time>2014-09-28T07:40:02.770Z</time>
      </trkpt>
      <trkpt lat="45.83299" lon="-0.7797">
        <ele>24</ele>
        <time>2014-09-28T07:40:09.769Z</time>
      </trkpt>
      <trkpt lat="45.83298" lon="-0.77969">
        <ele>24</ele>
        <time>2014-09-28T07:40:10.773Z</time>
      </trkpt>
      <trkpt lat="45.8329" lon="-0.77968">
        <ele>24</ele>
        <time>2014-09-28T07:40:16.782Z</time>
      </trkpt>
      <trkpt lat="45.83288" lon="-0.77968">
        <ele>24</ele>
        <time>2014-09-28T07:40:17.781Z</time>
      </trkpt>
      <trkpt lat="45.8328" lon="-0.7797">
        <ele>25</ele>
        <time>2014-09-28T07:40:21.778Z</time>
      </trkpt>
      <trkpt lat="45.83278" lon="-0.7797">
        <ele>25</ele>
        <time>2014-09-28T07:40:22.789Z</time>
      </trkpt>
      <trkpt lat="45.83271" lon="-0.77974">
        <ele>25</ele>
        <time>2014-09-28T07:40:29.084Z</time>
      </trkpt>
      <trkpt lat="45.8327" lon="-0.77975">
        <ele>25</ele>
        <time>2014-09-28T07:40:29.787Z</time>
      </trkpt>
      <trkpt lat="45.83262" lon="-0.77978">
        <ele>25</ele>
        <time>2014-09-28T07:40:36.791Z</time>
      </trkpt>
      <trkpt lat="45.83261" lon="-0.77978">
        <ele>25</ele>
        <time>2014-09-28T07:40:37.789Z</time>
      </trkpt>
      <trkpt lat="45.83253" lon="-0.7798">
        <ele>25</ele>
        <time>2014-09-28T07:40:44.142Z</time>
      </trkpt>
      <trkpt lat="45.83252" lon="-0.7798">
        <ele>25</ele>
        <time>2014-09-28T07:40:44.781Z</time>
      </trkpt>
      <trkpt lat="45.83243" lon="-0.77979">
        <ele>25</ele>
        <time>2014-09-28T07:40:53.975Z</time>
      </trkpt>
      <trkpt lat="45.83242" lon="-0.77979">
        <ele>25</ele>
        <time>2014-09-28T07:40:54.783Z</time>
      </trkpt>
      <trkpt lat="45.83234" lon="-0.7798">
        <ele>25</ele>
        <time>2014-09-28T07:40:59.779Z</time>
      </trkpt>
      <trkpt lat="45.83233" lon="-0.77981">
        <ele>25</ele>
        <time>2014-09-28T07:41:00.773Z</time>
      </trkpt>
      <trkpt lat="45.83224" lon="-0.77984">
        <ele>25</ele>
        <time>2014-09-28T07:41:05.779Z</time>
      </trkpt>
      <trkpt lat="45.83223" lon="-0.77984">
        <ele>25</ele>
        <time>2014-09-28T07:41:06.786Z</time>
      </trkpt>
      <trkpt lat="45.83214" lon="-0.77985">
        <ele>25</ele>
        <time>2014-09-28T07:41:14.800Z</time>
      </trkpt>
      <trkpt lat="45.83214" lon="-0.77985">
        <ele>25</ele>
        <time>2014-09-28T07:41:15.789Z</time>
      </trkpt>
      <trkpt lat="45.83205" lon="-0.77986">
        <ele>25</ele>
        <time>2014-09-28T07:41:24.065Z</time>
      </trkpt>
      <trkpt lat="45.83203" lon="-0.77986">
        <ele>25</ele>
        <time>2014-09-28T07:41:24.794Z</time>
      </trkpt>
      <trkpt lat="45.83195" lon="-0.77989">
        <ele>25</ele>
        <time>2014-09-28T07:41:29.784Z</time>
      </trkpt>
      <trkpt lat="45.83193" lon="-0.7799">
        <ele>25</ele>
        <time>2014-09-28T07:41:30.797Z</time>
      </trkpt>
      <trkpt lat="45.83185" lon="-0.77993">
        <ele>25</ele>
        <time>2014-09-28T07:41:36.788Z</time>
      </trkpt>
      <trkpt lat="45.83184" lon="-0.77993">
        <ele>25</ele>
        <time>2014-09-28T07:41:37.801Z</time>
      </trkpt>
      <trkpt lat="45.83175" lon="-0.77992">
        <ele>25</ele>
        <time>2014-09-28T07:41:45.787Z</time>
      </trkpt>
      <trkpt lat="45.83173" lon="-0.77992">
        <ele>25</ele>
        <time>2014-09-28T07:41:46.785Z</time>
      </trkpt>
      <trkpt lat="45.83165" lon="-0.77993">
        <ele>25</ele>
        <time>2014-09-28T07:41:53.955Z</time>
      </trkpt>
      <trkpt lat="45.83164" lon="-0.77994">
        <ele>25</ele>
        <time>2014-09-28T07:41:54.796Z</time>
      </trkpt>
      <trkpt lat="45.83156" lon="-0.77995">
        <ele>25</ele>
        <time>2014-09-28T07:42:01.787Z</time>
      </trkpt>
      <trkpt lat="45.83155" lon="-0.77996">
        <ele>25</ele>
        <time>2014-09-28T07:42:02.796Z</time>
      </trkpt>
      <trkpt lat="45.83147" lon="-0.77999">
        <ele>24</ele>
        <time>2014-09-28T07:42:09.790Z</time>
      </trkpt>
      <trkpt lat="45.83146" lon="-0.77999">
        <ele>24</ele>
        <time>2014-09-28T07:42:10.792Z</time>
      </trkpt>
      <trkpt lat="45.83138" lon="-0.78002">
        <ele>25</ele>
        <time>2014-09-28T07:42:19.042Z</time>
      </trkpt>
      <trkpt lat="45.83137" lon="-0.78002">
        <ele>25</ele>
        <time>2014-09-28T07:42:19.796Z</time>
      </trkpt>
      <trkpt lat="45.83129" lon="-0.78004">
        <ele>25</ele>
        <time>2014-09-28T07:42:25.798Z</time>
      </trkpt>
      <trkpt lat="45.83128" lon="-0.78004">
        <ele>25</ele>
        <time>2014-09-28T07:42:26.796Z</time>
      </trkpt>
      <trkpt lat="45.83119" lon="-0.78005">
        <ele>25</ele>
        <time>2014-09-28T07:42:32.796Z</time>
      </trkpt>
      <trkpt lat="45.83118" lon="-0.78005">
        <ele>25</ele>
        <time>2014-09-28T07:42:33.799Z</time>
      </trkpt>
      <trkpt lat="45.8311" lon="-0.78007">
        <ele>25</ele>
        <time>2014-09-28T07:42:40.796Z</time>
      </trkpt>
      <trkpt lat="45.83109" lon="-0.78007">
        <ele>25</ele>
        <time>2014-09-28T07:42:41.801Z</time>
      </trkpt>
      <trkpt lat="45.83102" lon="-0.78012">
        <ele>25</ele>
        <time>2014-09-28T07:42:46.793Z</time>
      </trkpt>
      <trkpt lat="45.83101" lon="-0.78012">
        <ele>25</ele>
        <time>2014-09-28T07:42:47.789Z</time>
      </trkpt>
      <trkpt lat="45.83093" lon="-0.78015">
        <ele>25</ele>
        <time>2014-09-28T07:42:53.967Z</time>
      </trkpt>
      <trkpt lat="45.83092" lon="-0.78015">
        <ele>25</ele>
        <time>2014-09-28T07:42:54.787Z</time>
      </trkpt>
      <trkpt lat="45.83084" lon="-0.78014">
        <ele>25</ele>
        <time>2014-09-28T07:43:00.819Z</time>
      </trkpt>
      <trkpt lat="45.83082" lon="-0.78014">
        <ele>26</ele>
        <time>2014-09-28T07:43:01.793Z</time>
      </trkpt>
      <trkpt lat="45.83074" lon="-0.78012">
        <ele>26</ele>
        <time>2014-09-28T07:43:09.797Z</time>
      </trkpt>
      <trkpt lat="45.83073" lon="-0.78012">
        <ele>26</ele>
        <time>2014-09-28T07:43:10.787Z</time>
      </trkpt>
      <trkpt lat="45.83064" lon="-0.78008">
        <ele>26</ele>
        <time>2014-09-28T07:43:17.799Z</time>
      </trkpt>
      <trkpt lat="45.83063" lon="-0.78008">
        <ele>26</ele>
        <time>2014-09-28T07:43:18.785Z</time>
      </trkpt>
      <trkpt lat="45.83055" lon="-0.78007">
        <ele>26</ele>
        <time>2014-09-28T07:43:24.791Z</time>
      </trkpt>
      <trkpt lat="45.83054" lon="-0.78008">
        <ele>26</ele>
        <time>2014-09-28T07:43:25.791Z</time>
      </trkpt>
      <trkpt lat="45.83046" lon="-0.78012">
        <ele>26</ele>
        <time>2014-09-28T07:43:32.788Z</time>
      </trkpt>
      <trkpt lat="45.83045" lon="-0.78013">
        <ele>26</ele>
        <time>2014-09-28T07:43:33.802Z</time>
      </trkpt>
      <trkpt lat="45.83037" lon="-0.78018">
        <ele>26</ele>
        <time>2014-09-28T07:43:39.796Z</time>
      </trkpt>
      <trkpt lat="45.83036" lon="-0.78018">
        <ele>26</ele>
        <time>2014-09-28T07:43:40.789Z</time>
      </trkpt>
      <trkpt lat="45.83028" lon="-0.7802">
        <ele>26</ele>
        <time>2014-09-28T07:43:47.797Z</time>
      </trkpt>
      <trkpt lat="45.83027" lon="-0.7802">
        <ele>26</ele>
        <time>2014-09-28T07:43:48.791Z</time>
      </trkpt>
      <trkpt lat="45.83018" lon="-0.78021">
        <ele>26</ele>
        <time>2014-09-28T07:43:56.793Z</time>
      </trkpt>
      <trkpt lat="45.83017" lon="-0.78022">
        <ele>26</ele>
        <time>2014-09-28T07:43:57.794Z</time>
      </trkpt>
      <trkpt lat="45.83008" lon="-0.78023">
        <ele>26</ele>
        <time>2014-09-28T07:44:04.798Z</time>
      </trkpt>
      <trkpt lat="45.83006" lon="-0.78023">
        <ele>26</ele>
        <time>2014-09-28T07:44:05.794Z</time>
      </trkpt>
      <trkpt lat="45.82998" lon="-0.78021">
        <ele>26</ele>
        <time>2014-09-28T07:44:12.788Z</time>
      </trkpt>
      <trkpt lat="45.82997" lon="-0.78021">
        <ele>26</ele>
        <time>2014-09-28T07:44:13.798Z</time>
      </trkpt>
      <trkpt lat="45.82988" lon="-0.78023">
        <ele>26</ele>
        <time>2014-09-28T07:44:19.506Z</time>
      </trkpt>
      <trkpt lat="45.82987" lon="-0.78023">
        <ele>26</ele>
        <time>2014-09-28T07:44:19.799Z</time>
      </trkpt>
      <trkpt lat="45.82979" lon="-0.78026">
        <ele>26</ele>
        <time>2014-09-28T07:44:26.789Z</time>
      </trkpt>
      <trkpt lat="45.82978" lon="-0.78027">
        <ele>26</ele>
        <time>2014-09-28T07:44:27.793Z</time>
      </trkpt>
      <trkpt lat="45.8297" lon="-0.7803">
        <ele>26</ele>
        <time>2014-09-28T07:44:34.784Z</time>
      </trkpt>
      <trkpt lat="45.82968" lon="-0.7803">
        <ele>26</ele>
        <time>2014-09-28T07:44:35.788Z</time>
      </trkpt>
      <trkpt lat="45.82959" lon="-0.78028">
        <ele>26</ele>
        <time>2014-09-28T07:44:41.797Z</time>
      </trkpt>
      <trkpt lat="45.82958" lon="-0.78029">
        <ele>26</ele>
        <time>2014-09-28T07:44:42.791Z</time>
      </trkpt>
      <trkpt lat="45.8295" lon="-0.78035">
        <ele>26</ele>
        <time>2014-09-28T07:44:50.795Z</time>
      </trkpt>
      <trkpt lat="45.82949" lon="-0.78035">
        <ele>26</ele>
        <time>2014-09-28T07:44:51.796Z</time>
      </trkpt>
      <trkpt lat="45.82942" lon="-0.78037">
        <ele>26</ele>
        <time>2014-09-28T07:44:58.988Z</time>
      </trkpt>
      <trkpt lat="45.8294" lon="-0.78037">
        <ele>26</ele>
        <time>2014-09-28T07:44:59.807Z</time>
      </trkpt>
      <trkpt lat="45.82932" lon="-0.78038">
        <ele>26</ele>
        <time>2014-09-28T07:45:05.796Z</time>
      </trkpt>
      <trkpt lat="45.82931" lon="-0.78037">
        <ele>26</ele>
        <time>2014-09-28T07:45:06.799Z</time>
      </trkpt>
      <trkpt lat="45.82923" lon="-0.78036">
        <ele>26</ele>
        <time>2014-09-28T07:45:14.040Z</time>
      </trkpt>
      <trkpt lat="45.82922" lon="-0.78036">
        <ele>26</ele>
        <time>2014-09-28T07:45:14.803Z</time>
      </trkpt>
      <trkpt lat="45.82913" lon="-0.78039">
        <ele>25</ele>
        <time>2014-09-28T07:45:20.802Z</time>
      </trkpt>
      <trkpt lat="45.82912" lon="-0.78039">
        <ele>25</ele>
        <time>2014-09-28T07:45:21.831Z</time>
      </trkpt>
      <trkpt lat="45.82904" lon="-0.7804">
        <ele>25</ele>
        <time>2014-09-28T07:45:29.435Z</time>
      </trkpt>
      <trkpt lat="45.82903" lon="-0.7804">
        <ele>25</ele>
        <time>2014-09-28T07:45:29.795Z</time>
      </trkpt>
      <trkpt lat="45.82894" lon="-0.78039">
        <ele>25</ele>
        <time>2014-09-28T07:45:36.788Z</time>
      </trkpt>
      <trkpt lat="45.82893" lon="-0.78039">
        <ele>25</ele>
        <time>2014-09-28T07:45:37.786Z</time>
      </trkpt>
      <trkpt lat="45.82885" lon="-0.7804">
        <ele>25</ele>
        <time>2014-09-28T07:45:44.510Z</time>
      </trkpt>
      <trkpt lat="45.82884" lon="-0.7804">
        <ele>25</ele>
        <time>2014-09-28T07:45:44.802Z</time>
      </trkpt>
      <trkpt lat="45.82876" lon="-0.7804">
        <ele>25</ele>
        <time>2014-09-28T07:45:50.799Z</time>
      </trkpt>
      <trkpt lat="45.82874" lon="-0.7804">
        <ele>25</ele>
        <time>2014-09-28T07:45:51.800Z</time>
      </trkpt>
      <trkpt lat="45.82866" lon="-0.78042">
        <ele>26</ele>
        <time>2014-09-28T07:45:58.990Z</time>
      </trkpt>
      <trkpt lat="45.82865" lon="-0.78042">
        <ele>26</ele>
        <time>2014-09-28T07:45:59.800Z</time>
      </trkpt>
      <trkpt lat="45.82856" lon="-0.78042">
        <ele>26</ele>
        <time>2014-09-28T07:46:05.795Z</time>
      </trkpt>
      <trkpt lat="45.82855" lon="-0.78043">
        <ele>26</ele>
        <time>2014-09-28T07:46:06.796Z</time>
      </trkpt>
      <trkpt lat="45.82847" lon="-0.78042">
        <ele>26</ele>
        <time>2014-09-28T07:46:14.798Z</time>
      </trkpt>
      <trkpt lat="45.82845" lon="-0.78042">
        <ele>26</ele>
        <time>2014-09-28T07:46:15.798Z</time>
      </trkpt>
      <trkpt lat="45.82837" lon="-0.78043">
        <ele>26</ele>
        <time>2014-09-28T07:46:21.797Z</time>
      </trkpt>
      <trkpt lat="45.82836" lon="-0.78042">
        <ele>26</ele>
        <time>2014-09-28T07:46:22.798Z</time>
      </trkpt>
      <trkpt lat="45.82827" lon="-0.78044">
        <ele>25</ele>
        <time>2014-09-28T07:46:29.791Z</time>
      </trkpt>
      <trkpt lat="45.82827" lon="-0.78044">
        <ele>25</ele>
        <time>2014-09-28T07:46:30.803Z</time>
      </trkpt>
      <trkpt lat="45.82819" lon="-0.78046">
        <ele>25</ele>
        <time>2014-09-28T07:46:40.774Z</time>
      </trkpt>
      <trkpt lat="45.82818" lon="-0.78046">
        <ele>25</ele>
        <time>2014-09-28T07:46:41.803Z</time>
      </trkpt>
      <trkpt lat="45.82809" lon="-0.78046">
        <ele>25</ele>
        <time>2014-09-28T07:46:48.952Z</time>
      </trkpt>
      <trkpt lat="45.82808" lon="-0.78046">
        <ele>25</ele>
        <time>2014-09-28T07:46:49.798Z</time>
      </trkpt>
      <trkpt lat="45.82799" lon="-0.78049">
        <ele>25</ele>
        <time>2014-09-28T07:46:57.831Z</time>
      </trkpt>
      <trkpt lat="45.82798" lon="-0.78049">
        <ele>25</ele>
        <time>2014-09-28T07:46:58.796Z</time>
      </trkpt>
      <trkpt lat="45.8279" lon="-0.78049">
        <ele>25</ele>
        <time>2014-09-28T07:47:06.797Z</time>
      </trkpt>
      <trkpt lat="45.82789" lon="-0.78049">
        <ele>25</ele>
        <time>2014-09-28T07:47:07.796Z</time>
      </trkpt>
      <trkpt lat="45.82781" lon="-0.78051">
        <ele>25</ele>
        <time>2014-09-28T07:47:15.788Z</time>
      </trkpt>
      <trkpt lat="45.8278" lon="-0.78051">
        <ele>25</ele>
        <time>2014-09-28T07:47:16.804Z</time>
      </trkpt>
      <trkpt lat="45.82772" lon="-0.78052">
        <ele>25</ele>
        <time>2014-09-28T07:47:22.797Z</time>
      </trkpt>
      <trkpt lat="45.82771" lon="-0.78052">
        <ele>25</ele>
        <time>2014-09-28T07:47:23.804Z</time>
      </trkpt>
      <trkpt lat="45.82762" lon="-0.78054">
        <ele>25</ele>
        <time>2014-09-28T07:47:30.779Z</time>
      </trkpt>
      <trkpt lat="45.8276" lon="-0.78053">
        <ele>25</ele>
        <time>2014-09-28T07:47:31.784Z</time>
      </trkpt>
      <trkpt lat="45.82751" lon="-0.78055">
        <ele>25</ele>
        <time>2014-09-28T07:47:39.209Z</time>
      </trkpt>
      <trkpt lat="45.82751" lon="-0.78055">
        <ele>25</ele>
        <time>2014-09-28T07:47:39.796Z</time>
      </trkpt>
      <trkpt lat="45.82743" lon="-0.7806">
        <ele>25</ele>
        <time>2014-09-28T07:47:45.799Z</time>
      </trkpt>
      <trkpt lat="45.82743" lon="-0.78061">
        <ele>25</ele>
        <time>2014-09-28T07:47:46.811Z</time>
      </trkpt>
      <trkpt lat="45.82734" lon="-0.78064">
        <ele>25</ele>
        <time>2014-09-28T07:47:54.787Z</time>
      </trkpt>
      <trkpt lat="45.82733" lon="-0.78064">
        <ele>24</ele>
        <time>2014-09-28T07:47:55.790Z</time>
      </trkpt>
      <trkpt lat="45.82725" lon="-0.78065">
        <ele>24</ele>
        <time>2014-09-28T07:48:04.791Z</time>
      </trkpt>
      <trkpt lat="45.82724" lon="-0.78065">
        <ele>24</ele>
        <time>2014-09-28T07:48:05.792Z</time>
      </trkpt>
      <trkpt lat="45.82716" lon="-0.78065">
        <ele>24</ele>
        <time>2014-09-28T07:48:12.794Z</time>
      </trkpt>
      <trkpt lat="45.82714" lon="-0.78064">
        <ele>24</ele>
        <time>2014-09-28T07:48:13.787Z</time>
      </trkpt>
      <trkpt lat="45.82706" lon="-0.78065">
        <ele>24</ele>
        <time>2014-09-28T07:48:20.781Z</time>
      </trkpt>
      <trkpt lat="45.82705" lon="-0.78066">
        <ele>24</ele>
        <time>2014-09-28T07:48:21.787Z</time>
      </trkpt>
      <trkpt lat="45.82697" lon="-0.78072">
        <ele>24</ele>
        <time>2014-09-28T07:48:27.791Z</time>
      </trkpt>
      <trkpt lat="45.82697" lon="-0.78073">
        <ele>24</ele>
        <time>2014-09-28T07:48:28.791Z</time>
      </trkpt>
      <trkpt lat="45.8269" lon="-0.78079">
        <ele>24</ele>
        <time>2014-09-28T07:48:34.792Z</time>
      </trkpt>
      <trkpt lat="45.82688" lon="-0.7808">
        <ele>24</ele>
        <time>2014-09-28T07:48:35.798Z</time>
      </trkpt>
      <trkpt lat="45.82681" lon="-0.78085">
        <ele>23</ele>
        <time>2014-09-28T07:48:41.791Z</time>
      </trkpt>
      <trkpt lat="45.8268" lon="-0.78086">
        <ele>23</ele>
        <time>2014-09-28T07:48:42.798Z</time>
      </trkpt>
      <trkpt lat="45.82676" lon="-0.78097">
        <ele>23</ele>
        <time>2014-09-28T07:48:48.989Z</time>
      </trkpt>
      <trkpt lat="45.82676" lon="-0.78099">
        <ele>23</ele>
        <time>2014-09-28T07:48:49.799Z</time>
      </trkpt>
      <trkpt lat="45.82675" lon="-0.7811">
        <ele>23</ele>
        <time>2014-09-28T07:48:56.787Z</time>
      </trkpt>
      <trkpt lat="45.82675" lon="-0.78113">
        <ele>23</ele>
        <time>2014-09-28T07:48:57.796Z</time>
      </trkpt>
      <trkpt lat="45.82678" lon="-0.78125">
        <ele>23</ele>
        <time>2014-09-28T07:49:04.026Z</time>
      </trkpt>
      <trkpt lat="45.82679" lon="-0.78126">
        <ele>23</ele>
        <time>2014-09-28T07:49:04.784Z</time>
      </trkpt>
      <trkpt lat="45.82681" lon="-0.78138">
        <ele>23</ele>
        <time>2014-09-28T07:49:11.792Z</time>
      </trkpt>
      <trkpt lat="45.82681" lon="-0.7814">
        <ele>23</ele>
        <time>2014-09-28T07:49:12.784Z</time>
      </trkpt>
      <trkpt lat="45.8268" lon="-0.78153">
        <ele>23</ele>
        <time>2014-09-28T07:49:19.785Z</time>
      </trkpt>
      <trkpt lat="45.8268" lon="-0.78154">
        <ele>23</ele>
        <time>2014-09-28T07:49:20.792Z</time>
      </trkpt>
      <trkpt lat="45.82677" lon="-0.78166">
        <ele>22</ele>
        <time>2014-09-28T07:49:29.780Z</time>
      </trkpt>
      <trkpt lat="45.82675" lon="-0.78168">
        <ele>21</ele>
        <time>2014-09-28T07:49:30.784Z</time>
      </trkpt>
      <trkpt lat="45.82671" lon="-0.78177">
        <ele>21</ele>
        <time>2014-09-28T07:49:37.779Z</time>
      </trkpt>
      <trkpt lat="45.82671" lon="-0.78179">
        <ele>21</ele>
        <time>2014-09-28T07:49:38.771Z</time>
      </trkpt>
      <trkpt lat="45.82665" lon="-0.78187">
        <ele>21</ele>
        <time>2014-09-28T07:49:45.785Z</time>
      </trkpt>
      <trkpt lat="45.82664" lon="-0.78189">
        <ele>21</ele>
        <time>2014-09-28T07:49:46.789Z</time>
      </trkpt>
      <trkpt lat="45.82658" lon="-0.78197">
        <ele>20</ele>
        <time>2014-09-28T07:49:53.954Z</time>
      </trkpt>
      <trkpt lat="45.82658" lon="-0.78198">
        <ele>20</ele>
        <time>2014-09-28T07:49:54.776Z</time>
      </trkpt>
      <trkpt lat="45.82652" lon="-0.78206">
        <ele>20</ele>
        <time>2014-09-28T07:49:59.774Z</time>
      </trkpt>
      <trkpt lat="45.82651" lon="-0.78208">
        <ele>20</ele>
        <time>2014-09-28T07:50:00.776Z</time>
      </trkpt>
      <trkpt lat="45.82646" lon="-0.78218">
        <ele>20</ele>
        <time>2014-09-28T07:50:09.015Z</time>
      </trkpt>
      <trkpt lat="45.82645" lon="-0.78219">
        <ele>20</ele>
        <time>2014-09-28T07:50:09.770Z</time>
      </trkpt>
      <trkpt lat="45.8264" lon="-0.78228">
        <ele>19</ele>
        <time>2014-09-28T07:50:16.772Z</time>
      </trkpt>
      <trkpt lat="45.82639" lon="-0.7823">
        <ele>19</ele>
        <time>2014-09-28T07:50:17.778Z</time>
      </trkpt>
      <trkpt lat="45.82635" lon="-0.78239">
        <ele>19</ele>
        <time>2014-09-28T07:50:24.071Z</time>
      </trkpt>
      <trkpt lat="45.82634" lon="-0.78241">
        <ele>19</ele>
        <time>2014-09-28T07:50:24.770Z</time>
      </trkpt>
      <trkpt lat="45.82631" lon="-0.78253">
        <ele>18</ele>
        <time>2014-09-28T07:50:35.772Z</time>
      </trkpt>
      <trkpt lat="45.82631" lon="-0.78253">
        <ele>18</ele>
        <time>2014-09-28T07:50:36.782Z</time>
      </trkpt>
      <trkpt lat="45.82635" lon="-0.78264">
        <ele>18</ele>
        <time>2014-09-28T07:51:06.763Z</time>
      </trkpt>
      <trkpt lat="45.82636" lon="-0.78265">
        <ele>18</ele>
        <time>2014-09-28T07:51:07.758Z</time>
      </trkpt>
      <trkpt lat="45.82643" lon="-0.7827">
        <ele>18</ele>
        <time>2014-09-28T07:51:26.782Z</time>
      </trkpt>
      <trkpt lat="45.82644" lon="-0.7827">
        <ele>18</ele>
        <time>2014-09-28T07:51:27.793Z</time>
      </trkpt>
      <trkpt lat="45.82652" lon="-0.78276">
        <ele>18</ele>
        <time>2014-09-28T07:51:45.776Z</time>
      </trkpt>
      <trkpt lat="45.82652" lon="-0.78277">
        <ele>18</ele>
        <time>2014-09-28T07:51:46.764Z</time>
      </trkpt>
      <trkpt lat="45.8266" lon="-0.78283">
        <ele>18</ele>
        <time>2014-09-28T07:51:59.001Z</time>
      </trkpt>
      <trkpt lat="45.82661" lon="-0.78283">
        <ele>18</ele>
        <time>2014-09-28T07:51:59.758Z</time>
      </trkpt>
      <trkpt lat="45.82669" lon="-0.78289">
        <ele>17</ele>
        <time>2014-09-28T07:52:11.755Z</time>
      </trkpt>
      <trkpt lat="45.82669" lon="-0.78289">
        <ele>17</ele>
        <time>2014-09-28T07:52:12.762Z</time>
      </trkpt>
      <trkpt lat="45.82676" lon="-0.78282">
        <ele>17</ele>
        <time>2014-09-28T07:52:21.773Z</time>
      </trkpt>
      <trkpt lat="45.82677" lon="-0.78281">
        <ele>17</ele>
        <time>2014-09-28T07:52:22.756Z</time>
      </trkpt>
      <trkpt lat="45.82685" lon="-0.78275">
        <ele>17</ele>
        <time>2014-09-28T07:52:39.576Z</time>
      </trkpt>
      <trkpt lat="45.82686" lon="-0.78275">
        <ele>17</ele>
        <time>2014-09-28T07:52:39.783Z</time>
      </trkpt>
      <trkpt lat="45.82693" lon="-0.78269">
        <ele>17</ele>
        <time>2014-09-28T07:52:44.611Z</time>
      </trkpt>
      <trkpt lat="45.82694" lon="-0.78268">
        <ele>17</ele>
        <time>2014-09-28T07:52:44.776Z</time>
      </trkpt>
      <trkpt lat="45.82703" lon="-0.78271">
        <ele>17</ele>
        <time>2014-09-28T07:52:52.766Z</time>
      </trkpt>
      <trkpt lat="45.82704" lon="-0.78271">
        <ele>17</ele>
        <time>2014-09-28T07:52:53.764Z</time>
      </trkpt>
      <trkpt lat="45.82713" lon="-0.78271">
        <ele>17</ele>
        <time>2014-09-28T07:53:05.780Z</time>
      </trkpt>
      <trkpt lat="45.82713" lon="-0.7827">
        <ele>17</ele>
        <time>2014-09-28T07:53:06.784Z</time>
      </trkpt>
      <trkpt lat="45.82719" lon="-0.78261">
        <ele>17</ele>
        <time>2014-09-28T07:53:17.763Z</time>
      </trkpt>
      <trkpt lat="45.8272" lon="-0.7826">
        <ele>17</ele>
        <time>2014-09-28T07:53:18.766Z</time>
      </trkpt>
      <trkpt lat="45.82729" lon="-0.78259">
        <ele>17</ele>
        <time>2014-09-28T07:53:26.764Z</time>
      </trkpt>
      <trkpt lat="45.82729" lon="-0.78259">
        <ele>17</ele>
        <time>2014-09-28T07:53:27.776Z</time>
      </trkpt>
      <trkpt lat="45.82733" lon="-0.78247">
        <ele>18</ele>
        <time>2014-09-28T07:54:14.168Z</time>
      </trkpt>
      <trkpt lat="45.82732" lon="-0.78246">
        <ele>18</ele>
        <time>2014-09-28T07:54:14.779Z</time>
      </trkpt>
      <trkpt lat="45.82726" lon="-0.78237">
        <ele>19</ele>
        <time>2014-09-28T07:54:22.779Z</time>
      </trkpt>
      <trkpt lat="45.82726" lon="-0.78236">
        <ele>19</ele>
        <time>2014-09-28T07:54:23.777Z</time>
      </trkpt>
      <trkpt lat="45.82731" lon="-0.78245">
        <ele>18</ele>
        <time>2014-09-28T07:54:44.775Z</time>
      </trkpt>
      <trkpt lat="45.82734" lon="-0.78247">
        <ele>18</ele>
        <time>2014-09-28T07:54:45.769Z</time>
      </trkpt>
      <trkpt lat="45.82742" lon="-0.78251">
        <ele>16</ele>
        <time>2014-09-28T07:54:49.773Z</time>
      </trkpt>
      <trkpt lat="45.82744" lon="-0.78251">
        <ele>16</ele>
        <time>2014-09-28T07:54:50.768Z</time>
      </trkpt>
      <trkpt lat="45.82753" lon="-0.78251">
        <ele>16</ele>
        <time>2014-09-28T07:55:06.791Z</time>
      </trkpt>
      <trkpt lat="45.82753" lon="-0.78253">
        <ele>16</ele>
        <time>2014-09-28T07:55:07.798Z</time>
      </trkpt>
      <trkpt lat="45.82761" lon="-0.78258">
        <ele>17</ele>
        <time>2014-09-28T07:55:39.531Z</time>
      </trkpt>
      <trkpt lat="45.82761" lon="-0.78259">
        <ele>17</ele>
        <time>2014-09-28T07:55:39.796Z</time>
      </trkpt>
      <trkpt lat="45.82758" lon="-0.7827">
        <ele>17</ele>
        <time>2014-09-28T07:55:53.988Z</time>
      </trkpt>
      <trkpt lat="45.82757" lon="-0.78273">
        <ele>17</ele>
        <time>2014-09-28T07:55:54.786Z</time>
      </trkpt>
      <trkpt lat="45.82766" lon="-0.78269">
        <ele>17</ele>
        <time>2014-09-28T07:56:15.797Z</time>
      </trkpt>
      <trkpt lat="45.82767" lon="-0.78269">
        <ele>17</ele>
        <time>2014-09-28T07:56:16.792Z</time>
      </trkpt>
      <trkpt lat="45.82774" lon="-0.78268">
        <ele>17</ele>
        <time>2014-09-28T07:56:23.789Z</time>
      </trkpt>
      <trkpt lat="45.82776" lon="-0.78268">
        <ele>17</ele>
        <time>2014-09-28T07:56:24.800Z</time>
      </trkpt>
      <trkpt lat="45.82783" lon="-0.78265">
        <ele>17</ele>
        <time>2014-09-28T07:56:30.790Z</time>
      </trkpt>
      <trkpt lat="45.82785" lon="-0.78265">
        <ele>17</ele>
        <time>2014-09-28T07:56:31.786Z</time>
      </trkpt>
      <trkpt lat="45.82794" lon="-0.78266">
        <ele>17</ele>
        <time>2014-09-28T07:56:41.788Z</time>
      </trkpt>
      <trkpt lat="45.82794" lon="-0.78266">
        <ele>17</ele>
        <time>2014-09-28T07:56:42.791Z</time>
      </trkpt>
      <trkpt lat="45.82803" lon="-0.78264">
        <ele>17</ele>
        <time>2014-09-28T07:56:51.754Z</time>
      </trkpt>
      <trkpt lat="45.82804" lon="-0.78264">
        <ele>17</ele>
        <time>2014-09-28T07:56:52.770Z</time>
      </trkpt>
      <trkpt lat="45.82811" lon="-0.7827">
        <ele>17</ele>
        <time>2014-09-28T07:57:02.755Z</time>
      </trkpt>
      <trkpt lat="45.82812" lon="-0.78271">
        <ele>17</ele>
        <time>2014-09-28T07:57:03.753Z</time>
      </trkpt>
      <trkpt lat="45.8282" lon="-0.78274">
        <ele>18</ele>
        <time>2014-09-28T07:57:11.758Z</time>
      </trkpt>
      <trkpt lat="45.82821" lon="-0.78275">
        <ele>18</ele>
        <time>2014-09-28T07:57:12.756Z</time>
      </trkpt>
      <trkpt lat="45.82829" lon="-0.78277">
        <ele>18</ele>
        <time>2014-09-28T07:57:24.170Z</time>
      </trkpt>
      <trkpt lat="45.8283" lon="-0.78277">
        <ele>18</ele>
        <time>2014-09-28T07:57:24.769Z</time>
      </trkpt>
      <trkpt lat="45.82839" lon="-0.78278">
        <ele>18</ele>
        <time>2014-09-28T07:57:30.789Z</time>
      </trkpt>
      <trkpt lat="45.8284" lon="-0.78278">
        <ele>18</ele>
        <time>2014-09-28T07:57:31.774Z</time>
      </trkpt>
      <trkpt lat="45.82848" lon="-0.7828">
        <ele>18</ele>
        <time>2014-09-28T07:57:37.781Z</time>
      </trkpt>
      <trkpt lat="45.82849" lon="-0.7828">
        <ele>18</ele>
        <time>2014-09-28T07:57:38.777Z</time>
      </trkpt>
      <trkpt lat="45.82857" lon="-0.78286">
        <ele>18</ele>
        <time>2014-09-28T07:57:47.784Z</time>
      </trkpt>
      <trkpt lat="45.82858" lon="-0.78287">
        <ele>18</ele>
        <time>2014-09-28T07:57:48.773Z</time>
      </trkpt>
      <trkpt lat="45.82866" lon="-0.78288">
        <ele>18</ele>
        <time>2014-09-28T07:57:56.774Z</time>
      </trkpt>
      <trkpt lat="45.82867" lon="-0.78289">
        <ele>18</ele>
        <time>2014-09-28T07:57:57.772Z</time>
      </trkpt>
      <trkpt lat="45.82876" lon="-0.7829">
        <ele>19</ele>
        <time>2014-09-28T07:58:06.782Z</time>
      </trkpt>
      <trkpt lat="45.82877" lon="-0.78291">
        <ele>19</ele>
        <time>2014-09-28T07:58:07.769Z</time>
      </trkpt>
      <trkpt lat="45.82885" lon="-0.78292">
        <ele>19</ele>
        <time>2014-09-28T07:58:15.762Z</time>
      </trkpt>
      <trkpt lat="45.82888" lon="-0.78292">
        <ele>19</ele>
        <time>2014-09-28T07:58:16.766Z</time>
      </trkpt>
      <trkpt lat="45.82891" lon="-0.78286">
        <ele>19</ele>
        <time>2014-09-28T07:58:19.633Z</time>
      </trkpt>
      <trkpt lat="45.82893" lon="-0.78281">
        <ele>19</ele>
        <time>2014-09-28T07:58:19.768Z</time>
      </trkpt>
      <trkpt lat="45.82898" lon="-0.78272">
        <ele>19</ele>
        <time>2014-09-28T07:58:24.669Z</time>
      </trkpt>
      <trkpt lat="45.82899" lon="-0.7827">
        <ele>19</ele>
        <time>2014-09-28T07:58:24.762Z</time>
      </trkpt>
      <trkpt lat="45.82903" lon="-0.78259">
        <ele>19</ele>
        <time>2014-09-28T07:58:30.761Z</time>
      </trkpt>
      <trkpt lat="45.82902" lon="-0.78257">
        <ele>19</ele>
        <time>2014-09-28T07:58:31.762Z</time>
      </trkpt>
      <trkpt lat="45.82901" lon="-0.78244">
        <ele>20</ele>
        <time>2014-09-28T07:58:40.307Z</time>
      </trkpt>
      <trkpt lat="45.829" lon="-0.78242">
        <ele>20</ele>
        <time>2014-09-28T07:58:40.760Z</time>
      </trkpt>
      <trkpt lat="45.829" lon="-0.7823">
        <ele>20</ele>
        <time>2014-09-28T07:58:49.774Z</time>
      </trkpt>
      <trkpt lat="45.829" lon="-0.78228">
        <ele>20</ele>
        <time>2014-09-28T07:58:50.780Z</time>
      </trkpt>
      <trkpt lat="45.829" lon="-0.78216">
        <ele>21</ele>
        <time>2014-09-28T07:58:59.766Z</time>
      </trkpt>
      <trkpt lat="45.82899" lon="-0.78215">
        <ele>21</ele>
        <time>2014-09-28T07:59:00.776Z</time>
      </trkpt>
      <trkpt lat="45.82896" lon="-0.78204">
        <ele>21</ele>
        <time>2014-09-28T07:59:09.776Z</time>
      </trkpt>
      <trkpt lat="45.82895" lon="-0.78203">
        <ele>21</ele>
        <time>2014-09-28T07:59:10.775Z</time>
      </trkpt>
      <trkpt lat="45.82892" lon="-0.78192">
        <ele>22</ele>
        <time>2014-09-28T07:59:16.777Z</time>
      </trkpt>
      <trkpt lat="45.82892" lon="-0.7819">
        <ele>22</ele>
        <time>2014-09-28T07:59:17.774Z</time>
      </trkpt>
      <trkpt lat="45.829" lon="-0.7819">
        <ele>22</ele>
        <time>2014-09-28T07:59:34.777Z</time>
      </trkpt>
      <trkpt lat="45.82901" lon="-0.78191">
        <ele>22</ele>
        <time>2014-09-28T07:59:35.773Z</time>
      </trkpt>
      <trkpt lat="45.82909" lon="-0.78195">
        <ele>21</ele>
        <time>2014-09-28T07:59:44.237Z</time>
      </trkpt>
      <trkpt lat="45.8291" lon="-0.78196">
        <ele>21</ele>
        <time>2014-09-28T07:59:44.783Z</time>
      </trkpt>
      <trkpt lat="45.82917" lon="-0.78202">
        <ele>21</ele>
        <time>2014-09-28T07:59:52.780Z</time>
      </trkpt>
      <trkpt lat="45.82917" lon="-0.78203">
        <ele>22</ele>
        <time>2014-09-28T07:59:53.780Z</time>
      </trkpt>
      <trkpt lat="45.82925" lon="-0.78208">
        <ele>22</ele>
        <time>2014-09-28T08:00:02.776Z</time>
      </trkpt>
      <trkpt lat="45.82926" lon="-0.78209">
        <ele>22</ele>
        <time>2014-09-28T08:00:03.779Z</time>
      </trkpt>
      <trkpt lat="45.82934" lon="-0.78214">
        <ele>22</ele>
        <time>2014-09-28T08:00:12.778Z</time>
      </trkpt>
      <trkpt lat="45.82935" lon="-0.78214">
        <ele>22</ele>
        <time>2014-09-28T08:00:13.781Z</time>
      </trkpt>
      <trkpt lat="45.82943" lon="-0.78214">
        <ele>22</ele>
        <time>2014-09-28T08:00:19.085Z</time>
      </trkpt>
      <trkpt lat="45.82944" lon="-0.78215">
        <ele>22</ele>
        <time>2014-09-28T08:00:19.778Z</time>
      </trkpt>
      <trkpt lat="45.82953" lon="-0.78215">
        <ele>22</ele>
        <time>2014-09-28T08:00:26.778Z</time>
      </trkpt>
      <trkpt lat="45.82954" lon="-0.78215">
        <ele>23</ele>
        <time>2014-09-28T08:00:27.777Z</time>
      </trkpt>
      <trkpt lat="45.82963" lon="-0.78217">
        <ele>23</ele>
        <time>2014-09-28T08:00:34.778Z</time>
      </trkpt>
      <trkpt lat="45.82964" lon="-0.78217">
        <ele>23</ele>
        <time>2014-09-28T08:00:35.781Z</time>
      </trkpt>
      <trkpt lat="45.82973" lon="-0.78215">
        <ele>23</ele>
        <time>2014-09-28T08:00:41.774Z</time>
      </trkpt>
      <trkpt lat="45.82974" lon="-0.78215">
        <ele>23</ele>
        <time>2014-09-28T08:00:42.775Z</time>
      </trkpt>
      <trkpt lat="45.82983" lon="-0.78213">
        <ele>23</ele>
        <time>2014-09-28T08:00:51.785Z</time>
      </trkpt>
      <trkpt lat="45.82984" lon="-0.78213">
        <ele>23</ele>
        <time>2014-09-28T08:00:52.782Z</time>
      </trkpt>
      <trkpt lat="45.82992" lon="-0.7821">
        <ele>23</ele>
        <time>2014-09-28T08:01:00.775Z</time>
      </trkpt>
      <trkpt lat="45.82993" lon="-0.7821">
        <ele>23</ele>
        <time>2014-09-28T08:01:01.776Z</time>
      </trkpt>
      <trkpt lat="45.83001" lon="-0.7821">
        <ele>24</ele>
        <time>2014-09-28T08:01:09.779Z</time>
      </trkpt>
      <trkpt lat="45.83002" lon="-0.7821">
        <ele>24</ele>
        <time>2014-09-28T08:01:10.776Z</time>
      </trkpt>
      <trkpt lat="45.83011" lon="-0.7821">
        <ele>24</ele>
        <time>2014-09-28T08:01:20.787Z</time>
      </trkpt>
      <trkpt lat="45.83012" lon="-0.78209">
        <ele>24</ele>
        <time>2014-09-28T08:01:21.791Z</time>
      </trkpt>
      <trkpt lat="45.83019" lon="-0.78208">
        <ele>24</ele>
        <time>2014-09-28T08:01:27.791Z</time>
      </trkpt>
      <trkpt lat="45.83022" lon="-0.78208">
        <ele>24</ele>
        <time>2014-09-28T08:01:28.784Z</time>
      </trkpt>
      <trkpt lat="45.8303" lon="-0.78206">
        <ele>24</ele>
        <time>2014-09-28T08:01:35.783Z</time>
      </trkpt>
      <trkpt lat="45.83031" lon="-0.78206">
        <ele>24</ele>
        <time>2014-09-28T08:01:36.783Z</time>
      </trkpt>
      <trkpt lat="45.83039" lon="-0.78203">
        <ele>24</ele>
        <time>2014-09-28T08:01:44.278Z</time>
      </trkpt>
      <trkpt lat="45.8304" lon="-0.78202">
        <ele>24</ele>
        <time>2014-09-28T08:01:44.776Z</time>
      </trkpt>
      <trkpt lat="45.83049" lon="-0.78201">
        <ele>24</ele>
        <time>2014-09-28T08:01:50.777Z</time>
      </trkpt>
      <trkpt lat="45.8305" lon="-0.782">
        <ele>24</ele>
        <time>2014-09-28T08:01:51.795Z</time>
      </trkpt>
      <trkpt lat="45.83058" lon="-0.78196">
        <ele>24</ele>
        <time>2014-09-28T08:01:59.028Z</time>
      </trkpt>
      <trkpt lat="45.83059" lon="-0.78195">
        <ele>24</ele>
        <time>2014-09-28T08:01:59.778Z</time>
      </trkpt>
      <trkpt lat="45.83067" lon="-0.78191">
        <ele>24</ele>
        <time>2014-09-28T08:02:05.778Z</time>
      </trkpt>
      <trkpt lat="45.83068" lon="-0.78191">
        <ele>24</ele>
        <time>2014-09-28T08:02:06.776Z</time>
      </trkpt>
      <trkpt lat="45.83076" lon="-0.78191">
        <ele>24</ele>
        <time>2014-09-28T08:02:14.383Z</time>
      </trkpt>
      <trkpt lat="45.83077" lon="-0.78191">
        <ele>24</ele>
        <time>2014-09-28T08:02:14.780Z</time>
      </trkpt>
      <trkpt lat="45.83085" lon="-0.78187">
        <ele>24</ele>
        <time>2014-09-28T08:02:22.777Z</time>
      </trkpt>
      <trkpt lat="45.83086" lon="-0.78188">
        <ele>24</ele>
        <time>2014-09-28T08:02:23.776Z</time>
      </trkpt>
      <trkpt lat="45.83094" lon="-0.78188">
        <ele>23</ele>
        <time>2014-09-28T08:02:31.787Z</time>
      </trkpt>
      <trkpt lat="45.83096" lon="-0.78188">
        <ele>23</ele>
        <time>2014-09-28T08:02:32.784Z</time>
      </trkpt>
      <trkpt lat="45.83104" lon="-0.78188">
        <ele>23</ele>
        <time>2014-09-28T08:02:37.784Z</time>
      </trkpt>
      <trkpt lat="45.83106" lon="-0.78187">
        <ele>23</ele>
        <time>2014-09-28T08:02:38.782Z</time>
      </trkpt>
      <trkpt lat="45.83112" lon="-0.78183">
        <ele>23</ele>
        <time>2014-09-28T08:02:42.778Z</time>
      </trkpt>
      <trkpt lat="45.83114" lon="-0.78182">
        <ele>23</ele>
        <time>2014-09-28T08:02:43.777Z</time>
      </trkpt>
      <trkpt lat="45.83121" lon="-0.78175">
        <ele>23</ele>
        <time>2014-09-28T08:02:48.963Z</time>
      </trkpt>
      <trkpt lat="45.83123" lon="-0.78174">
        <ele>23</ele>
        <time>2014-09-28T08:02:49.787Z</time>
      </trkpt>
      <trkpt lat="45.83131" lon="-0.78171">
        <ele>23</ele>
        <time>2014-09-28T08:02:59.335Z</time>
      </trkpt>
      <trkpt lat="45.83131" lon="-0.78171">
        <ele>23</ele>
        <time>2014-09-28T08:02:59.779Z</time>
      </trkpt>
      <trkpt lat="45.8314" lon="-0.7817">
        <ele>23</ele>
        <time>2014-09-28T08:03:05.779Z</time>
      </trkpt>
      <trkpt lat="45.83141" lon="-0.7817">
        <ele>23</ele>
        <time>2014-09-28T08:03:06.786Z</time>
      </trkpt>
      <trkpt lat="45.83149" lon="-0.78167">
        <ele>23</ele>
        <time>2014-09-28T08:03:14.532Z</time>
      </trkpt>
      <trkpt lat="45.8315" lon="-0.78166">
        <ele>24</ele>
        <time>2014-09-28T08:03:14.792Z</time>
      </trkpt>
      <trkpt lat="45.83158" lon="-0.78162">
        <ele>24</ele>
        <time>2014-09-28T08:03:20.788Z</time>
      </trkpt>
      <trkpt lat="45.83159" lon="-0.78162">
        <ele>24</ele>
        <time>2014-09-28T08:03:21.788Z</time>
      </trkpt>
      <trkpt lat="45.83167" lon="-0.78159">
        <ele>23</ele>
        <time>2014-09-28T08:03:29.783Z</time>
      </trkpt>
      <trkpt lat="45.83168" lon="-0.78159">
        <ele>23</ele>
        <time>2014-09-28T08:03:30.780Z</time>
      </trkpt>
      <trkpt lat="45.83176" lon="-0.78155">
        <ele>23</ele>
        <time>2014-09-28T08:03:39.658Z</time>
      </trkpt>
      <trkpt lat="45.83177" lon="-0.78155">
        <ele>23</ele>
        <time>2014-09-28T08:03:39.778Z</time>
      </trkpt>
      <trkpt lat="45.83185" lon="-0.78153">
        <ele>24</ele>
        <time>2014-09-28T08:03:47.779Z</time>
      </trkpt>
      <trkpt lat="45.83186" lon="-0.78153">
        <ele>24</ele>
        <time>2014-09-28T08:03:48.778Z</time>
      </trkpt>
      <trkpt lat="45.83194" lon="-0.78149">
        <ele>24</ele>
        <time>2014-09-28T08:03:54.787Z</time>
      </trkpt>
      <trkpt lat="45.83195" lon="-0.78148">
        <ele>24</ele>
        <time>2014-09-28T08:03:55.786Z</time>
      </trkpt>
      <trkpt lat="45.83203" lon="-0.78146">
        <ele>24</ele>
        <time>2014-09-28T08:04:02.784Z</time>
      </trkpt>
      <trkpt lat="45.83205" lon="-0.78146">
        <ele>24</ele>
        <time>2014-09-28T08:04:03.788Z</time>
      </trkpt>
      <trkpt lat="45.83213" lon="-0.78145">
        <ele>24</ele>
        <time>2014-09-28T08:04:09.794Z</time>
      </trkpt>
      <trkpt lat="45.83214" lon="-0.78145">
        <ele>24</ele>
        <time>2014-09-28T08:04:10.785Z</time>
      </trkpt>
      <trkpt lat="45.83222" lon="-0.78142">
        <ele>24</ele>
        <time>2014-09-28T08:04:19.104Z</time>
      </trkpt>
      <trkpt lat="45.83223" lon="-0.78142">
        <ele>24</ele>
        <time>2014-09-28T08:04:19.790Z</time>
      </trkpt>
      <trkpt lat="45.83231" lon="-0.7814">
        <ele>24</ele>
        <time>2014-09-28T08:04:25.788Z</time>
      </trkpt>
      <trkpt lat="45.83232" lon="-0.78139">
        <ele>24</ele>
        <time>2014-09-28T08:04:26.786Z</time>
      </trkpt>
      <trkpt lat="45.8324" lon="-0.78136">
        <ele>24</ele>
        <time>2014-09-28T08:04:34.176Z</time>
      </trkpt>
      <trkpt lat="45.83241" lon="-0.78136">
        <ele>24</ele>
        <time>2014-09-28T08:04:34.792Z</time>
      </trkpt>
      <trkpt lat="45.83249" lon="-0.78133">
        <ele>24</ele>
        <time>2014-09-28T08:04:42.786Z</time>
      </trkpt>
      <trkpt lat="45.83251" lon="-0.78132">
        <ele>23</ele>
        <time>2014-09-28T08:04:43.786Z</time>
      </trkpt>
      <trkpt lat="45.83258" lon="-0.78129">
        <ele>23</ele>
        <time>2014-09-28T08:04:50.788Z</time>
      </trkpt>
      <trkpt lat="45.8326" lon="-0.78128">
        <ele>23</ele>
        <time>2014-09-28T08:04:51.787Z</time>
      </trkpt>
      <trkpt lat="45.83267" lon="-0.78126">
        <ele>23</ele>
        <time>2014-09-28T08:04:56.797Z</time>
      </trkpt>
      <trkpt lat="45.83269" lon="-0.78127">
        <ele>23</ele>
        <time>2014-09-28T08:04:57.792Z</time>
      </trkpt>
      <trkpt lat="45.83276" lon="-0.78128">
        <ele>23</ele>
        <time>2014-09-28T08:05:04.171Z</time>
      </trkpt>
      <trkpt lat="45.83278" lon="-0.78127">
        <ele>23</ele>
        <time>2014-09-28T08:05:04.806Z</time>
      </trkpt>
      <trkpt lat="45.83286" lon="-0.78125">
        <ele>23</ele>
        <time>2014-09-28T08:05:11.799Z</time>
      </trkpt>
      <trkpt lat="45.83288" lon="-0.78125">
        <ele>23</ele>
        <time>2014-09-28T08:05:12.793Z</time>
      </trkpt>
      <trkpt lat="45.83296" lon="-0.78123">
        <ele>23</ele>
        <time>2014-09-28T08:05:20.788Z</time>
      </trkpt>
      <trkpt lat="45.83298" lon="-0.78123">
        <ele>23</ele>
        <time>2014-09-28T08:05:21.792Z</time>
      </trkpt>
      <trkpt lat="45.83306" lon="-0.78124">
        <ele>23</ele>
        <time>2014-09-28T08:05:29.794Z</time>
      </trkpt>
      <trkpt lat="45.83308" lon="-0.78124">
        <ele>23</ele>
        <time>2014-09-28T08:05:30.790Z</time>
      </trkpt>
      <trkpt lat="45.83316" lon="-0.78122">
        <ele>23</ele>
        <time>2014-09-28T08:05:37.795Z</time>
      </trkpt>
      <trkpt lat="45.83317" lon="-0.78121">
        <ele>23</ele>
        <time>2014-09-28T08:05:38.790Z</time>
      </trkpt>
      <trkpt lat="45.83326" lon="-0.78118">
        <ele>23</ele>
        <time>2014-09-28T08:05:45.784Z</time>
      </trkpt>
      <trkpt lat="45.83327" lon="-0.78118">
        <ele>23</ele>
        <time>2014-09-28T08:05:46.787Z</time>
      </trkpt>
      <trkpt lat="45.83333" lon="-0.78109">
        <ele>23</ele>
        <time>2014-09-28T08:05:55.787Z</time>
      </trkpt>
      <trkpt lat="45.83332" lon="-0.78107">
        <ele>23</ele>
        <time>2014-09-28T08:05:56.785Z</time>
      </trkpt>
      <trkpt lat="45.83341" lon="-0.78107">
        <ele>22</ele>
        <time>2014-09-28T08:06:32.793Z</time>
      </trkpt>
      <trkpt lat="45.83343" lon="-0.78107">
        <ele>22</ele>
        <time>2014-09-28T08:06:33.795Z</time>
      </trkpt>
      <trkpt lat="45.8335" lon="-0.78101">
        <ele>22</ele>
        <time>2014-09-28T08:06:39.786Z</time>
      </trkpt>
      <trkpt lat="45.83352" lon="-0.78098">
        <ele>22</ele>
        <time>2014-09-28T08:06:40.787Z</time>
      </trkpt>
      <trkpt lat="45.83355" lon="-0.78088">
        <ele>22</ele>
        <time>2014-09-28T08:06:45.793Z</time>
      </trkpt>
      <trkpt lat="45.83355" lon="-0.78086">
        <ele>22</ele>
        <time>2014-09-28T08:06:46.791Z</time>
      </trkpt>
      <trkpt lat="45.83356" lon="-0.78073">
        <ele>23</ele>
        <time>2014-09-28T08:06:52.796Z</time>
      </trkpt>
      <trkpt lat="45.83356" lon="-0.78072">
        <ele>23</ele>
        <time>2014-09-28T08:06:53.794Z</time>
      </trkpt>
      <trkpt lat="45.83358" lon="-0.7806">
        <ele>23</ele>
        <time>2014-09-28T08:06:59.797Z</time>
      </trkpt>
      <trkpt lat="45.83358" lon="-0.78058">
        <ele>23</ele>
        <time>2014-09-28T08:07:00.824Z</time>
      </trkpt>
      <trkpt lat="45.8336" lon="-0.78047">
        <ele>23</ele>
        <time>2014-09-28T08:07:06.793Z</time>
      </trkpt>
      <trkpt lat="45.8336" lon="-0.78045">
        <ele>23</ele>
        <time>2014-09-28T08:07:07.812Z</time>
      </trkpt>
      <trkpt lat="45.83365" lon="-0.78035">
        <ele>23</ele>
        <time>2014-09-28T08:07:15.792Z</time>
      </trkpt>
      <trkpt lat="45.83365" lon="-0.78034">
        <ele>23</ele>
        <time>2014-09-28T08:07:16.790Z</time>
      </trkpt>
      <trkpt lat="45.83366" lon="-0.78022">
        <ele>23</ele>
        <time>2014-09-28T08:07:24.085Z</time>
      </trkpt>
      <trkpt lat="45.83367" lon="-0.7802">
        <ele>23</ele>
        <time>2014-09-28T08:07:24.790Z</time>
      </trkpt>
      <trkpt lat="45.83369" lon="-0.7801">
        <ele>23</ele>
        <time>2014-09-28T08:07:30.788Z</time>
      </trkpt>
      <trkpt lat="45.8337" lon="-0.78007">
        <ele>23</ele>
        <time>2014-09-28T08:07:31.805Z</time>
      </trkpt>
      <trkpt lat="45.8337" lon="-0.77995">
        <ele>23</ele>
        <time>2014-09-28T08:07:37.792Z</time>
      </trkpt>
      <trkpt lat="45.83369" lon="-0.77994">
        <ele>23</ele>
        <time>2014-09-28T08:07:38.790Z</time>
      </trkpt>
      <trkpt lat="45.83372" lon="-0.77983">
        <ele>23</ele>
        <time>2014-09-28T08:07:45.787Z</time>
      </trkpt>
      <trkpt lat="45.83373" lon="-0.77981">
        <ele>23</ele>
        <time>2014-09-28T08:07:46.789Z</time>
      </trkpt>
      <trkpt lat="45.83376" lon="-0.7797">
        <ele>23</ele>
        <time>2014-09-28T08:07:54.795Z</time>
      </trkpt>
      <trkpt lat="45.83377" lon="-0.77968">
        <ele>23</ele>
        <time>2014-09-28T08:07:55.789Z</time>
      </trkpt>
      <trkpt lat="45.83379" lon="-0.77957">
        <ele>23</ele>
        <time>2014-09-28T08:08:04.785Z</time>
      </trkpt>
      <trkpt lat="45.8338" lon="-0.77955">
        <ele>23</ele>
        <time>2014-09-28T08:08:05.786Z</time>
      </trkpt>
      <trkpt lat="45.83382" lon="-0.77945">
        <ele>23</ele>
        <time>2014-09-28T08:08:11.800Z</time>
      </trkpt>
      <trkpt lat="45.83382" lon="-0.77943">
        <ele>23</ele>
        <time>2014-09-28T08:08:12.783Z</time>
      </trkpt>
      <trkpt lat="45.83389" lon="-0.77936">
        <ele>23</ele>
        <time>2014-09-28T08:08:19.787Z</time>
      </trkpt>
      <trkpt lat="45.8339" lon="-0.77935">
        <ele>23</ele>
        <time>2014-09-28T08:08:20.789Z</time>
      </trkpt>
      <trkpt lat="45.83396" lon="-0.77926">
        <ele>23</ele>
        <time>2014-09-28T08:08:33.791Z</time>
      </trkpt>
      <trkpt lat="45.83397" lon="-0.77926">
        <ele>23</ele>
        <time>2014-09-28T08:08:34.796Z</time>
      </trkpt>
      <trkpt lat="45.83404" lon="-0.77918">
        <ele>23</ele>
        <time>2014-09-28T08:08:42.795Z</time>
      </trkpt>
      <trkpt lat="45.83405" lon="-0.77917">
        <ele>23</ele>
        <time>2014-09-28T08:08:43.797Z</time>
      </trkpt>
      <trkpt lat="45.83412" lon="-0.77912">
        <ele>23</ele>
        <time>2014-09-28T08:08:51.796Z</time>
      </trkpt>
      <trkpt lat="45.83413" lon="-0.77911">
        <ele>23</ele>
        <time>2014-09-28T08:08:52.798Z</time>
      </trkpt>
      <trkpt lat="45.83419" lon="-0.77903">
        <ele>22</ele>
        <time>2014-09-28T08:08:59.794Z</time>
      </trkpt>
      <trkpt lat="45.83421" lon="-0.77901">
        <ele>22</ele>
        <time>2014-09-28T08:09:00.800Z</time>
      </trkpt>
      <trkpt lat="45.83428" lon="-0.77894">
        <ele>22</ele>
        <time>2014-09-28T08:09:06.797Z</time>
      </trkpt>
      <trkpt lat="45.83429" lon="-0.77893">
        <ele>22</ele>
        <time>2014-09-28T08:09:07.813Z</time>
      </trkpt>
      <trkpt lat="45.83435" lon="-0.77884">
        <ele>22</ele>
        <time>2014-09-28T08:09:14.805Z</time>
      </trkpt>
      <trkpt lat="45.83436" lon="-0.77883">
        <ele>22</ele>
        <time>2014-09-28T08:09:15.793Z</time>
      </trkpt>
      <trkpt lat="45.83442" lon="-0.77878">
        <ele>22</ele>
        <time>2014-09-28T08:09:23.782Z</time>
      </trkpt>
      <trkpt lat="45.83444" lon="-0.77877">
        <ele>22</ele>
        <time>2014-09-28T08:09:24.782Z</time>
      </trkpt>
      <trkpt lat="45.8345" lon="-0.77868">
        <ele>22</ele>
        <time>2014-09-28T08:09:30.781Z</time>
      </trkpt>
      <trkpt lat="45.83451" lon="-0.77866">
        <ele>22</ele>
        <time>2014-09-28T08:09:31.782Z</time>
      </trkpt>
      <trkpt lat="45.83454" lon="-0.77857">
        <ele>22</ele>
        <time>2014-09-28T08:09:37.782Z</time>
      </trkpt>
      <trkpt lat="45.83455" lon="-0.77855">
        <ele>22</ele>
        <time>2014-09-28T08:09:38.779Z</time>
      </trkpt>
      <trkpt lat="45.83458" lon="-0.77846">
        <ele>22</ele>
        <time>2014-09-28T08:09:41.784Z</time>
      </trkpt>
      <trkpt lat="45.8346" lon="-0.77843">
        <ele>22</ele>
        <time>2014-09-28T08:09:42.785Z</time>
      </trkpt>
      <trkpt lat="45.83463" lon="-0.77832">
        <ele>22</ele>
        <time>2014-09-28T08:09:46.794Z</time>
      </trkpt>
      <trkpt lat="45.83463" lon="-0.77829">
        <ele>22</ele>
        <time>2014-09-28T08:09:47.788Z</time>
      </trkpt>
      <trkpt lat="45.83463" lon="-0.77816">
        <ele>22</ele>
        <time>2014-09-28T08:09:53.804Z</time>
      </trkpt>
      <trkpt lat="45.83463" lon="-0.77813">
        <ele>22</ele>
        <time>2014-09-28T08:09:54.789Z</time>
      </trkpt>
      <trkpt lat="45.83464" lon="-0.77801">
        <ele>22</ele>
        <time>2014-09-28T08:10:00.783Z</time>
      </trkpt>
      <trkpt lat="45.83464" lon="-0.77798">
        <ele>22</ele>
        <time>2014-09-28T08:10:01.791Z</time>
      </trkpt>
      <trkpt lat="45.83463" lon="-0.77786">
        <ele>22</ele>
        <time>2014-09-28T08:10:06.790Z</time>
      </trkpt>
      <trkpt lat="45.83463" lon="-0.77784">
        <ele>22</ele>
        <time>2014-09-28T08:10:07.793Z</time>
      </trkpt>
      <trkpt lat="45.83459" lon="-0.77773">
        <ele>22</ele>
        <time>2014-09-28T08:10:14.802Z</time>
      </trkpt>
      <trkpt lat="45.83459" lon="-0.77771">
        <ele>22</ele>
        <time>2014-09-28T08:10:15.799Z</time>
      </trkpt>
      <trkpt lat="45.83457" lon="-0.7776">
        <ele>22</ele>
        <time>2014-09-28T08:10:24.088Z</time>
      </trkpt>
      <trkpt lat="45.83457" lon="-0.77757">
        <ele>22</ele>
        <time>2014-09-28T08:10:24.799Z</time>
      </trkpt>
      <trkpt lat="45.83458" lon="-0.77746">
        <ele>23</ele>
        <time>2014-09-28T08:10:30.792Z</time>
      </trkpt>
      <trkpt lat="45.83458" lon="-0.77744">
        <ele>23</ele>
        <time>2014-09-28T08:10:31.794Z</time>
      </trkpt>
      <trkpt lat="45.8346" lon="-0.77734">
        <ele>23</ele>
        <time>2014-09-28T08:10:37.796Z</time>
      </trkpt>
      <trkpt lat="45.83461" lon="-0.77731">
        <ele>23</ele>
        <time>2014-09-28T08:10:38.796Z</time>
      </trkpt>
      <trkpt lat="45.83461" lon="-0.77719">
        <ele>23</ele>
        <time>2014-09-28T08:10:46.793Z</time>
      </trkpt>
      <trkpt lat="45.83461" lon="-0.77717">
        <ele>23</ele>
        <time>2014-09-28T08:10:47.807Z</time>
      </trkpt>
      <trkpt lat="45.83462" lon="-0.77706">
        <ele>23</ele>
        <time>2014-09-28T08:10:53.986Z</time>
      </trkpt>
      <trkpt lat="45.83462" lon="-0.77703">
        <ele>23</ele>
        <time>2014-09-28T08:10:54.785Z</time>
      </trkpt>
      <trkpt lat="45.8346" lon="-0.77692">
        <ele>23</ele>
        <time>2014-09-28T08:10:59.787Z</time>
      </trkpt>
      <trkpt lat="45.83459" lon="-0.77689">
        <ele>23</ele>
        <time>2014-09-28T08:11:00.787Z</time>
      </trkpt>
      <trkpt lat="45.83458" lon="-0.77678">
        <ele>23</ele>
        <time>2014-09-28T08:11:06.778Z</time>
      </trkpt>
      <trkpt lat="45.83458" lon="-0.77677">
        <ele>23</ele>
        <time>2014-09-28T08:11:07.776Z</time>
      </trkpt>
      <trkpt lat="45.83458" lon="-0.77666">
        <ele>23</ele>
        <time>2014-09-28T08:11:14.041Z</time>
      </trkpt>
      <trkpt lat="45.83459" lon="-0.77664">
        <ele>23</ele>
        <time>2014-09-28T08:11:14.774Z</time>
      </trkpt>
      <trkpt lat="45.83461" lon="-0.77652">
        <ele>23</ele>
        <time>2014-09-28T08:11:19.775Z</time>
      </trkpt>
      <trkpt lat="45.83462" lon="-0.77651">
        <ele>23</ele>
        <time>2014-09-28T08:11:20.772Z</time>
      </trkpt>
      <trkpt lat="45.83464" lon="-0.77639">
        <ele>23</ele>
        <time>2014-09-28T08:11:27.776Z</time>
      </trkpt>
      <trkpt lat="45.83464" lon="-0.77637">
        <ele>23</ele>
        <time>2014-09-28T08:11:28.790Z</time>
      </trkpt>
      <trkpt lat="45.83466" lon="-0.77625">
        <ele>23</ele>
        <time>2014-09-28T08:11:37.791Z</time>
      </trkpt>
      <trkpt lat="45.83466" lon="-0.77623">
        <ele>23</ele>
        <time>2014-09-28T08:11:38.781Z</time>
      </trkpt>
      <trkpt lat="45.83471" lon="-0.77614">
        <ele>23</ele>
        <time>2014-09-28T08:11:46.786Z</time>
      </trkpt>
      <trkpt lat="45.83472" lon="-0.77612">
        <ele>23</ele>
        <time>2014-09-28T08:11:47.805Z</time>
      </trkpt>
      <trkpt lat="45.83477" lon="-0.77602">
        <ele>23</ele>
        <time>2014-09-28T08:11:55.781Z</time>
      </trkpt>
      <trkpt lat="45.83477" lon="-0.77601">
        <ele>23</ele>
        <time>2014-09-28T08:11:56.797Z</time>
      </trkpt>
      <trkpt lat="45.83483" lon="-0.77592">
        <ele>23</ele>
        <time>2014-09-28T08:12:05.787Z</time>
      </trkpt>
      <trkpt lat="45.83484" lon="-0.77591">
        <ele>23</ele>
        <time>2014-09-28T08:12:06.793Z</time>
      </trkpt>
      <trkpt lat="45.83491" lon="-0.77585">
        <ele>23</ele>
        <time>2014-09-28T08:12:12.790Z</time>
      </trkpt>
      <trkpt lat="45.83492" lon="-0.77584">
        <ele>23</ele>
        <time>2014-09-28T08:12:13.786Z</time>
      </trkpt>
      <trkpt lat="45.83498" lon="-0.77576">
        <ele>23</ele>
        <time>2014-09-28T08:12:22.774Z</time>
      </trkpt>
      <trkpt lat="45.83499" lon="-0.77576">
        <ele>23</ele>
        <time>2014-09-28T08:12:23.774Z</time>
      </trkpt>
      <trkpt lat="45.83508" lon="-0.77571">
        <ele>24</ele>
        <time>2014-09-28T08:12:34.503Z</time>
      </trkpt>
      <trkpt lat="45.83509" lon="-0.7757">
        <ele>24</ele>
        <time>2014-09-28T08:12:34.773Z</time>
      </trkpt>
      <trkpt lat="45.83511" lon="-0.77561">
        <ele>24</ele>
        <time>2014-09-28T08:12:41.797Z</time>
      </trkpt>
      <trkpt lat="45.83511" lon="-0.77555">
        <ele>25</ele>
        <time>2014-09-28T08:12:42.792Z</time>
      </trkpt>
      <trkpt lat="45.83511" lon="-0.77544">
        <ele>25</ele>
        <time>2014-09-28T08:12:47.778Z</time>
      </trkpt>
      <trkpt lat="45.83512" lon="-0.7754">
        <ele>25</ele>
        <time>2014-09-28T08:12:48.798Z</time>
      </trkpt>
      <trkpt lat="45.8351" lon="-0.77528">
        <ele>25</ele>
        <time>2014-09-28T08:12:55.793Z</time>
      </trkpt>
      <trkpt lat="45.8351" lon="-0.77526">
        <ele>25</ele>
        <time>2014-09-28T08:12:56.807Z</time>
      </trkpt>
      <trkpt lat="45.83511" lon="-0.77514">
        <ele>25</ele>
        <time>2014-09-28T08:13:05.789Z</time>
      </trkpt>
      <trkpt lat="45.83511" lon="-0.77514">
        <ele>25</ele>
        <time>2014-09-28T08:13:06.789Z</time>
      </trkpt>
      <trkpt lat="45.83511" lon="-0.77504">
        <ele>24</ele>
        <time>2014-09-28T08:13:19.783Z</time>
      </trkpt>
      <trkpt lat="45.8351" lon="-0.775">
        <ele>24</ele>
        <time>2014-09-28T08:13:20.789Z</time>
      </trkpt>
      <trkpt lat="45.83509" lon="-0.77488">
        <ele>25</ele>
        <time>2014-09-28T08:13:26.792Z</time>
      </trkpt>
      <trkpt lat="45.8351" lon="-0.77487">
        <ele>25</ele>
        <time>2014-09-28T08:13:27.787Z</time>
      </trkpt>
      <trkpt lat="45.83509" lon="-0.77474">
        <ele>25</ele>
        <time>2014-09-28T08:13:34.795Z</time>
      </trkpt>
      <trkpt lat="45.8351" lon="-0.77472">
        <ele>25</ele>
        <time>2014-09-28T08:13:35.800Z</time>
      </trkpt>
      <trkpt lat="45.8351" lon="-0.77461">
        <ele>25</ele>
        <time>2014-09-28T08:13:44.263Z</time>
      </trkpt>
      <trkpt lat="45.8351" lon="-0.77458">
        <ele>26</ele>
        <time>2014-09-28T08:13:44.788Z</time>
      </trkpt>
      <trkpt lat="45.8351" lon="-0.77447">
        <ele>26</ele>
        <time>2014-09-28T08:13:51.793Z</time>
      </trkpt>
      <trkpt lat="45.8351" lon="-0.77444">
        <ele>26</ele>
        <time>2014-09-28T08:13:52.790Z</time>
      </trkpt>
      <trkpt lat="45.83511" lon="-0.77432">
        <ele>26</ele>
        <time>2014-09-28T08:14:00.789Z</time>
      </trkpt>
      <trkpt lat="45.83511" lon="-0.77431">
        <ele>25</ele>
        <time>2014-09-28T08:14:01.792Z</time>
      </trkpt>
      <trkpt lat="45.83511" lon="-0.77418">
        <ele>25</ele>
        <time>2014-09-28T08:14:09.027Z</time>
      </trkpt>
      <trkpt lat="45.83511" lon="-0.77417">
        <ele>26</ele>
        <time>2014-09-28T08:14:09.788Z</time>
      </trkpt>
      <trkpt lat="45.83509" lon="-0.77404">
        <ele>26</ele>
        <time>2014-09-28T08:14:16.790Z</time>
      </trkpt>
      <trkpt lat="45.83509" lon="-0.77402">
        <ele>26</ele>
        <time>2014-09-28T08:14:17.809Z</time>
      </trkpt>
      <trkpt lat="45.83508" lon="-0.7739">
        <ele>26</ele>
        <time>2014-09-28T08:14:25.791Z</time>
      </trkpt>
      <trkpt lat="45.83508" lon="-0.77388">
        <ele>26</ele>
        <time>2014-09-28T08:14:26.783Z</time>
      </trkpt>
      <trkpt lat="45.83509" lon="-0.77377">
        <ele>26</ele>
        <time>2014-09-28T08:14:34.123Z</time>
      </trkpt>
      <trkpt lat="45.83508" lon="-0.77375">
        <ele>26</ele>
        <time>2014-09-28T08:14:34.785Z</time>
      </trkpt>
      <trkpt lat="45.83507" lon="-0.77363">
        <ele>27</ele>
        <time>2014-09-28T08:14:42.791Z</time>
      </trkpt>
      <trkpt lat="45.83506" lon="-0.77361">
        <ele>27</ele>
        <time>2014-09-28T08:14:43.787Z</time>
      </trkpt>
      <trkpt lat="45.83505" lon="-0.77349">
        <ele>26</ele>
        <time>2014-09-28T08:14:50.788Z</time>
      </trkpt>
      <trkpt lat="45.83505" lon="-0.77347">
        <ele>26</ele>
        <time>2014-09-28T08:14:51.802Z</time>
      </trkpt>
      <trkpt lat="45.83504" lon="-0.77335">
        <ele>26</ele>
        <time>2014-09-28T08:14:59.824Z</time>
      </trkpt>
      <trkpt lat="45.83503" lon="-0.77334">
        <ele>26</ele>
        <time>2014-09-28T08:15:00.800Z</time>
      </trkpt>
      <trkpt lat="45.83501" lon="-0.77323">
        <ele>27</ele>
        <time>2014-09-28T08:15:07.784Z</time>
      </trkpt>
      <trkpt lat="45.83501" lon="-0.77322">
        <ele>27</ele>
        <time>2014-09-28T08:15:08.782Z</time>
      </trkpt>
      <trkpt lat="45.83499" lon="-0.77309">
        <ele>26</ele>
        <time>2014-09-28T08:15:17.781Z</time>
      </trkpt>
      <trkpt lat="45.83499" lon="-0.77307">
        <ele>26</ele>
        <time>2014-09-28T08:15:18.794Z</time>
      </trkpt>
      <trkpt lat="45.83497" lon="-0.77296">
        <ele>26</ele>
        <time>2014-09-28T08:15:27.791Z</time>
      </trkpt>
      <trkpt lat="45.83498" lon="-0.77293">
        <ele>27</ele>
        <time>2014-09-28T08:15:28.786Z</time>
      </trkpt>
      <trkpt lat="45.83499" lon="-0.77281">
        <ele>27</ele>
        <time>2014-09-28T08:15:34.124Z</time>
      </trkpt>
      <trkpt lat="45.83498" lon="-0.77279">
        <ele>27</ele>
        <time>2014-09-28T08:15:34.786Z</time>
      </trkpt>
      <trkpt lat="45.83495" lon="-0.77268">
        <ele>27</ele>
        <time>2014-09-28T08:15:44.785Z</time>
      </trkpt>
      <trkpt lat="45.83495" lon="-0.77266">
        <ele>27</ele>
        <time>2014-09-28T08:15:45.790Z</time>
      </trkpt>
      <trkpt lat="45.83494" lon="-0.77253">
        <ele>28</ele>
        <time>2014-09-28T08:15:52.788Z</time>
      </trkpt>
      <trkpt lat="45.83494" lon="-0.77251">
        <ele>28</ele>
        <time>2014-09-28T08:15:53.789Z</time>
      </trkpt>
      <trkpt lat="45.83493" lon="-0.77238">
        <ele>28</ele>
        <time>2014-09-28T08:16:01.782Z</time>
      </trkpt>
      <trkpt lat="45.83493" lon="-0.77237">
        <ele>28</ele>
        <time>2014-09-28T08:16:02.784Z</time>
      </trkpt>
      <trkpt lat="45.83491" lon="-0.77224">
        <ele>28</ele>
        <time>2014-09-28T08:16:09.795Z</time>
      </trkpt>
      <trkpt lat="45.83491" lon="-0.77223">
        <ele>28</ele>
        <time>2014-09-28T08:16:10.807Z</time>
      </trkpt>
      <trkpt lat="45.83489" lon="-0.77212">
        <ele>28</ele>
        <time>2014-09-28T08:16:19.785Z</time>
      </trkpt>
      <trkpt lat="45.83489" lon="-0.7721">
        <ele>28</ele>
        <time>2014-09-28T08:16:20.792Z</time>
      </trkpt>
      <trkpt lat="45.83483" lon="-0.77201">
        <ele>28</ele>
        <time>2014-09-28T08:16:25.787Z</time>
      </trkpt>
      <trkpt lat="45.83483" lon="-0.772">
        <ele>28</ele>
        <time>2014-09-28T08:16:26.793Z</time>
      </trkpt>
      <trkpt lat="45.83474" lon="-0.77202">
        <ele>28</ele>
        <time>2014-09-28T08:16:32.784Z</time>
      </trkpt>
      <trkpt lat="45.83472" lon="-0.77203">
        <ele>28</ele>
        <time>2014-09-28T08:16:33.785Z</time>
      </trkpt>
      <trkpt lat="45.83464" lon="-0.77204">
        <ele>28</ele>
        <time>2014-09-28T08:16:39.790Z</time>
      </trkpt>
      <trkpt lat="45.83463" lon="-0.77205">
        <ele>28</ele>
        <time>2014-09-28T08:16:40.788Z</time>
      </trkpt>
      <trkpt lat="45.83454" lon="-0.77206">
        <ele>27</ele>
        <time>2014-09-28T08:16:48.972Z</time>
      </trkpt>
      <trkpt lat="45.83453" lon="-0.77206">
        <ele>27</ele>
        <time>2014-09-28T08:16:49.794Z</time>
      </trkpt>
      <trkpt lat="45.83448" lon="-0.77195">
        <ele>27</ele>
        <time>2014-09-28T08:17:01.799Z</time>
      </trkpt>
      <trkpt lat="45.83448" lon="-0.77194">
        <ele>27</ele>
        <time>2014-09-28T08:17:02.791Z</time>
      </trkpt>
      <trkpt lat="45.83451" lon="-0.77184">
        <ele>27</ele>
        <time>2014-09-28T08:17:10.796Z</time>
      </trkpt>
      <trkpt lat="45.83451" lon="-0.77183">
        <ele>27</ele>
        <time>2014-09-28T08:17:11.809Z</time>
      </trkpt>
      <trkpt lat="45.83451" lon="-0.77171">
        <ele>27</ele>
        <time>2014-09-28T08:17:19.077Z</time>
      </trkpt>
      <trkpt lat="45.83451" lon="-0.77169">
        <ele>27</ele>
        <time>2014-09-28T08:17:19.808Z</time>
      </trkpt>
      <trkpt lat="45.83456" lon="-0.7716">
        <ele>28</ele>
        <time>2014-09-28T08:17:27.803Z</time>
      </trkpt>
      <trkpt lat="45.83457" lon="-0.77158">
        <ele>28</ele>
        <time>2014-09-28T08:17:28.791Z</time>
      </trkpt>
      <trkpt lat="45.83459" lon="-0.77146">
        <ele>28</ele>
        <time>2014-09-28T08:17:34.847Z</time>
      </trkpt>
      <trkpt lat="45.83459" lon="-0.77144">
        <ele>28</ele>
        <time>2014-09-28T08:17:35.790Z</time>
      </trkpt>
      <trkpt lat="45.83459" lon="-0.77132">
        <ele>28</ele>
        <time>2014-09-28T08:17:44.171Z</time>
      </trkpt>
      <trkpt lat="45.83459" lon="-0.77131">
        <ele>28</ele>
        <time>2014-09-28T08:17:44.803Z</time>
      </trkpt>
      <trkpt lat="45.83467" lon="-0.77136">
        <ele>28</ele>
        <time>2014-09-28T08:18:09.077Z</time>
      </trkpt>
      <trkpt lat="45.83468" lon="-0.77137">
        <ele>28</ele>
        <time>2014-09-28T08:18:09.803Z</time>
      </trkpt>
      <trkpt lat="45.83475" lon="-0.77144">
        <ele>28</ele>
        <time>2014-09-28T08:18:20.800Z</time>
      </trkpt>
      <trkpt lat="45.83475" lon="-0.77145">
        <ele>28</ele>
        <time>2014-09-28T08:18:21.807Z</time>
      </trkpt>
      <trkpt lat="45.83481" lon="-0.77155">
        <ele>29</ele>
        <time>2014-09-28T08:18:29.798Z</time>
      </trkpt>
      <trkpt lat="45.83482" lon="-0.77156">
        <ele>29</ele>
        <time>2014-09-28T08:18:30.797Z</time>
      </trkpt>
      <trkpt lat="45.83487" lon="-0.77166">
        <ele>29</ele>
        <time>2014-09-28T08:18:39.809Z</time>
      </trkpt>
      <trkpt lat="45.83487" lon="-0.77168">
        <ele>29</ele>
        <time>2014-09-28T08:18:40.803Z</time>
      </trkpt>
      <trkpt lat="45.83491" lon="-0.77178">
        <ele>29</ele>
        <time>2014-09-28T08:18:48.968Z</time>
      </trkpt>
      <trkpt lat="45.83492" lon="-0.7718">
        <ele>29</ele>
        <time>2014-09-28T08:18:49.801Z</time>
      </trkpt>
      <trkpt lat="45.83496" lon="-0.7719">
        <ele>28</ele>
        <time>2014-09-28T08:18:55.807Z</time>
      </trkpt>
      <trkpt lat="45.83496" lon="-0.77191">
        <ele>28</ele>
        <time>2014-09-28T08:18:56.807Z</time>
      </trkpt>
      <trkpt lat="45.835" lon="-0.77203">
        <ele>29</ele>
        <time>2014-09-28T08:19:05.807Z</time>
      </trkpt>
      <trkpt lat="45.83501" lon="-0.77203">
        <ele>29</ele>
        <time>2014-09-28T08:19:06.804Z</time>
      </trkpt>
      <trkpt lat="45.83505" lon="-0.77213">
        <ele>29</ele>
        <time>2014-09-28T08:19:12.803Z</time>
      </trkpt>
      <trkpt lat="45.83505" lon="-0.77215">
        <ele>29</ele>
        <time>2014-09-28T08:19:13.808Z</time>
      </trkpt>
      <trkpt lat="45.83511" lon="-0.77224">
        <ele>29</ele>
        <time>2014-09-28T08:19:19.805Z</time>
      </trkpt>
      <trkpt lat="45.83512" lon="-0.77226">
        <ele>29</ele>
        <time>2014-09-28T08:19:20.806Z</time>
      </trkpt>
      <trkpt lat="45.83517" lon="-0.77236">
        <ele>29</ele>
        <time>2014-09-28T08:19:26.802Z</time>
      </trkpt>
      <trkpt lat="45.83518" lon="-0.77238">
        <ele>29</ele>
        <time>2014-09-28T08:19:27.806Z</time>
      </trkpt>
      <trkpt lat="45.83524" lon="-0.77247">
        <ele>29</ele>
        <time>2014-09-28T08:19:34.102Z</time>
      </trkpt>
      <trkpt lat="45.83526" lon="-0.77248">
        <ele>29</ele>
        <time>2014-09-28T08:19:34.804Z</time>
      </trkpt>
      <trkpt lat="45.83533" lon="-0.77254">
        <ele>28</ele>
        <time>2014-09-28T08:19:40.801Z</time>
      </trkpt>
      <trkpt lat="45.83534" lon="-0.77255">
        <ele>28</ele>
        <time>2014-09-28T08:19:41.800Z</time>
      </trkpt>
      <trkpt lat="45.8354" lon="-0.77264">
        <ele>28</ele>
        <time>2014-09-28T08:19:47.803Z</time>
      </trkpt>
      <trkpt lat="45.83541" lon="-0.77265">
        <ele>28</ele>
        <time>2014-09-28T08:19:48.803Z</time>
      </trkpt>
      <trkpt lat="45.83548" lon="-0.77273">
        <ele>28</ele>
        <time>2014-09-28T08:19:54.802Z</time>
      </trkpt>
      <trkpt lat="45.83549" lon="-0.77274">
        <ele>28</ele>
        <time>2014-09-28T08:19:55.805Z</time>
      </trkpt>
      <trkpt lat="45.83554" lon="-0.77282">
        <ele>28</ele>
        <time>2014-09-28T08:20:01.805Z</time>
      </trkpt>
      <trkpt lat="45.83555" lon="-0.77284">
        <ele>28</ele>
        <time>2014-09-28T08:20:02.804Z</time>
      </trkpt>
      <trkpt lat="45.83559" lon="-0.77295">
        <ele>28</ele>
        <time>2014-09-28T08:20:09.056Z</time>
      </trkpt>
      <trkpt lat="45.8356" lon="-0.77296">
        <ele>28</ele>
        <time>2014-09-28T08:20:09.802Z</time>
      </trkpt>
      <trkpt lat="45.83565" lon="-0.77304">
        <ele>28</ele>
        <time>2014-09-28T08:20:15.801Z</time>
      </trkpt>
      <trkpt lat="45.83566" lon="-0.77306">
        <ele>28</ele>
        <time>2014-09-28T08:20:16.809Z</time>
      </trkpt>
      <trkpt lat="45.83569" lon="-0.77318">
        <ele>28</ele>
        <time>2014-09-28T08:20:24.104Z</time>
      </trkpt>
      <trkpt lat="45.83569" lon="-0.77319">
        <ele>28</ele>
        <time>2014-09-28T08:20:24.792Z</time>
      </trkpt>
      <trkpt lat="45.83572" lon="-0.77331">
        <ele>29</ele>
        <time>2014-09-28T08:20:32.814Z</time>
      </trkpt>
      <trkpt lat="45.83572" lon="-0.77332">
        <ele>29</ele>
        <time>2014-09-28T08:20:33.811Z</time>
      </trkpt>
      <trkpt lat="45.83576" lon="-0.77343">
        <ele>28</ele>
        <time>2014-09-28T08:20:41.801Z</time>
      </trkpt>
      <trkpt lat="45.83576" lon="-0.77345">
        <ele>28</ele>
        <time>2014-09-28T08:20:42.843Z</time>
      </trkpt>
      <trkpt lat="45.83579" lon="-0.77356">
        <ele>28</ele>
        <time>2014-09-28T08:20:49.812Z</time>
      </trkpt>
      <trkpt lat="45.83579" lon="-0.77358">
        <ele>28</ele>
        <time>2014-09-28T08:20:50.813Z</time>
      </trkpt>
      <trkpt lat="45.83582" lon="-0.7737">
        <ele>28</ele>
        <time>2014-09-28T08:20:59.811Z</time>
      </trkpt>
      <trkpt lat="45.83582" lon="-0.77371">
        <ele>28</ele>
        <time>2014-09-28T08:21:00.805Z</time>
      </trkpt>
      <trkpt lat="45.83584" lon="-0.77383">
        <ele>27</ele>
        <time>2014-09-28T08:21:06.808Z</time>
      </trkpt>
      <trkpt lat="45.83584" lon="-0.77385">
        <ele>27</ele>
        <time>2014-09-28T08:21:07.809Z</time>
      </trkpt>
      <trkpt lat="45.83587" lon="-0.77396">
        <ele>27</ele>
        <time>2014-09-28T08:21:15.808Z</time>
      </trkpt>
      <trkpt lat="45.83587" lon="-0.77398">
        <ele>27</ele>
        <time>2014-09-28T08:21:16.807Z</time>
      </trkpt>
      <trkpt lat="45.83591" lon="-0.77409">
        <ele>27</ele>
        <time>2014-09-28T08:21:24.808Z</time>
      </trkpt>
      <trkpt lat="45.83591" lon="-0.7741">
        <ele>27</ele>
        <time>2014-09-28T08:21:25.810Z</time>
      </trkpt>
      <trkpt lat="45.83592" lon="-0.77423">
        <ele>27</ele>
        <time>2014-09-28T08:21:31.803Z</time>
      </trkpt>
      <trkpt lat="45.83592" lon="-0.77424">
        <ele>27</ele>
        <time>2014-09-28T08:21:32.805Z</time>
      </trkpt>
      <trkpt lat="45.83594" lon="-0.77435">
        <ele>26</ele>
        <time>2014-09-28T08:21:38.808Z</time>
      </trkpt>
      <trkpt lat="45.83595" lon="-0.77438">
        <ele>26</ele>
        <time>2014-09-28T08:21:39.808Z</time>
      </trkpt>
      <trkpt lat="45.83599" lon="-0.77448">
        <ele>26</ele>
        <time>2014-09-28T08:21:45.808Z</time>
      </trkpt>
      <trkpt lat="45.83599" lon="-0.7745">
        <ele>26</ele>
        <time>2014-09-28T08:21:46.810Z</time>
      </trkpt>
      <trkpt lat="45.83602" lon="-0.77459">
        <ele>26</ele>
        <time>2014-09-28T08:21:51.806Z</time>
      </trkpt>
      <trkpt lat="45.83603" lon="-0.77462">
        <ele>26</ele>
        <time>2014-09-28T08:21:52.813Z</time>
      </trkpt>
      <trkpt lat="45.83608" lon="-0.77472">
        <ele>26</ele>
        <time>2014-09-28T08:21:59.812Z</time>
      </trkpt>
      <trkpt lat="45.83608" lon="-0.77473">
        <ele>26</ele>
        <time>2014-09-28T08:22:00.802Z</time>
      </trkpt>
      <trkpt lat="45.83613" lon="-0.77482">
        <ele>26</ele>
        <time>2014-09-28T08:22:06.804Z</time>
      </trkpt>
      <trkpt lat="45.83613" lon="-0.77484">
        <ele>26</ele>
        <time>2014-09-28T08:22:07.806Z</time>
      </trkpt>
      <trkpt lat="45.83616" lon="-0.77495">
        <ele>25</ele>
        <time>2014-09-28T08:22:13.812Z</time>
      </trkpt>
      <trkpt lat="45.83617" lon="-0.77496">
        <ele>25</ele>
        <time>2014-09-28T08:22:14.805Z</time>
      </trkpt>
      <trkpt lat="45.83622" lon="-0.77507">
        <ele>25</ele>
        <time>2014-09-28T08:22:21.804Z</time>
      </trkpt>
      <trkpt lat="45.83622" lon="-0.77508">
        <ele>25</ele>
        <time>2014-09-28T08:22:22.803Z</time>
      </trkpt>
      <trkpt lat="45.83626" lon="-0.77518">
        <ele>25</ele>
        <time>2014-09-28T08:22:29.810Z</time>
      </trkpt>
      <trkpt lat="45.83627" lon="-0.7752">
        <ele>25</ele>
        <time>2014-09-28T08:22:30.811Z</time>
      </trkpt>
      <trkpt lat="45.83632" lon="-0.77528">
        <ele>25</ele>
        <time>2014-09-28T08:22:35.815Z</time>
      </trkpt>
      <trkpt lat="45.83633" lon="-0.7753">
        <ele>25</ele>
        <time>2014-09-28T08:22:36.831Z</time>
      </trkpt>
      <trkpt lat="45.83634" lon="-0.77542">
        <ele>25</ele>
        <time>2014-09-28T08:22:46.815Z</time>
      </trkpt>
      <trkpt lat="45.83635" lon="-0.77543">
        <ele>25</ele>
        <time>2014-09-28T08:22:47.810Z</time>
      </trkpt>
      <trkpt lat="45.83638" lon="-0.77553">
        <ele>25</ele>
        <time>2014-09-28T08:22:54.824Z</time>
      </trkpt>
      <trkpt lat="45.83639" lon="-0.77554">
        <ele>25</ele>
        <time>2014-09-28T08:22:55.813Z</time>
      </trkpt>
      <trkpt lat="45.83647" lon="-0.77557">
        <ele>25</ele>
        <time>2014-09-28T08:23:00.813Z</time>
      </trkpt>
      <trkpt lat="45.83649" lon="-0.77557">
        <ele>25</ele>
        <time>2014-09-28T08:23:01.809Z</time>
      </trkpt>
      <trkpt lat="45.83657" lon="-0.7756">
        <ele>25</ele>
        <time>2014-09-28T08:23:05.807Z</time>
      </trkpt>
      <trkpt lat="45.83658" lon="-0.77561">
        <ele>25</ele>
        <time>2014-09-28T08:23:06.806Z</time>
      </trkpt>
      <trkpt lat="45.83665" lon="-0.77565">
        <ele>25</ele>
        <time>2014-09-28T08:23:11.807Z</time>
      </trkpt>
      <trkpt lat="45.83666" lon="-0.77565">
        <ele>25</ele>
        <time>2014-09-28T08:23:12.813Z</time>
      </trkpt>
      <trkpt lat="45.83674" lon="-0.77569">
        <ele>24</ele>
        <time>2014-09-28T08:23:20.799Z</time>
      </trkpt>
      <trkpt lat="45.83675" lon="-0.77569">
        <ele>24</ele>
        <time>2014-09-28T08:23:21.798Z</time>
      </trkpt>
      <trkpt lat="45.83683" lon="-0.7757">
        <ele>24</ele>
        <time>2014-09-28T08:23:28.799Z</time>
      </trkpt>
      <trkpt lat="45.83684" lon="-0.7757">
        <ele>24</ele>
        <time>2014-09-28T08:23:29.802Z</time>
      </trkpt>
      <trkpt lat="45.83693" lon="-0.77572">
        <ele>24</ele>
        <time>2014-09-28T08:23:36.798Z</time>
      </trkpt>
      <trkpt lat="45.83694" lon="-0.77572">
        <ele>24</ele>
        <time>2014-09-28T08:23:37.804Z</time>
      </trkpt>
      <trkpt lat="45.83702" lon="-0.77573">
        <ele>24</ele>
        <time>2014-09-28T08:23:44.815Z</time>
      </trkpt>
      <trkpt lat="45.83704" lon="-0.77573">
        <ele>24</ele>
        <time>2014-09-28T08:23:45.803Z</time>
      </trkpt>
      <trkpt lat="45.83712" lon="-0.77573">
        <ele>24</ele>
        <time>2014-09-28T08:23:51.798Z</time>
      </trkpt>
      <trkpt lat="45.83714" lon="-0.77573">
        <ele>24</ele>
        <time>2014-09-28T08:23:52.797Z</time>
      </trkpt>
      <trkpt lat="45.83723" lon="-0.77574">
        <ele>24</ele>
        <time>2014-09-28T08:23:58.817Z</time>
      </trkpt>
      <trkpt lat="45.83724" lon="-0.77574">
        <ele>24</ele>
        <time>2014-09-28T08:23:59.807Z</time>
      </trkpt>
      <trkpt lat="45.83732" lon="-0.77575">
        <ele>24</ele>
        <time>2014-09-28T08:24:08.818Z</time>
      </trkpt>
      <trkpt lat="45.83733" lon="-0.77575">
        <ele>24</ele>
        <time>2014-09-28T08:24:09.810Z</time>
      </trkpt>
      <trkpt lat="45.83741" lon="-0.77575">
        <ele>24</ele>
        <time>2014-09-28T08:24:14.815Z</time>
      </trkpt>
      <trkpt lat="45.83742" lon="-0.77575">
        <ele>24</ele>
        <time>2014-09-28T08:24:15.807Z</time>
      </trkpt>
      <trkpt lat="45.8375" lon="-0.77572">
        <ele>23</ele>
        <time>2014-09-28T08:24:22.802Z</time>
      </trkpt>
      <trkpt lat="45.83751" lon="-0.77572">
        <ele>23</ele>
        <time>2014-09-28T08:24:23.800Z</time>
      </trkpt>
      <trkpt lat="45.8376" lon="-0.7757">
        <ele>23</ele>
        <time>2014-09-28T08:24:30.791Z</time>
      </trkpt>
      <trkpt lat="45.83761" lon="-0.7757">
        <ele>23</ele>
        <time>2014-09-28T08:24:31.790Z</time>
      </trkpt>
      <trkpt lat="45.8377" lon="-0.77569">
        <ele>23</ele>
        <time>2014-09-28T08:24:39.788Z</time>
      </trkpt>
      <trkpt lat="45.83771" lon="-0.77569">
        <ele>23</ele>
        <time>2014-09-28T08:24:40.792Z</time>
      </trkpt>
      <trkpt lat="45.83779" lon="-0.77567">
        <ele>23</ele>
        <time>2014-09-28T08:24:46.794Z</time>
      </trkpt>
      <trkpt lat="45.8378" lon="-0.77567">
        <ele>23</ele>
        <time>2014-09-28T08:24:47.796Z</time>
      </trkpt>
      <trkpt lat="45.83789" lon="-0.77566">
        <ele>23</ele>
        <time>2014-09-28T08:24:55.802Z</time>
      </trkpt>
      <trkpt lat="45.8379" lon="-0.77566">
        <ele>23</ele>
        <time>2014-09-28T08:24:56.792Z</time>
      </trkpt>
      <trkpt lat="45.83797" lon="-0.77569">
        <ele>23</ele>
        <time>2014-09-28T08:25:01.807Z</time>
      </trkpt>
      <trkpt lat="45.83799" lon="-0.77569">
        <ele>23</ele>
        <time>2014-09-28T08:25:02.794Z</time>
      </trkpt>
      <trkpt lat="45.83807" lon="-0.77571">
        <ele>23</ele>
        <time>2014-09-28T08:25:07.807Z</time>
      </trkpt>
      <trkpt lat="45.83808" lon="-0.77572">
        <ele>23</ele>
        <time>2014-09-28T08:25:08.805Z</time>
      </trkpt>
      <trkpt lat="45.83815" lon="-0.77576">
        <ele>23</ele>
        <time>2014-09-28T08:25:15.825Z</time>
      </trkpt>
      <trkpt lat="45.83816" lon="-0.77578">
        <ele>23</ele>
        <time>2014-09-28T08:25:16.823Z</time>
      </trkpt>
      <trkpt lat="45.83823" lon="-0.77584">
        <ele>23</ele>
        <time>2014-09-28T08:25:25.827Z</time>
      </trkpt>
      <trkpt lat="45.83823" lon="-0.77585">
        <ele>23</ele>
        <time>2014-09-28T08:25:26.840Z</time>
      </trkpt>
      <trkpt lat="45.8383" lon="-0.77592">
        <ele>23</ele>
        <time>2014-09-28T08:25:33.863Z</time>
      </trkpt>
      <trkpt lat="45.83831" lon="-0.77593">
        <ele>23</ele>
        <time>2014-09-28T08:25:34.804Z</time>
      </trkpt>
      <trkpt lat="45.83837" lon="-0.77601">
        <ele>23</ele>
        <time>2014-09-28T08:25:42.806Z</time>
      </trkpt>
      <trkpt lat="45.83838" lon="-0.77602">
        <ele>23</ele>
        <time>2014-09-28T08:25:43.807Z</time>
      </trkpt>
      <trkpt lat="45.83843" lon="-0.77612">
        <ele>23</ele>
        <time>2014-09-28T08:25:48.806Z</time>
      </trkpt>
      <trkpt lat="45.83844" lon="-0.77614">
        <ele>23</ele>
        <time>2014-09-28T08:25:49.809Z</time>
      </trkpt>
      <trkpt lat="45.8385" lon="-0.77623">
        <ele>23</ele>
        <time>2014-09-28T08:25:54.806Z</time>
      </trkpt>
      <trkpt lat="45.83851" lon="-0.77624">
        <ele>23</ele>
        <time>2014-09-28T08:25:55.807Z</time>
      </trkpt>
      <trkpt lat="45.83856" lon="-0.77634">
        <ele>23</ele>
        <time>2014-09-28T08:26:01.895Z</time>
      </trkpt>
      <trkpt lat="45.83857" lon="-0.77635">
        <ele>23</ele>
        <time>2014-09-28T08:26:02.806Z</time>
      </trkpt>
      <trkpt lat="45.83862" lon="-0.77645">
        <ele>23</ele>
        <time>2014-09-28T08:26:11.794Z</time>
      </trkpt>
      <trkpt lat="45.83862" lon="-0.77646">
        <ele>23</ele>
        <time>2014-09-28T08:26:12.802Z</time>
      </trkpt>
      <trkpt lat="45.83867" lon="-0.77657">
        <ele>23</ele>
        <time>2014-09-28T08:26:19.809Z</time>
      </trkpt>
      <trkpt lat="45.83868" lon="-0.77659">
        <ele>22</ele>
        <time>2014-09-28T08:26:20.797Z</time>
      </trkpt>
      <trkpt lat="45.83873" lon="-0.7767">
        <ele>23</ele>
        <time>2014-09-28T08:26:27.799Z</time>
      </trkpt>
      <trkpt lat="45.83874" lon="-0.77671">
        <ele>23</ele>
        <time>2014-09-28T08:26:28.797Z</time>
      </trkpt>
      <trkpt lat="45.83878" lon="-0.7768">
        <ele>23</ele>
        <time>2014-09-28T08:26:35.799Z</time>
      </trkpt>
      <trkpt lat="45.83879" lon="-0.77682">
        <ele>23</ele>
        <time>2014-09-28T08:26:36.799Z</time>
      </trkpt>
      <trkpt lat="45.83882" lon="-0.77692">
        <ele>23</ele>
        <time>2014-09-28T08:26:42.799Z</time>
      </trkpt>
      <trkpt lat="45.83883" lon="-0.77694">
        <ele>23</ele>
        <time>2014-09-28T08:26:43.799Z</time>
      </trkpt>
      <trkpt lat="45.83888" lon="-0.77703">
        <ele>23</ele>
        <time>2014-09-28T08:26:50.808Z</time>
      </trkpt>
      <trkpt lat="45.83889" lon="-0.77704">
        <ele>23</ele>
        <time>2014-09-28T08:26:51.819Z</time>
      </trkpt>
      <trkpt lat="45.83892" lon="-0.77715">
        <ele>23</ele>
        <time>2014-09-28T08:26:58.805Z</time>
      </trkpt>
      <trkpt lat="45.83892" lon="-0.77717">
        <ele>23</ele>
        <time>2014-09-28T08:26:59.796Z</time>
      </trkpt>
      <trkpt lat="45.83895" lon="-0.77728">
        <ele>23</ele>
        <time>2014-09-28T08:27:06.790Z</time>
      </trkpt>
      <trkpt lat="45.83896" lon="-0.7773">
        <ele>23</ele>
        <time>2014-09-28T08:27:07.789Z</time>
      </trkpt>
      <trkpt lat="45.83896" lon="-0.77741">
        <ele>23</ele>
        <time>2014-09-28T08:27:14.786Z</time>
      </trkpt>
      <trkpt lat="45.83896" lon="-0.77743">
        <ele>23</ele>
        <time>2014-09-28T08:27:15.851Z</time>
      </trkpt>
      <trkpt lat="45.83897" lon="-0.77755">
        <ele>23</ele>
        <time>2014-09-28T08:27:24.791Z</time>
      </trkpt>
      <trkpt lat="45.83897" lon="-0.77756">
        <ele>23</ele>
        <time>2014-09-28T08:27:25.794Z</time>
      </trkpt>
      <trkpt lat="45.83893" lon="-0.77767">
        <ele>24</ele>
        <time>2014-09-28T08:27:36.816Z</time>
      </trkpt>
      <trkpt lat="45.83892" lon="-0.77768">
        <ele>24</ele>
        <time>2014-09-28T08:27:37.797Z</time>
      </trkpt>
      <trkpt lat="45.8389" lon="-0.7778">
        <ele>24</ele>
        <time>2014-09-28T08:27:45.791Z</time>
      </trkpt>
      <trkpt lat="45.83889" lon="-0.77781">
        <ele>24</ele>
        <time>2014-09-28T08:27:46.794Z</time>
      </trkpt>
      <trkpt lat="45.83887" lon="-0.77793">
        <ele>24</ele>
        <time>2014-09-28T08:27:54.789Z</time>
      </trkpt>
      <trkpt lat="45.83886" lon="-0.77795">
        <ele>24</ele>
        <time>2014-09-28T08:27:55.783Z</time>
      </trkpt>
      <trkpt lat="45.83884" lon="-0.77806">
        <ele>24</ele>
        <time>2014-09-28T08:28:03.780Z</time>
      </trkpt>
      <trkpt lat="45.83883" lon="-0.77807">
        <ele>24</ele>
        <time>2014-09-28T08:28:04.781Z</time>
      </trkpt>
      <trkpt lat="45.83877" lon="-0.77814">
        <ele>24</ele>
        <time>2014-09-28T08:28:14.775Z</time>
      </trkpt>
      <trkpt lat="45.83876" lon="-0.77815">
        <ele>24</ele>
        <time>2014-09-28T08:28:15.782Z</time>
      </trkpt>
      <trkpt lat="45.8387" lon="-0.77823">
        <ele>24</ele>
        <time>2014-09-28T08:28:23.776Z</time>
      </trkpt>
      <trkpt lat="45.83869" lon="-0.77824">
        <ele>24</ele>
        <time>2014-09-28T08:28:24.780Z</time>
      </trkpt>
      <trkpt lat="45.83867" lon="-0.77836">
        <ele>23</ele>
        <time>2014-09-28T08:28:32.773Z</time>
      </trkpt>
      <trkpt lat="45.83867" lon="-0.77837">
        <ele>23</ele>
        <time>2014-09-28T08:28:33.777Z</time>
      </trkpt>
      <trkpt lat="45.83871" lon="-0.77848">
        <ele>23</ele>
        <time>2014-09-28T08:28:40.784Z</time>
      </trkpt>
      <trkpt lat="45.83872" lon="-0.7785">
        <ele>23</ele>
        <time>2014-09-28T08:28:41.783Z</time>
      </trkpt>
      <trkpt lat="45.83874" lon="-0.77862">
        <ele>23</ele>
        <time>2014-09-28T08:28:49.767Z</time>
      </trkpt>
      <trkpt lat="45.83875" lon="-0.77863">
        <ele>23</ele>
        <time>2014-09-28T08:28:50.770Z</time>
      </trkpt>
      <trkpt lat="45.83876" lon="-0.77875">
        <ele>23</ele>
        <time>2014-09-28T08:29:01.780Z</time>
      </trkpt>
      <trkpt lat="45.83876" lon="-0.77877">
        <ele>23</ele>
        <time>2014-09-28T08:29:02.775Z</time>
      </trkpt>
      <trkpt lat="45.83872" lon="-0.77887">
        <ele>23</ele>
        <time>2014-09-28T08:29:13.780Z</time>
      </trkpt>
      <trkpt lat="45.83871" lon="-0.77888">
        <ele>23</ele>
        <time>2014-09-28T08:29:14.779Z</time>
      </trkpt>
      <trkpt lat="45.83864" lon="-0.77894">
        <ele>23</ele>
        <time>2014-09-28T08:29:26.798Z</time>
      </trkpt>
      <trkpt lat="45.83862" lon="-0.77894">
        <ele>23</ele>
        <time>2014-09-28T08:29:27.794Z</time>
      </trkpt>
      <trkpt lat="45.83854" lon="-0.77896">
        <ele>23</ele>
        <time>2014-09-28T08:29:35.784Z</time>
      </trkpt>
      <trkpt lat="45.83853" lon="-0.77896">
        <ele>23</ele>
        <time>2014-09-28T08:29:36.792Z</time>
      </trkpt>
      <trkpt lat="45.83844" lon="-0.779">
        <ele>22</ele>
        <time>2014-09-28T08:29:41.796Z</time>
      </trkpt>
      <trkpt lat="45.83843" lon="-0.77901">
        <ele>22</ele>
        <time>2014-09-28T08:29:42.790Z</time>
      </trkpt>
      <trkpt lat="45.83835" lon="-0.77906">
        <ele>22</ele>
        <time>2014-09-28T08:29:51.786Z</time>
      </trkpt>
      <trkpt lat="45.83834" lon="-0.77906">
        <ele>22</ele>
        <time>2014-09-28T08:29:52.790Z</time>
      </trkpt>
      <trkpt lat="45.83826" lon="-0.779">
        <ele>22</ele>
        <time>2014-09-28T08:29:59.805Z</time>
      </trkpt>
      <trkpt lat="45.83825" lon="-0.779">
        <ele>22</ele>
        <time>2014-09-28T08:30:00.796Z</time>
      </trkpt>
      <trkpt lat="45.83817" lon="-0.77901">
        <ele>22</ele>
        <time>2014-09-28T08:30:05.794Z</time>
      </trkpt>
      <trkpt lat="45.83815" lon="-0.77901">
        <ele>22</ele>
        <time>2014-09-28T08:30:06.793Z</time>
      </trkpt>
      <trkpt lat="45.83808" lon="-0.77903">
        <ele>22</ele>
        <time>2014-09-28T08:30:11.801Z</time>
      </trkpt>
      <trkpt lat="45.83806" lon="-0.77903">
        <ele>22</ele>
        <time>2014-09-28T08:30:12.797Z</time>
      </trkpt>
      <trkpt lat="45.83798" lon="-0.77899">
        <ele>22</ele>
        <time>2014-09-28T08:30:23.801Z</time>
      </trkpt>
      <trkpt lat="45.83797" lon="-0.77899">
        <ele>22</ele>
        <time>2014-09-28T08:30:24.797Z</time>
      </trkpt>
      <trkpt lat="45.83788" lon="-0.779">
        <ele>22</ele>
        <time>2014-09-28T08:30:30.785Z</time>
      </trkpt>
      <trkpt lat="45.83787" lon="-0.77901">
        <ele>22</ele>
        <time>2014-09-28T08:30:31.787Z</time>
      </trkpt>
      <trkpt lat="45.8378" lon="-0.77906">
        <ele>22</ele>
        <time>2014-09-28T08:30:36.785Z</time>
      </trkpt>
      <trkpt lat="45.83779" lon="-0.77907">
        <ele>22</ele>
        <time>2014-09-28T08:30:37.780Z</time>
      </trkpt>
      <trkpt lat="45.83772" lon="-0.77913">
        <ele>21</ele>
        <time>2014-09-28T08:30:43.785Z</time>
      </trkpt>
      <trkpt lat="45.8377" lon="-0.77914">
        <ele>21</ele>
        <time>2014-09-28T08:30:44.777Z</time>
      </trkpt>
      <trkpt lat="45.83762" lon="-0.77919">
        <ele>20</ele>
        <time>2014-09-28T08:30:50.779Z</time>
      </trkpt>
      <trkpt lat="45.83761" lon="-0.7792">
        <ele>20</ele>
        <time>2014-09-28T08:30:51.780Z</time>
      </trkpt>
      <trkpt lat="45.83756" lon="-0.77929">
        <ele>20</ele>
        <time>2014-09-28T08:30:58.777Z</time>
      </trkpt>
      <trkpt lat="45.83755" lon="-0.7793">
        <ele>20</ele>
        <time>2014-09-28T08:30:59.779Z</time>
      </trkpt>
      <trkpt lat="45.83746" lon="-0.77931">
        <ele>19</ele>
        <time>2014-09-28T08:31:11.793Z</time>
      </trkpt>
      <trkpt lat="45.83745" lon="-0.77931">
        <ele>19</ele>
        <time>2014-09-28T08:31:12.794Z</time>
      </trkpt>
      <trkpt lat="45.83737" lon="-0.77928">
        <ele>19</ele>
        <time>2014-09-28T08:31:20.799Z</time>
      </trkpt>
      <trkpt lat="45.83735" lon="-0.77928">
        <ele>19</ele>
        <time>2014-09-28T08:31:21.851Z</time>
      </trkpt>
      <trkpt lat="45.83727" lon="-0.77926">
        <ele>19</ele>
        <time>2014-09-28T08:31:29.854Z</time>
      </trkpt>
      <trkpt lat="45.83726" lon="-0.77926">
        <ele>19</ele>
        <time>2014-09-28T08:31:30.855Z</time>
      </trkpt>
      <trkpt lat="45.83717" lon="-0.77927">
        <ele>19</ele>
        <time>2014-09-28T08:31:38.853Z</time>
      </trkpt>
      <trkpt lat="45.83716" lon="-0.77928">
        <ele>19</ele>
        <time>2014-09-28T08:31:39.855Z</time>
      </trkpt>
      <trkpt lat="45.83714" lon="-0.77938">
        <ele>19</ele>
        <time>2014-09-28T08:31:45.855Z</time>
      </trkpt>
      <trkpt lat="45.83713" lon="-0.77941">
        <ele>19</ele>
        <time>2014-09-28T08:31:46.854Z</time>
      </trkpt>
      <trkpt lat="45.83714" lon="-0.77952">
        <ele>18</ele>
        <time>2014-09-28T08:31:59.007Z</time>
      </trkpt>
      <trkpt lat="45.83715" lon="-0.77953">
        <ele>18</ele>
        <time>2014-09-28T08:31:59.794Z</time>
      </trkpt>
      <trkpt lat="45.83717" lon="-0.77965">
        <ele>18</ele>
        <time>2014-09-28T08:32:04.801Z</time>
      </trkpt>
      <trkpt lat="45.83718" lon="-0.77967">
        <ele>18</ele>
        <time>2014-09-28T08:32:05.802Z</time>
      </trkpt>
      <trkpt lat="45.83719" lon="-0.77978">
        <ele>18</ele>
        <time>2014-09-28T08:32:14.791Z</time>
      </trkpt>
      <trkpt lat="45.83719" lon="-0.7798">
        <ele>18</ele>
        <time>2014-09-28T08:32:15.783Z</time>
      </trkpt>
      <trkpt lat="45.83721" lon="-0.77991">
        <ele>17</ele>
        <time>2014-09-28T08:32:24.069Z</time>
      </trkpt>
      <trkpt lat="45.83722" lon="-0.77993">
        <ele>17</ele>
        <time>2014-09-28T08:32:24.784Z</time>
      </trkpt>
      <trkpt lat="45.83726" lon="-0.78003">
        <ele>15</ele>
        <time>2014-09-28T08:32:30.784Z</time>
      </trkpt>
      <trkpt lat="45.83727" lon="-0.78004">
        <ele>15</ele>
        <time>2014-09-28T08:32:31.783Z</time>
      </trkpt>
      <trkpt lat="45.83731" lon="-0.78016">
        <ele>15</ele>
        <time>2014-09-28T08:32:37.789Z</time>
      </trkpt>
      <trkpt lat="45.83731" lon="-0.78018">
        <ele>15</ele>
        <time>2014-09-28T08:32:38.787Z</time>
      </trkpt>
      <trkpt lat="45.83735" lon="-0.78029">
        <ele>14</ele>
        <time>2014-09-28T08:32:44.216Z</time>
      </trkpt>
      <trkpt lat="45.83735" lon="-0.7803">
        <ele>14</ele>
        <time>2014-09-28T08:32:44.794Z</time>
      </trkpt>
      <trkpt lat="45.83741" lon="-0.78038">
        <ele>14</ele>
        <time>2014-09-28T08:32:51.800Z</time>
      </trkpt>
      <trkpt lat="45.83742" lon="-0.7804">
        <ele>14</ele>
        <time>2014-09-28T08:32:52.804Z</time>
      </trkpt>
      <trkpt lat="45.83746" lon="-0.7805">
        <ele>14</ele>
        <time>2014-09-28T08:32:59.023Z</time>
      </trkpt>
      <trkpt lat="45.83746" lon="-0.78052">
        <ele>14</ele>
        <time>2014-09-28T08:32:59.806Z</time>
      </trkpt>
      <trkpt lat="45.83749" lon="-0.78063">
        <ele>13</ele>
        <time>2014-09-28T08:33:07.810Z</time>
      </trkpt>
      <trkpt lat="45.83749" lon="-0.78065">
        <ele>13</ele>
        <time>2014-09-28T08:33:08.808Z</time>
      </trkpt>
      <trkpt lat="45.83751" lon="-0.78076">
        <ele>13</ele>
        <time>2014-09-28T08:33:14.807Z</time>
      </trkpt>
      <trkpt lat="45.83752" lon="-0.78077">
        <ele>13</ele>
        <time>2014-09-28T08:33:15.806Z</time>
      </trkpt>
      <trkpt lat="45.83756" lon="-0.78086">
        <ele>13</ele>
        <time>2014-09-28T08:33:21.785Z</time>
      </trkpt>
      <trkpt lat="45.83757" lon="-0.78088">
        <ele>13</ele>
        <time>2014-09-28T08:33:22.786Z</time>
      </trkpt>
      <trkpt lat="45.83761" lon="-0.78098">
        <ele>13</ele>
        <time>2014-09-28T08:33:29.784Z</time>
      </trkpt>
      <trkpt lat="45.83762" lon="-0.78099">
        <ele>13</ele>
        <time>2014-09-28T08:33:30.785Z</time>
      </trkpt>
      <trkpt lat="45.8377" lon="-0.78103">
        <ele>14</ele>
        <time>2014-09-28T08:33:35.790Z</time>
      </trkpt>
      <trkpt lat="45.83771" lon="-0.78103">
        <ele>14</ele>
        <time>2014-09-28T08:33:36.794Z</time>
      </trkpt>
      <trkpt lat="45.83778" lon="-0.78098">
        <ele>14</ele>
        <time>2014-09-28T08:33:44.327Z</time>
      </trkpt>
      <trkpt lat="45.83779" lon="-0.78097">
        <ele>14</ele>
        <time>2014-09-28T08:33:44.776Z</time>
      </trkpt>
      <trkpt lat="45.83788" lon="-0.78093">
        <ele>14</ele>
        <time>2014-09-28T08:33:59.423Z</time>
      </trkpt>
      <trkpt lat="45.83789" lon="-0.78092">
        <ele>14</ele>
        <time>2014-09-28T08:33:59.824Z</time>
      </trkpt>
      <trkpt lat="45.83796" lon="-0.78086">
        <ele>15</ele>
        <time>2014-09-28T08:34:12.798Z</time>
      </trkpt>
      <trkpt lat="45.83796" lon="-0.78085">
        <ele>15</ele>
        <time>2014-09-28T08:34:13.802Z</time>
      </trkpt>
      <trkpt lat="45.83802" lon="-0.78075">
        <ele>17</ele>
        <time>2014-09-28T08:34:47.829Z</time>
      </trkpt>
      <trkpt lat="45.83803" lon="-0.78075">
        <ele>17</ele>
        <time>2014-09-28T08:34:48.814Z</time>
      </trkpt>
      <trkpt lat="45.8381" lon="-0.78071">
        <ele>17</ele>
        <time>2014-09-28T08:34:57.802Z</time>
      </trkpt>
      <trkpt lat="45.83812" lon="-0.78071">
        <ele>18</ele>
        <time>2014-09-28T08:34:58.797Z</time>
      </trkpt>
      <trkpt lat="45.8382" lon="-0.7807">
        <ele>18</ele>
        <time>2014-09-28T08:35:08.788Z</time>
      </trkpt>
      <trkpt lat="45.83822" lon="-0.7807">
        <ele>18</ele>
        <time>2014-09-28T08:35:09.780Z</time>
      </trkpt>
      <trkpt lat="45.83829" lon="-0.78068">
        <ele>18</ele>
        <time>2014-09-28T08:35:18.796Z</time>
      </trkpt>
      <trkpt lat="45.8383" lon="-0.78068">
        <ele>18</ele>
        <time>2014-09-28T08:35:19.788Z</time>
      </trkpt>
      <trkpt lat="45.83839" lon="-0.78068">
        <ele>20</ele>
        <time>2014-09-28T08:35:27.788Z</time>
      </trkpt>
      <trkpt lat="45.8384" lon="-0.78068">
        <ele>20</ele>
        <time>2014-09-28T08:35:28.785Z</time>
      </trkpt>
      <trkpt lat="45.83846" lon="-0.78059">
        <ele>20</ele>
        <time>2014-09-28T08:35:50.830Z</time>
      </trkpt>
      <trkpt lat="45.83846" lon="-0.78059">
        <ele>20</ele>
        <time>2014-09-28T08:35:51.801Z</time>
      </trkpt>
      <trkpt lat="45.8385" lon="-0.78047">
        <ele>21</ele>
        <time>2014-09-28T08:36:32.774Z</time>
      </trkpt>
      <trkpt lat="45.8385" lon="-0.78047">
        <ele>21</ele>
        <time>2014-09-28T08:36:33.773Z</time>
      </trkpt>
      <trkpt lat="45.8385" lon="-0.78035">
        <ele>21</ele>
        <time>2014-09-28T08:42:10.782Z</time>
      </trkpt>
      <trkpt lat="45.8385" lon="-0.78034">
        <ele>21</ele>
        <time>2014-09-28T08:42:11.781Z</time>
      </trkpt>
      <trkpt lat="45.83844" lon="-0.78026">
        <ele>21</ele>
        <time>2014-09-28T08:42:15.800Z</time>
      </trkpt>
      <trkpt lat="45.83843" lon="-0.78024">
        <ele>21</ele>
        <time>2014-09-28T08:42:16.802Z</time>
      </trkpt>
      <trkpt lat="45.83842" lon="-0.78012">
        <ele>21</ele>
        <time>2014-09-28T08:42:24.807Z</time>
      </trkpt>
      <trkpt lat="45.83842" lon="-0.78011">
        <ele>21</ele>
        <time>2014-09-28T08:42:25.813Z</time>
      </trkpt>
      <trkpt lat="45.83849" lon="-0.78004">
        <ele>21</ele>
        <time>2014-09-28T08:42:42.828Z</time>
      </trkpt>
      <trkpt lat="45.83851" lon="-0.78005">
        <ele>21</ele>
        <time>2014-09-28T08:42:43.798Z</time>
      </trkpt>
      <trkpt lat="45.83857" lon="-0.78013">
        <ele>21</ele>
        <time>2014-09-28T08:42:50.794Z</time>
      </trkpt>
      <trkpt lat="45.83858" lon="-0.78013">
        <ele>21</ele>
        <time>2014-09-28T08:42:51.805Z</time>
      </trkpt>
      <trkpt lat="45.83865" lon="-0.7802">
        <ele>21</ele>
        <time>2014-09-28T08:42:59.789Z</time>
      </trkpt>
      <trkpt lat="45.83866" lon="-0.78021">
        <ele>21</ele>
        <time>2014-09-28T08:43:00.929Z</time>
      </trkpt>
      <trkpt lat="45.83874" lon="-0.78024">
        <ele>21</ele>
        <time>2014-09-28T08:43:05.807Z</time>
      </trkpt>
      <trkpt lat="45.83876" lon="-0.78024">
        <ele>21</ele>
        <time>2014-09-28T08:43:06.791Z</time>
      </trkpt>
      <trkpt lat="45.83884" lon="-0.78028">
        <ele>21</ele>
        <time>2014-09-28T08:43:14.574Z</time>
      </trkpt>
      <trkpt lat="45.83885" lon="-0.78029">
        <ele>21</ele>
        <time>2014-09-28T08:43:14.788Z</time>
      </trkpt>
      <trkpt lat="45.83893" lon="-0.78032">
        <ele>21</ele>
        <time>2014-09-28T08:43:22.834Z</time>
      </trkpt>
      <trkpt lat="45.83894" lon="-0.78033">
        <ele>21</ele>
        <time>2014-09-28T08:43:23.840Z</time>
      </trkpt>
      <trkpt lat="45.83901" lon="-0.78038">
        <ele>21</ele>
        <time>2014-09-28T08:43:29.677Z</time>
      </trkpt>
      <trkpt lat="45.83903" lon="-0.78038">
        <ele>21</ele>
        <time>2014-09-28T08:43:29.804Z</time>
      </trkpt>
      <trkpt lat="45.8391" lon="-0.7804">
        <ele>21</ele>
        <time>2014-09-28T08:43:35.813Z</time>
      </trkpt>
      <trkpt lat="45.83912" lon="-0.7804">
        <ele>21</ele>
        <time>2014-09-28T08:43:36.836Z</time>
      </trkpt>
      <trkpt lat="45.8392" lon="-0.78042">
        <ele>22</ele>
        <time>2014-09-28T08:43:44.778Z</time>
      </trkpt>
      <trkpt lat="45.83921" lon="-0.78042">
        <ele>22</ele>
        <time>2014-09-28T08:43:44.870Z</time>
      </trkpt>
      <trkpt lat="45.83928" lon="-0.78049">
        <ele>22</ele>
        <time>2014-09-28T08:43:52.816Z</time>
      </trkpt>
      <trkpt lat="45.83929" lon="-0.7805">
        <ele>22</ele>
        <time>2014-09-28T08:43:53.803Z</time>
      </trkpt>
      <trkpt lat="45.83937" lon="-0.78053">
        <ele>22</ele>
        <time>2014-09-28T08:43:59.821Z</time>
      </trkpt>
      <trkpt lat="45.83938" lon="-0.78054">
        <ele>22</ele>
        <time>2014-09-28T08:44:00.795Z</time>
      </trkpt>
      <trkpt lat="45.83945" lon="-0.7806">
        <ele>22</ele>
        <time>2014-09-28T08:44:06.805Z</time>
      </trkpt>
      <trkpt lat="45.83946" lon="-0.78061">
        <ele>22</ele>
        <time>2014-09-28T08:44:07.859Z</time>
      </trkpt>
      <trkpt lat="45.83953" lon="-0.78069">
        <ele>22</ele>
        <time>2014-09-28T08:44:15.815Z</time>
      </trkpt>
      <trkpt lat="45.83954" lon="-0.7807">
        <ele>22</ele>
        <time>2014-09-28T08:44:16.814Z</time>
      </trkpt>
      <trkpt lat="45.83961" lon="-0.78074">
        <ele>22</ele>
        <time>2014-09-28T08:44:22.825Z</time>
      </trkpt>
      <trkpt lat="45.83962" lon="-0.78075">
        <ele>22</ele>
        <time>2014-09-28T08:44:23.841Z</time>
      </trkpt>
      <trkpt lat="45.8397" lon="-0.78075">
        <ele>22</ele>
        <time>2014-09-28T08:44:30.801Z</time>
      </trkpt>
      <trkpt lat="45.83972" lon="-0.78075">
        <ele>22</ele>
        <time>2014-09-28T08:44:31.803Z</time>
      </trkpt>
      <trkpt lat="45.8398" lon="-0.78076">
        <ele>22</ele>
        <time>2014-09-28T08:44:36.811Z</time>
      </trkpt>
      <trkpt lat="45.83982" lon="-0.78076">
        <ele>22</ele>
        <time>2014-09-28T08:44:37.799Z</time>
      </trkpt>
      <trkpt lat="45.83989" lon="-0.78081">
        <ele>23</ele>
        <time>2014-09-28T08:44:45.050Z</time>
      </trkpt>
      <trkpt lat="45.8399" lon="-0.78082">
        <ele>23</ele>
        <time>2014-09-28T08:44:45.809Z</time>
      </trkpt>
      <trkpt lat="45.83998" lon="-0.78085">
        <ele>23</ele>
        <time>2014-09-28T08:44:54.810Z</time>
      </trkpt>
      <trkpt lat="45.83999" lon="-0.78087">
        <ele>23</ele>
        <time>2014-09-28T08:44:55.812Z</time>
      </trkpt>
      <trkpt lat="45.84006" lon="-0.78091">
        <ele>23</ele>
        <time>2014-09-28T08:45:00.794Z</time>
      </trkpt>
      <trkpt lat="45.84008" lon="-0.78091">
        <ele>23</ele>
        <time>2014-09-28T08:45:01.812Z</time>
      </trkpt>
      <trkpt lat="45.84016" lon="-0.78096">
        <ele>23</ele>
        <time>2014-09-28T08:45:09.820Z</time>
      </trkpt>
      <trkpt lat="45.84017" lon="-0.78097">
        <ele>23</ele>
        <time>2014-09-28T08:45:10.822Z</time>
      </trkpt>
      <trkpt lat="45.84025" lon="-0.78099">
        <ele>23</ele>
        <time>2014-09-28T08:45:16.813Z</time>
      </trkpt>
      <trkpt lat="45.84026" lon="-0.781">
        <ele>23</ele>
        <time>2014-09-28T08:45:17.822Z</time>
      </trkpt>
      <trkpt lat="45.84034" lon="-0.78105">
        <ele>23</ele>
        <time>2014-09-28T08:45:24.811Z</time>
      </trkpt>
      <trkpt lat="45.84035" lon="-0.78106">
        <ele>23</ele>
        <time>2014-09-28T08:45:25.810Z</time>
      </trkpt>
      <trkpt lat="45.84042" lon="-0.78114">
        <ele>23</ele>
        <time>2014-09-28T08:45:34.302Z</time>
      </trkpt>
      <trkpt lat="45.84042" lon="-0.78115">
        <ele>23</ele>
        <time>2014-09-28T08:45:34.800Z</time>
      </trkpt>
      <trkpt lat="45.84047" lon="-0.78124">
        <ele>23</ele>
        <time>2014-09-28T08:45:40.824Z</time>
      </trkpt>
      <trkpt lat="45.84048" lon="-0.78126">
        <ele>23</ele>
        <time>2014-09-28T08:45:41.874Z</time>
      </trkpt>
      <trkpt lat="45.84053" lon="-0.78134">
        <ele>23</ele>
        <time>2014-09-28T08:45:46.820Z</time>
      </trkpt>
      <trkpt lat="45.84055" lon="-0.78136">
        <ele>23</ele>
        <time>2014-09-28T08:45:47.819Z</time>
      </trkpt>
      <trkpt lat="45.84061" lon="-0.78142">
        <ele>23</ele>
        <time>2014-09-28T08:45:54.824Z</time>
      </trkpt>
      <trkpt lat="45.84062" lon="-0.78144">
        <ele>23</ele>
        <time>2014-09-28T08:45:55.960Z</time>
      </trkpt>
      <trkpt lat="45.84068" lon="-0.78152">
        <ele>23</ele>
        <time>2014-09-28T08:46:02.874Z</time>
      </trkpt>
      <trkpt lat="45.84069" lon="-0.78153">
        <ele>23</ele>
        <time>2014-09-28T08:46:03.816Z</time>
      </trkpt>
      <trkpt lat="45.84076" lon="-0.78157">
        <ele>23</ele>
        <time>2014-09-28T08:46:10.804Z</time>
      </trkpt>
      <trkpt lat="45.84078" lon="-0.78159">
        <ele>23</ele>
        <time>2014-09-28T08:46:11.822Z</time>
      </trkpt>
      <trkpt lat="45.84086" lon="-0.78164">
        <ele>23</ele>
        <time>2014-09-28T08:46:18.804Z</time>
      </trkpt>
      <trkpt lat="45.84087" lon="-0.78165">
        <ele>23</ele>
        <time>2014-09-28T08:46:19.820Z</time>
      </trkpt>
      <trkpt lat="45.84094" lon="-0.78172">
        <ele>22</ele>
        <time>2014-09-28T08:46:26.823Z</time>
      </trkpt>
      <trkpt lat="45.84095" lon="-0.78173">
        <ele>22</ele>
        <time>2014-09-28T08:46:27.804Z</time>
      </trkpt>
      <trkpt lat="45.84102" lon="-0.78179">
        <ele>22</ele>
        <time>2014-09-28T08:46:35.855Z</time>
      </trkpt>
      <trkpt lat="45.84103" lon="-0.7818">
        <ele>22</ele>
        <time>2014-09-28T08:46:36.834Z</time>
      </trkpt>
      <trkpt lat="45.8411" lon="-0.78185">
        <ele>21</ele>
        <time>2014-09-28T08:46:41.825Z</time>
      </trkpt>
      <trkpt lat="45.84111" lon="-0.78186">
        <ele>21</ele>
        <time>2014-09-28T08:46:42.821Z</time>
      </trkpt>
      <trkpt lat="45.84119" lon="-0.78192">
        <ele>21</ele>
        <time>2014-09-28T08:46:47.827Z</time>
      </trkpt>
      <trkpt lat="45.84121" lon="-0.78192">
        <ele>21</ele>
        <time>2014-09-28T08:46:48.832Z</time>
      </trkpt>
      <trkpt lat="45.84129" lon="-0.78197">
        <ele>21</ele>
        <time>2014-09-28T08:46:54.328Z</time>
      </trkpt>
      <trkpt lat="45.84129" lon="-0.78198">
        <ele>21</ele>
        <time>2014-09-28T08:46:54.808Z</time>
      </trkpt>
      <trkpt lat="45.84136" lon="-0.78204">
        <ele>21</ele>
        <time>2014-09-28T08:47:00.956Z</time>
      </trkpt>
      <trkpt lat="45.84137" lon="-0.78205">
        <ele>21</ele>
        <time>2014-09-28T08:47:01.807Z</time>
      </trkpt>
      <trkpt lat="45.84145" lon="-0.78208">
        <ele>21</ele>
        <time>2014-09-28T08:47:09.810Z</time>
      </trkpt>
      <trkpt lat="45.84147" lon="-0.78209">
        <ele>21</ele>
        <time>2014-09-28T08:47:10.812Z</time>
      </trkpt>
      <trkpt lat="45.84155" lon="-0.78212">
        <ele>21</ele>
        <time>2014-09-28T08:47:17.805Z</time>
      </trkpt>
      <trkpt lat="45.84156" lon="-0.78213">
        <ele>21</ele>
        <time>2014-09-28T08:47:18.813Z</time>
      </trkpt>
      <trkpt lat="45.84164" lon="-0.78217">
        <ele>21</ele>
        <time>2014-09-28T08:47:25.820Z</time>
      </trkpt>
      <trkpt lat="45.84165" lon="-0.78218">
        <ele>21</ele>
        <time>2014-09-28T08:47:26.819Z</time>
      </trkpt>
      <trkpt lat="45.84172" lon="-0.78224">
        <ele>20</ele>
        <time>2014-09-28T08:47:33.822Z</time>
      </trkpt>
      <trkpt lat="45.84174" lon="-0.78225">
        <ele>20</ele>
        <time>2014-09-28T08:47:34.812Z</time>
      </trkpt>
      <trkpt lat="45.84181" lon="-0.78229">
        <ele>20</ele>
        <time>2014-09-28T08:47:41.834Z</time>
      </trkpt>
      <trkpt lat="45.84182" lon="-0.7823">
        <ele>20</ele>
        <time>2014-09-28T08:47:42.836Z</time>
      </trkpt>
      <trkpt lat="45.84182" lon="-0.78242">
        <ele>20</ele>
        <time>2014-09-28T08:47:53.828Z</time>
      </trkpt>
      <trkpt lat="45.84182" lon="-0.78243">
        <ele>20</ele>
        <time>2014-09-28T08:47:54.813Z</time>
      </trkpt>
      <trkpt lat="45.84178" lon="-0.78253">
        <ele>19</ele>
        <time>2014-09-28T08:48:02.827Z</time>
      </trkpt>
      <trkpt lat="45.84178" lon="-0.78255">
        <ele>19</ele>
        <time>2014-09-28T08:48:03.819Z</time>
      </trkpt>
      <trkpt lat="45.84174" lon="-0.78265">
        <ele>19</ele>
        <time>2014-09-28T08:48:10.837Z</time>
      </trkpt>
      <trkpt lat="45.84174" lon="-0.78267">
        <ele>19</ele>
        <time>2014-09-28T08:48:11.825Z</time>
      </trkpt>
      <trkpt lat="45.84174" lon="-0.78279">
        <ele>18</ele>
        <time>2014-09-28T08:48:18.825Z</time>
      </trkpt>
      <trkpt lat="45.84174" lon="-0.78282">
        <ele>18</ele>
        <time>2014-09-28T08:48:19.823Z</time>
      </trkpt>
      <trkpt lat="45.84174" lon="-0.78294">
        <ele>18</ele>
        <time>2014-09-28T08:48:27.814Z</time>
      </trkpt>
      <trkpt lat="45.84174" lon="-0.78295">
        <ele>18</ele>
        <time>2014-09-28T08:48:28.829Z</time>
      </trkpt>
      <trkpt lat="45.84172" lon="-0.78306">
        <ele>17</ele>
        <time>2014-09-28T08:48:34.814Z</time>
      </trkpt>
      <trkpt lat="45.84171" lon="-0.78308">
        <ele>17</ele>
        <time>2014-09-28T08:48:35.821Z</time>
      </trkpt>
      <trkpt lat="45.84171" lon="-0.7832">
        <ele>16</ele>
        <time>2014-09-28T08:48:44.813Z</time>
      </trkpt>
      <trkpt lat="45.84172" lon="-0.78322">
        <ele>16</ele>
        <time>2014-09-28T08:48:45.814Z</time>
      </trkpt>
      <trkpt lat="45.84172" lon="-0.78334">
        <ele>15</ele>
        <time>2014-09-28T08:48:53.824Z</time>
      </trkpt>
      <trkpt lat="45.84172" lon="-0.78336">
        <ele>15</ele>
        <time>2014-09-28T08:48:54.824Z</time>
      </trkpt>
      <trkpt lat="45.84169" lon="-0.78347">
        <ele>14</ele>
        <time>2014-09-28T08:49:05.828Z</time>
      </trkpt>
      <trkpt lat="45.84168" lon="-0.78348">
        <ele>14</ele>
        <time>2014-09-28T08:49:06.819Z</time>
      </trkpt>
      <trkpt lat="45.84164" lon="-0.78359">
        <ele>12</ele>
        <time>2014-09-28T08:49:17.811Z</time>
      </trkpt>
      <trkpt lat="45.84165" lon="-0.7836">
        <ele>12</ele>
        <time>2014-09-28T08:49:18.822Z</time>
      </trkpt>
      <trkpt lat="45.84165" lon="-0.78373">
        <ele>12</ele>
        <time>2014-09-28T08:49:24.820Z</time>
      </trkpt>
      <trkpt lat="45.84165" lon="-0.78374">
        <ele>12</ele>
        <time>2014-09-28T08:49:25.823Z</time>
      </trkpt>
      <trkpt lat="45.84164" lon="-0.78386">
        <ele>11</ele>
        <time>2014-09-28T08:49:34.406Z</time>
      </trkpt>
      <trkpt lat="45.84163" lon="-0.78388">
        <ele>11</ele>
        <time>2014-09-28T08:49:34.816Z</time>
      </trkpt>
      <trkpt lat="45.84161" lon="-0.78399">
        <ele>10</ele>
        <time>2014-09-28T08:49:44.795Z</time>
      </trkpt>
      <trkpt lat="45.84161" lon="-0.78401">
        <ele>10</ele>
        <time>2014-09-28T08:49:45.822Z</time>
      </trkpt>
      <trkpt lat="45.84161" lon="-0.78412">
        <ele>10</ele>
        <time>2014-09-28T08:49:50.832Z</time>
      </trkpt>
      <trkpt lat="45.84161" lon="-0.78414">
        <ele>10</ele>
        <time>2014-09-28T08:49:51.931Z</time>
      </trkpt>
      <trkpt lat="45.8416" lon="-0.78426">
        <ele>9</ele>
        <time>2014-09-28T08:49:59.287Z</time>
      </trkpt>
      <trkpt lat="45.8416" lon="-0.78427">
        <ele>9</ele>
        <time>2014-09-28T08:49:59.805Z</time>
      </trkpt>
      <trkpt lat="45.84158" lon="-0.78439">
        <ele>10</ele>
        <time>2014-09-28T08:50:07.824Z</time>
      </trkpt>
      <trkpt lat="45.84158" lon="-0.7844">
        <ele>10</ele>
        <time>2014-09-28T08:50:08.827Z</time>
      </trkpt>
      <trkpt lat="45.84157" lon="-0.78452">
        <ele>10</ele>
        <time>2014-09-28T08:50:17.827Z</time>
      </trkpt>
      <trkpt lat="45.84157" lon="-0.78453">
        <ele>10</ele>
        <time>2014-09-28T08:50:18.822Z</time>
      </trkpt>
      <trkpt lat="45.84154" lon="-0.78464">
        <ele>10</ele>
        <time>2014-09-28T08:50:25.812Z</time>
      </trkpt>
      <trkpt lat="45.84153" lon="-0.78465">
        <ele>10</ele>
        <time>2014-09-28T08:50:26.822Z</time>
      </trkpt>
      <trkpt lat="45.8415" lon="-0.78477">
        <ele>10</ele>
        <time>2014-09-28T08:50:42.830Z</time>
      </trkpt>
      <trkpt lat="45.8415" lon="-0.78478">
        <ele>10</ele>
        <time>2014-09-28T08:50:43.822Z</time>
      </trkpt>
      <trkpt lat="45.84142" lon="-0.78483">
        <ele>10</ele>
        <time>2014-09-28T08:51:00.978Z</time>
      </trkpt>
      <trkpt lat="45.84141" lon="-0.78483">
        <ele>10</ele>
        <time>2014-09-28T08:51:01.817Z</time>
      </trkpt>
      <trkpt lat="45.84132" lon="-0.78483">
        <ele>10</ele>
        <time>2014-09-28T08:51:10.821Z</time>
      </trkpt>
      <trkpt lat="45.84131" lon="-0.78484">
        <ele>10</ele>
        <time>2014-09-28T08:51:11.812Z</time>
      </trkpt>
      <trkpt lat="45.84125" lon="-0.78492">
        <ele>10</ele>
        <time>2014-09-28T08:51:21.821Z</time>
      </trkpt>
      <trkpt lat="45.84124" lon="-0.78494">
        <ele>10</ele>
        <time>2014-09-28T08:51:22.807Z</time>
      </trkpt>
      <trkpt lat="45.8412" lon="-0.78505">
        <ele>12</ele>
        <time>2014-09-28T08:51:29.884Z</time>
      </trkpt>
      <trkpt lat="45.84119" lon="-0.78506">
        <ele>12</ele>
        <time>2014-09-28T08:51:30.821Z</time>
      </trkpt>
      <trkpt lat="45.84112" lon="-0.78513">
        <ele>12</ele>
        <time>2014-09-28T08:51:39.416Z</time>
      </trkpt>
      <trkpt lat="45.84111" lon="-0.78514">
        <ele>12</ele>
        <time>2014-09-28T08:51:39.834Z</time>
      </trkpt>
      <trkpt lat="45.84112" lon="-0.78525">
        <ele>12</ele>
        <time>2014-09-28T08:51:49.047Z</time>
      </trkpt>
      <trkpt lat="45.84112" lon="-0.78527">
        <ele>12</ele>
        <time>2014-09-28T08:51:49.823Z</time>
      </trkpt>
      <trkpt lat="45.84118" lon="-0.78536">
        <ele>12</ele>
        <time>2014-09-28T08:51:56.817Z</time>
      </trkpt>
      <trkpt lat="45.84119" lon="-0.78536">
        <ele>12</ele>
        <time>2014-09-28T08:51:57.826Z</time>
      </trkpt>
      <trkpt lat="45.84123" lon="-0.78547">
        <ele>12</ele>
        <time>2014-09-28T08:52:09.269Z</time>
      </trkpt>
      <trkpt lat="45.84123" lon="-0.78548">
        <ele>12</ele>
        <time>2014-09-28T08:52:09.832Z</time>
      </trkpt>
      <trkpt lat="45.84123" lon="-0.7856">
        <ele>12</ele>
        <time>2014-09-28T08:52:20.827Z</time>
      </trkpt>
      <trkpt lat="45.84122" lon="-0.78562">
        <ele>12</ele>
        <time>2014-09-28T08:52:21.810Z</time>
      </trkpt>
      <trkpt lat="45.84121" lon="-0.78573">
        <ele>13</ele>
        <time>2014-09-28T08:52:30.103Z</time>
      </trkpt>
      <trkpt lat="45.8412" lon="-0.78575">
        <ele>13</ele>
        <time>2014-09-28T08:52:30.799Z</time>
      </trkpt>
      <trkpt lat="45.84113" lon="-0.78583">
        <ele>13</ele>
        <time>2014-09-28T08:52:40.819Z</time>
      </trkpt>
      <trkpt lat="45.84112" lon="-0.78584">
        <ele>13</ele>
        <time>2014-09-28T08:52:41.845Z</time>
      </trkpt>
      <trkpt lat="45.84105" lon="-0.78589">
        <ele>14</ele>
        <time>2014-09-28T08:52:48.998Z</time>
      </trkpt>
      <trkpt lat="45.84104" lon="-0.7859">
        <ele>14</ele>
        <time>2014-09-28T08:52:49.875Z</time>
      </trkpt>
      <trkpt lat="45.84096" lon="-0.78597">
        <ele>14</ele>
        <time>2014-09-28T08:52:57.908Z</time>
      </trkpt>
      <trkpt lat="45.84096" lon="-0.78598">
        <ele>14</ele>
        <time>2014-09-28T08:52:58.820Z</time>
      </trkpt>
      <trkpt lat="45.8409" lon="-0.78608">
        <ele>14</ele>
        <time>2014-09-28T08:53:07.829Z</time>
      </trkpt>
      <trkpt lat="45.84089" lon="-0.78609">
        <ele>14</ele>
        <time>2014-09-28T08:53:08.814Z</time>
      </trkpt>
      <trkpt lat="45.84084" lon="-0.78618">
        <ele>14</ele>
        <time>2014-09-28T08:53:14.808Z</time>
      </trkpt>
      <trkpt lat="45.84084" lon="-0.7862">
        <ele>14</ele>
        <time>2014-09-28T08:53:15.812Z</time>
      </trkpt>
      <trkpt lat="45.84076" lon="-0.78626">
        <ele>17</ele>
        <time>2014-09-28T08:53:22.827Z</time>
      </trkpt>
      <trkpt lat="45.84075" lon="-0.78627">
        <ele>17</ele>
        <time>2014-09-28T08:53:23.823Z</time>
      </trkpt>
      <trkpt lat="45.84068" lon="-0.78633">
        <ele>17</ele>
        <time>2014-09-28T08:53:30.806Z</time>
      </trkpt>
      <trkpt lat="45.84067" lon="-0.78634">
        <ele>17</ele>
        <time>2014-09-28T08:53:31.829Z</time>
      </trkpt>
      <trkpt lat="45.8406" lon="-0.7864">
        <ele>17</ele>
        <time>2014-09-28T08:53:37.815Z</time>
      </trkpt>
      <trkpt lat="45.84059" lon="-0.78642">
        <ele>17</ele>
        <time>2014-09-28T08:53:38.820Z</time>
      </trkpt>
      <trkpt lat="45.84053" lon="-0.7865">
        <ele>17</ele>
        <time>2014-09-28T08:53:44.835Z</time>
      </trkpt>
      <trkpt lat="45.84052" lon="-0.78652">
        <ele>17</ele>
        <time>2014-09-28T08:53:45.825Z</time>
      </trkpt>
      <trkpt lat="45.84046" lon="-0.7866">
        <ele>17</ele>
        <time>2014-09-28T08:53:52.813Z</time>
      </trkpt>
      <trkpt lat="45.84045" lon="-0.78661">
        <ele>17</ele>
        <time>2014-09-28T08:53:53.861Z</time>
      </trkpt>
      <trkpt lat="45.8404" lon="-0.78671">
        <ele>16</ele>
        <time>2014-09-28T08:54:01.828Z</time>
      </trkpt>
      <trkpt lat="45.84039" lon="-0.78672">
        <ele>16</ele>
        <time>2014-09-28T08:54:02.884Z</time>
      </trkpt>
      <trkpt lat="45.84034" lon="-0.78679">
        <ele>17</ele>
        <time>2014-09-28T08:54:08.845Z</time>
      </trkpt>
      <trkpt lat="45.84033" lon="-0.78682">
        <ele>17</ele>
        <time>2014-09-28T08:54:09.837Z</time>
      </trkpt>
      <trkpt lat="45.84027" lon="-0.7869">
        <ele>17</ele>
        <time>2014-09-28T08:54:18.860Z</time>
      </trkpt>
      <trkpt lat="45.84026" lon="-0.78691">
        <ele>17</ele>
        <time>2014-09-28T08:54:19.837Z</time>
      </trkpt>
      <trkpt lat="45.84019" lon="-0.78698">
        <ele>17</ele>
        <time>2014-09-28T08:54:26.799Z</time>
      </trkpt>
      <trkpt lat="45.84018" lon="-0.78699">
        <ele>16</ele>
        <time>2014-09-28T08:54:27.822Z</time>
      </trkpt>
      <trkpt lat="45.84011" lon="-0.78704">
        <ele>16</ele>
        <time>2014-09-28T08:54:34.825Z</time>
      </trkpt>
      <trkpt lat="45.84009" lon="-0.78705">
        <ele>16</ele>
        <time>2014-09-28T08:54:35.801Z</time>
      </trkpt>
      <trkpt lat="45.84001" lon="-0.78706">
        <ele>16</ele>
        <time>2014-09-28T08:54:43.806Z</time>
      </trkpt>
      <trkpt lat="45.84" lon="-0.78706">
        <ele>16</ele>
        <time>2014-09-28T08:54:44.811Z</time>
      </trkpt>
      <trkpt lat="45.83993" lon="-0.78711">
        <ele>18</ele>
        <time>2014-09-28T08:54:50.820Z</time>
      </trkpt>
      <trkpt lat="45.83991" lon="-0.78711">
        <ele>18</ele>
        <time>2014-09-28T08:54:51.813Z</time>
      </trkpt>
      <trkpt lat="45.83984" lon="-0.78713">
        <ele>19</ele>
        <time>2014-09-28T08:54:57.803Z</time>
      </trkpt>
      <trkpt lat="45.83982" lon="-0.78714">
        <ele>19</ele>
        <time>2014-09-28T08:54:58.795Z</time>
      </trkpt>
      <trkpt lat="45.83974" lon="-0.78718">
        <ele>19</ele>
        <time>2014-09-28T08:55:04.812Z</time>
      </trkpt>
      <trkpt lat="45.83973" lon="-0.78718">
        <ele>19</ele>
        <time>2014-09-28T08:55:05.810Z</time>
      </trkpt>
      <trkpt lat="45.83965" lon="-0.78723">
        <ele>19</ele>
        <time>2014-09-28T08:55:12.825Z</time>
      </trkpt>
      <trkpt lat="45.83964" lon="-0.78723">
        <ele>19</ele>
        <time>2014-09-28T08:55:13.827Z</time>
      </trkpt>
      <trkpt lat="45.83956" lon="-0.78727">
        <ele>19</ele>
        <time>2014-09-28T08:55:20.819Z</time>
      </trkpt>
      <trkpt lat="45.83955" lon="-0.78728">
        <ele>19</ele>
        <time>2014-09-28T08:55:21.850Z</time>
      </trkpt>
      <trkpt lat="45.83948" lon="-0.78731">
        <ele>19</ele>
        <time>2014-09-28T08:55:28.809Z</time>
      </trkpt>
      <trkpt lat="45.83946" lon="-0.78732">
        <ele>19</ele>
        <time>2014-09-28T08:55:29.816Z</time>
      </trkpt>
      <trkpt lat="45.83939" lon="-0.78738">
        <ele>19</ele>
        <time>2014-09-28T08:55:35.808Z</time>
      </trkpt>
      <trkpt lat="45.83938" lon="-0.7874">
        <ele>19</ele>
        <time>2014-09-28T08:55:36.836Z</time>
      </trkpt>
      <trkpt lat="45.8393" lon="-0.78746">
        <ele>19</ele>
        <time>2014-09-28T08:55:43.937Z</time>
      </trkpt>
      <trkpt lat="45.83929" lon="-0.78746">
        <ele>19</ele>
        <time>2014-09-28T08:55:44.807Z</time>
      </trkpt>
      <trkpt lat="45.83922" lon="-0.7875">
        <ele>19</ele>
        <time>2014-09-28T08:55:51.833Z</time>
      </trkpt>
      <trkpt lat="45.83921" lon="-0.78751">
        <ele>18</ele>
        <time>2014-09-28T08:55:52.827Z</time>
      </trkpt>
      <trkpt lat="45.83913" lon="-0.78755">
        <ele>19</ele>
        <time>2014-09-28T08:55:58.832Z</time>
      </trkpt>
      <trkpt lat="45.83912" lon="-0.78755">
        <ele>19</ele>
        <time>2014-09-28T08:55:59.830Z</time>
      </trkpt>
      <trkpt lat="45.83903" lon="-0.78756">
        <ele>19</ele>
        <time>2014-09-28T08:56:05.827Z</time>
      </trkpt>
      <trkpt lat="45.83902" lon="-0.78756">
        <ele>19</ele>
        <time>2014-09-28T08:56:06.844Z</time>
      </trkpt>
      <trkpt lat="45.83894" lon="-0.78763">
        <ele>19</ele>
        <time>2014-09-28T08:56:13.807Z</time>
      </trkpt>
      <trkpt lat="45.83893" lon="-0.78764">
        <ele>19</ele>
        <time>2014-09-28T08:56:14.827Z</time>
      </trkpt>
      <trkpt lat="45.83888" lon="-0.78774">
        <ele>19</ele>
        <time>2014-09-28T08:56:22.814Z</time>
      </trkpt>
      <trkpt lat="45.83888" lon="-0.78777">
        <ele>19</ele>
        <time>2014-09-28T08:56:23.810Z</time>
      </trkpt>
      <trkpt lat="45.83882" lon="-0.78786">
        <ele>19</ele>
        <time>2014-09-28T08:56:30.814Z</time>
      </trkpt>
      <trkpt lat="45.83882" lon="-0.78788">
        <ele>19</ele>
        <time>2014-09-28T08:56:31.832Z</time>
      </trkpt>
      <trkpt lat="45.83876" lon="-0.78797">
        <ele>19</ele>
        <time>2014-09-28T08:56:36.823Z</time>
      </trkpt>
      <trkpt lat="45.83875" lon="-0.78799">
        <ele>19</ele>
        <time>2014-09-28T08:56:37.828Z</time>
      </trkpt>
      <trkpt lat="45.83869" lon="-0.78807">
        <ele>19</ele>
        <time>2014-09-28T08:56:45.834Z</time>
      </trkpt>
      <trkpt lat="45.83868" lon="-0.78809">
        <ele>19</ele>
        <time>2014-09-28T08:56:46.835Z</time>
      </trkpt>
      <trkpt lat="45.83864" lon="-0.78819">
        <ele>19</ele>
        <time>2014-09-28T08:56:52.837Z</time>
      </trkpt>
      <trkpt lat="45.83863" lon="-0.7882">
        <ele>20</ele>
        <time>2014-09-28T08:56:53.842Z</time>
      </trkpt>
      <trkpt lat="45.83858" lon="-0.7883">
        <ele>20</ele>
        <time>2014-09-28T08:57:00.825Z</time>
      </trkpt>
      <trkpt lat="45.83857" lon="-0.78832">
        <ele>20</ele>
        <time>2014-09-28T08:57:01.828Z</time>
      </trkpt>
      <trkpt lat="45.83851" lon="-0.78838">
        <ele>19</ele>
        <time>2014-09-28T08:57:07.834Z</time>
      </trkpt>
      <trkpt lat="45.8385" lon="-0.7884">
        <ele>19</ele>
        <time>2014-09-28T08:57:08.835Z</time>
      </trkpt>
      <trkpt lat="45.83844" lon="-0.78847">
        <ele>19</ele>
        <time>2014-09-28T08:57:15.852Z</time>
      </trkpt>
      <trkpt lat="45.83842" lon="-0.78848">
        <ele>19</ele>
        <time>2014-09-28T08:57:16.821Z</time>
      </trkpt>
      <trkpt lat="45.83835" lon="-0.78851">
        <ele>19</ele>
        <time>2014-09-28T08:57:24.826Z</time>
      </trkpt>
      <trkpt lat="45.83834" lon="-0.78852">
        <ele>19</ele>
        <time>2014-09-28T08:57:25.838Z</time>
      </trkpt>
      <trkpt lat="45.83826" lon="-0.78855">
        <ele>21</ele>
        <time>2014-09-28T08:57:31.837Z</time>
      </trkpt>
      <trkpt lat="45.83825" lon="-0.78855">
        <ele>21</ele>
        <time>2014-09-28T08:57:32.827Z</time>
      </trkpt>
      <trkpt lat="45.83817" lon="-0.7886">
        <ele>21</ele>
        <time>2014-09-28T08:57:39.812Z</time>
      </trkpt>
      <trkpt lat="45.83815" lon="-0.78862">
        <ele>21</ele>
        <time>2014-09-28T08:57:40.829Z</time>
      </trkpt>
      <trkpt lat="45.83809" lon="-0.78869">
        <ele>21</ele>
        <time>2014-09-28T08:57:47.852Z</time>
      </trkpt>
      <trkpt lat="45.83808" lon="-0.7887">
        <ele>21</ele>
        <time>2014-09-28T08:57:48.830Z</time>
      </trkpt>
      <trkpt lat="45.83799" lon="-0.7887">
        <ele>21</ele>
        <time>2014-09-28T08:57:58.821Z</time>
      </trkpt>
      <trkpt lat="45.83798" lon="-0.7887">
        <ele>21</ele>
        <time>2014-09-28T08:57:59.862Z</time>
      </trkpt>
      <trkpt lat="45.83791" lon="-0.78863">
        <ele>22</ele>
        <time>2014-09-28T08:58:07.849Z</time>
      </trkpt>
      <trkpt lat="45.83791" lon="-0.78861">
        <ele>22</ele>
        <time>2014-09-28T08:58:08.845Z</time>
      </trkpt>
      <trkpt lat="45.83788" lon="-0.78852">
        <ele>22</ele>
        <time>2014-09-28T08:58:13.812Z</time>
      </trkpt>
      <trkpt lat="45.83787" lon="-0.7885">
        <ele>22</ele>
        <time>2014-09-28T08:58:14.813Z</time>
      </trkpt>
      <trkpt lat="45.83782" lon="-0.7884">
        <ele>22</ele>
        <time>2014-09-28T08:58:20.820Z</time>
      </trkpt>
      <trkpt lat="45.83782" lon="-0.78839">
        <ele>22</ele>
        <time>2014-09-28T08:58:21.829Z</time>
      </trkpt>
      <trkpt lat="45.83778" lon="-0.78829">
        <ele>23</ele>
        <time>2014-09-28T08:58:28.831Z</time>
      </trkpt>
      <trkpt lat="45.83778" lon="-0.78826">
        <ele>23</ele>
        <time>2014-09-28T08:58:29.830Z</time>
      </trkpt>
      <trkpt lat="45.83777" lon="-0.78814">
        <ele>23</ele>
        <time>2014-09-28T08:58:36.835Z</time>
      </trkpt>
      <trkpt lat="45.83776" lon="-0.78811">
        <ele>23</ele>
        <time>2014-09-28T08:58:37.845Z</time>
      </trkpt>
      <trkpt lat="45.83774" lon="-0.788">
        <ele>23</ele>
        <time>2014-09-28T08:58:42.859Z</time>
      </trkpt>
      <trkpt lat="45.83774" lon="-0.78798">
        <ele>23</ele>
        <time>2014-09-28T08:58:43.827Z</time>
      </trkpt>
      <trkpt lat="45.8377" lon="-0.78787">
        <ele>23</ele>
        <time>2014-09-28T08:58:51.834Z</time>
      </trkpt>
      <trkpt lat="45.8377" lon="-0.78786">
        <ele>23</ele>
        <time>2014-09-28T08:58:52.814Z</time>
      </trkpt>
      <trkpt lat="45.83767" lon="-0.78776">
        <ele>23</ele>
        <time>2014-09-28T08:58:58.845Z</time>
      </trkpt>
      <trkpt lat="45.83767" lon="-0.78773">
        <ele>23</ele>
        <time>2014-09-28T08:58:59.840Z</time>
      </trkpt>
      <trkpt lat="45.83764" lon="-0.78762">
        <ele>23</ele>
        <time>2014-09-28T08:59:06.935Z</time>
      </trkpt>
      <trkpt lat="45.83764" lon="-0.7876">
        <ele>23</ele>
        <time>2014-09-28T08:59:07.818Z</time>
      </trkpt>
      <trkpt lat="45.83761" lon="-0.78749">
        <ele>23</ele>
        <time>2014-09-28T08:59:15.829Z</time>
      </trkpt>
      <trkpt lat="45.8376" lon="-0.78746">
        <ele>23</ele>
        <time>2014-09-28T08:59:16.819Z</time>
      </trkpt>
      <trkpt lat="45.83759" lon="-0.78737">
        <ele>23</ele>
        <time>2014-09-28T08:59:22.813Z</time>
      </trkpt>
      <trkpt lat="45.83758" lon="-0.78734">
        <ele>23</ele>
        <time>2014-09-28T08:59:23.825Z</time>
      </trkpt>
      <trkpt lat="45.83754" lon="-0.78723">
        <ele>22</ele>
        <time>2014-09-28T08:59:29.830Z</time>
      </trkpt>
      <trkpt lat="45.83754" lon="-0.78721">
        <ele>22</ele>
        <time>2014-09-28T08:59:30.820Z</time>
      </trkpt>
      <trkpt lat="45.83752" lon="-0.78709">
        <ele>22</ele>
        <time>2014-09-28T08:59:37.813Z</time>
      </trkpt>
      <trkpt lat="45.83752" lon="-0.78708">
        <ele>22</ele>
        <time>2014-09-28T08:59:38.816Z</time>
      </trkpt>
      <trkpt lat="45.83749" lon="-0.78696">
        <ele>22</ele>
        <time>2014-09-28T08:59:47.848Z</time>
      </trkpt>
      <trkpt lat="45.83748" lon="-0.78695">
        <ele>22</ele>
        <time>2014-09-28T08:59:48.846Z</time>
      </trkpt>
      <trkpt lat="45.83745" lon="-0.78684">
        <ele>22</ele>
        <time>2014-09-28T08:59:55.850Z</time>
      </trkpt>
      <trkpt lat="45.83745" lon="-0.78682">
        <ele>22</ele>
        <time>2014-09-28T08:59:56.839Z</time>
      </trkpt>
      <trkpt lat="45.83741" lon="-0.78672">
        <ele>22</ele>
        <time>2014-09-28T09:00:04.924Z</time>
      </trkpt>
      <trkpt lat="45.8374" lon="-0.78669">
        <ele>21</ele>
        <time>2014-09-28T09:00:05.840Z</time>
      </trkpt>
      <trkpt lat="45.83736" lon="-0.7866">
        <ele>21</ele>
        <time>2014-09-28T09:00:09.841Z</time>
      </trkpt>
      <trkpt lat="45.83735" lon="-0.78659">
        <ele>21</ele>
        <time>2014-09-28T09:00:10.841Z</time>
      </trkpt>
      <trkpt lat="45.83733" lon="-0.78647">
        <ele>21</ele>
        <time>2014-09-28T09:00:16.836Z</time>
      </trkpt>
      <trkpt lat="45.83733" lon="-0.78646">
        <ele>21</ele>
        <time>2014-09-28T09:00:17.831Z</time>
      </trkpt>
      <trkpt lat="45.83733" lon="-0.78633">
        <ele>21</ele>
        <time>2014-09-28T09:00:24.822Z</time>
      </trkpt>
      <trkpt lat="45.83733" lon="-0.78632">
        <ele>21</ele>
        <time>2014-09-28T09:00:25.822Z</time>
      </trkpt>
      <trkpt lat="45.83732" lon="-0.78621">
        <ele>21</ele>
        <time>2014-09-28T09:00:31.830Z</time>
      </trkpt>
      <trkpt lat="45.83731" lon="-0.78619">
        <ele>21</ele>
        <time>2014-09-28T09:00:32.827Z</time>
      </trkpt>
      <trkpt lat="45.83729" lon="-0.78607">
        <ele>21</ele>
        <time>2014-09-28T09:00:40.826Z</time>
      </trkpt>
      <trkpt lat="45.83729" lon="-0.78606">
        <ele>21</ele>
        <time>2014-09-28T09:00:41.833Z</time>
      </trkpt>
      <trkpt lat="45.83726" lon="-0.78595">
        <ele>21</ele>
        <time>2014-09-28T09:00:47.825Z</time>
      </trkpt>
      <trkpt lat="45.83725" lon="-0.78593">
        <ele>21</ele>
        <time>2014-09-28T09:00:48.813Z</time>
      </trkpt>
      <trkpt lat="45.83722" lon="-0.78581">
        <ele>20</ele>
        <time>2014-09-28T09:00:56.835Z</time>
      </trkpt>
      <trkpt lat="45.83722" lon="-0.7858">
        <ele>20</ele>
        <time>2014-09-28T09:00:57.838Z</time>
      </trkpt>
      <trkpt lat="45.83719" lon="-0.78568">
        <ele>20</ele>
        <time>2014-09-28T09:01:05.829Z</time>
      </trkpt>
      <trkpt lat="45.83718" lon="-0.78567">
        <ele>21</ele>
        <time>2014-09-28T09:01:06.828Z</time>
      </trkpt>
      <trkpt lat="45.83715" lon="-0.78557">
        <ele>20</ele>
        <time>2014-09-28T09:01:13.808Z</time>
      </trkpt>
      <trkpt lat="45.83714" lon="-0.78555">
        <ele>20</ele>
        <time>2014-09-28T09:01:14.799Z</time>
      </trkpt>
      <trkpt lat="45.83711" lon="-0.78544">
        <ele>20</ele>
        <time>2014-09-28T09:01:21.820Z</time>
      </trkpt>
      <trkpt lat="45.8371" lon="-0.78542">
        <ele>20</ele>
        <time>2014-09-28T09:01:22.828Z</time>
      </trkpt>
      <trkpt lat="45.83703" lon="-0.78534">
        <ele>21</ele>
        <time>2014-09-28T09:01:27.832Z</time>
      </trkpt>
      <trkpt lat="45.83703" lon="-0.78531">
        <ele>21</ele>
        <time>2014-09-28T09:01:28.828Z</time>
      </trkpt>
      <trkpt lat="45.83699" lon="-0.7852">
        <ele>21</ele>
        <time>2014-09-28T09:01:35.820Z</time>
      </trkpt>
      <trkpt lat="45.83699" lon="-0.78517">
        <ele>21</ele>
        <time>2014-09-28T09:01:36.816Z</time>
      </trkpt>
      <trkpt lat="45.83697" lon="-0.78506">
        <ele>21</ele>
        <time>2014-09-28T09:01:42.838Z</time>
      </trkpt>
      <trkpt lat="45.83696" lon="-0.78505">
        <ele>21</ele>
        <time>2014-09-28T09:01:43.828Z</time>
      </trkpt>
      <trkpt lat="45.83692" lon="-0.78493">
        <ele>19</ele>
        <time>2014-09-28T09:01:52.157Z</time>
      </trkpt>
      <trkpt lat="45.83692" lon="-0.78492">
        <ele>19</ele>
        <time>2014-09-28T09:01:52.824Z</time>
      </trkpt>
      <trkpt lat="45.83691" lon="-0.78479">
        <ele>19</ele>
        <time>2014-09-28T09:02:00.826Z</time>
      </trkpt>
      <trkpt lat="45.83691" lon="-0.78478">
        <ele>19</ele>
        <time>2014-09-28T09:02:01.835Z</time>
      </trkpt>
      <trkpt lat="45.83691" lon="-0.78467">
        <ele>18</ele>
        <time>2014-09-28T09:02:09.408Z</time>
      </trkpt>
      <trkpt lat="45.83691" lon="-0.78465">
        <ele>18</ele>
        <time>2014-09-28T09:02:09.860Z</time>
      </trkpt>
      <trkpt lat="45.83688" lon="-0.78454">
        <ele>18</ele>
        <time>2014-09-28T09:02:15.839Z</time>
      </trkpt>
      <trkpt lat="45.83688" lon="-0.78453">
        <ele>18</ele>
        <time>2014-09-28T09:02:16.832Z</time>
      </trkpt>
      <trkpt lat="45.83685" lon="-0.78441">
        <ele>17</ele>
        <time>2014-09-28T09:02:25.827Z</time>
      </trkpt>
      <trkpt lat="45.83685" lon="-0.7844">
        <ele>17</ele>
        <time>2014-09-28T09:02:26.821Z</time>
      </trkpt>
      <trkpt lat="45.83687" lon="-0.78428">
        <ele>17</ele>
        <time>2014-09-28T09:02:38.825Z</time>
      </trkpt>
      <trkpt lat="45.83688" lon="-0.78428">
        <ele>17</ele>
        <time>2014-09-28T09:02:39.812Z</time>
      </trkpt>
      <trkpt lat="45.83695" lon="-0.78422">
        <ele>17</ele>
        <time>2014-09-28T09:02:47.835Z</time>
      </trkpt>
      <trkpt lat="45.83696" lon="-0.78422">
        <ele>17</ele>
        <time>2014-09-28T09:02:48.844Z</time>
      </trkpt>
      <trkpt lat="45.83704" lon="-0.78424">
        <ele>18</ele>
        <time>2014-09-28T09:03:09.820Z</time>
      </trkpt>
      <trkpt lat="45.83705" lon="-0.78424">
        <ele>18</ele>
        <time>2014-09-28T09:03:10.821Z</time>
      </trkpt>
      <trkpt lat="45.83697" lon="-0.78427">
        <ele>17</ele>
        <time>2014-09-28T09:03:31.811Z</time>
      </trkpt>
      <trkpt lat="45.83695" lon="-0.78428">
        <ele>17</ele>
        <time>2014-09-28T09:03:32.838Z</time>
      </trkpt>
      <trkpt lat="45.83689" lon="-0.78418">
        <ele>17</ele>
        <time>2014-09-28T09:04:02.806Z</time>
      </trkpt>
      <trkpt lat="45.83689" lon="-0.78418">
        <ele>17</ele>
        <time>2014-09-28T09:04:03.815Z</time>
      </trkpt>
      <trkpt lat="45.83688" lon="-0.7843">
        <ele>17</ele>
        <time>2014-09-28T09:04:24.800Z</time>
      </trkpt>
      <trkpt lat="45.83688" lon="-0.78432">
        <ele>17</ele>
        <time>2014-09-28T09:04:25.822Z</time>
      </trkpt>
      <trkpt lat="45.83683" lon="-0.78442">
        <ele>18</ele>
        <time>2014-09-28T09:04:37.822Z</time>
      </trkpt>
      <trkpt lat="45.83682" lon="-0.78443">
        <ele>17</ele>
        <time>2014-09-28T09:04:38.811Z</time>
      </trkpt>
      <trkpt lat="45.83674" lon="-0.78446">
        <ele>18</ele>
        <time>2014-09-28T09:04:47.824Z</time>
      </trkpt>
      <trkpt lat="45.83674" lon="-0.78447">
        <ele>18</ele>
        <time>2014-09-28T09:04:48.844Z</time>
      </trkpt>
      <trkpt lat="45.83667" lon="-0.78454">
        <ele>18</ele>
        <time>2014-09-28T09:04:54.821Z</time>
      </trkpt>
      <trkpt lat="45.83666" lon="-0.78455">
        <ele>17</ele>
        <time>2014-09-28T09:04:55.811Z</time>
      </trkpt>
      <trkpt lat="45.8366" lon="-0.78463">
        <ele>18</ele>
        <time>2014-09-28T09:05:01.809Z</time>
      </trkpt>
      <trkpt lat="45.83659" lon="-0.78464">
        <ele>18</ele>
        <time>2014-09-28T09:05:02.801Z</time>
      </trkpt>
      <trkpt lat="45.83652" lon="-0.7847">
        <ele>18</ele>
        <time>2014-09-28T09:05:09.908Z</time>
      </trkpt>
      <trkpt lat="45.83651" lon="-0.78472">
        <ele>18</ele>
        <time>2014-09-28T09:05:10.816Z</time>
      </trkpt>
      <trkpt lat="45.83644" lon="-0.78479">
        <ele>18</ele>
        <time>2014-09-28T09:05:18.875Z</time>
      </trkpt>
      <trkpt lat="45.83643" lon="-0.7848">
        <ele>18</ele>
        <time>2014-09-28T09:05:19.816Z</time>
      </trkpt>
      <trkpt lat="45.83637" lon="-0.78487">
        <ele>18</ele>
        <time>2014-09-28T09:05:25.881Z</time>
      </trkpt>
      <trkpt lat="45.83636" lon="-0.78489">
        <ele>18</ele>
        <time>2014-09-28T09:05:26.820Z</time>
      </trkpt>
      <trkpt lat="45.8363" lon="-0.78497">
        <ele>19</ele>
        <time>2014-09-28T09:05:32.821Z</time>
      </trkpt>
      <trkpt lat="45.83629" lon="-0.78498">
        <ele>19</ele>
        <time>2014-09-28T09:05:33.823Z</time>
      </trkpt>
      <trkpt lat="45.83621" lon="-0.78504">
        <ele>21</ele>
        <time>2014-09-28T09:05:43.845Z</time>
      </trkpt>
      <trkpt lat="45.8362" lon="-0.78504">
        <ele>21</ele>
        <time>2014-09-28T09:05:44.807Z</time>
      </trkpt>
      <trkpt lat="45.83612" lon="-0.78502">
        <ele>21</ele>
        <time>2014-09-28T09:05:54.832Z</time>
      </trkpt>
      <trkpt lat="45.83611" lon="-0.78502">
        <ele>21</ele>
        <time>2014-09-28T09:05:55.833Z</time>
      </trkpt>
      <trkpt lat="45.83603" lon="-0.78498">
        <ele>19</ele>
        <time>2014-09-28T09:06:05.843Z</time>
      </trkpt>
      <trkpt lat="45.83602" lon="-0.78498">
        <ele>19</ele>
        <time>2014-09-28T09:06:06.825Z</time>
      </trkpt>
      <trkpt lat="45.83594" lon="-0.78497">
        <ele>19</ele>
        <time>2014-09-28T09:06:14.198Z</time>
      </trkpt>
      <trkpt lat="45.83593" lon="-0.78497">
        <ele>19</ele>
        <time>2014-09-28T09:06:14.788Z</time>
      </trkpt>
      <trkpt lat="45.83584" lon="-0.78494">
        <ele>19</ele>
        <time>2014-09-28T09:06:21.805Z</time>
      </trkpt>
      <trkpt lat="45.83583" lon="-0.78493">
        <ele>19</ele>
        <time>2014-09-28T09:06:22.815Z</time>
      </trkpt>
      <trkpt lat="45.83574" lon="-0.78496">
        <ele>19</ele>
        <time>2014-09-28T09:06:30.794Z</time>
      </trkpt>
      <trkpt lat="45.83574" lon="-0.78497">
        <ele>19</ele>
        <time>2014-09-28T09:06:31.801Z</time>
      </trkpt>
      <trkpt lat="45.83566" lon="-0.785">
        <ele>18</ele>
        <time>2014-09-28T09:06:40.825Z</time>
      </trkpt>
      <trkpt lat="45.83565" lon="-0.78499">
        <ele>18</ele>
        <time>2014-09-28T09:06:41.814Z</time>
      </trkpt>
      <trkpt lat="45.83556" lon="-0.78497">
        <ele>18</ele>
        <time>2014-09-28T09:06:51.806Z</time>
      </trkpt>
      <trkpt lat="45.83553" lon="-0.78497">
        <ele>18</ele>
        <time>2014-09-28T09:06:52.830Z</time>
      </trkpt>
      <trkpt lat="45.83545" lon="-0.78501">
        <ele>21</ele>
        <time>2014-09-28T09:07:01.822Z</time>
      </trkpt>
      <trkpt lat="45.83545" lon="-0.78503">
        <ele>21</ele>
        <time>2014-09-28T09:07:02.826Z</time>
      </trkpt>
      <trkpt lat="45.83539" lon="-0.7851">
        <ele>22</ele>
        <time>2014-09-28T09:07:09.144Z</time>
      </trkpt>
      <trkpt lat="45.83538" lon="-0.78512">
        <ele>22</ele>
        <time>2014-09-28T09:07:09.824Z</time>
      </trkpt>
      <trkpt lat="45.83531" lon="-0.78517">
        <ele>22</ele>
        <time>2014-09-28T09:07:20.841Z</time>
      </trkpt>
      <trkpt lat="45.8353" lon="-0.78518">
        <ele>22</ele>
        <time>2014-09-28T09:07:21.839Z</time>
      </trkpt>
      <trkpt lat="45.83522" lon="-0.78522">
        <ele>22</ele>
        <time>2014-09-28T09:07:31.842Z</time>
      </trkpt>
      <trkpt lat="45.83521" lon="-0.78522">
        <ele>22</ele>
        <time>2014-09-28T09:07:32.964Z</time>
      </trkpt>
      <trkpt lat="45.83513" lon="-0.78524">
        <ele>22</ele>
        <time>2014-09-28T09:07:44.602Z</time>
      </trkpt>
      <trkpt lat="45.83512" lon="-0.78524">
        <ele>22</ele>
        <time>2014-09-28T09:07:44.829Z</time>
      </trkpt>
      <trkpt lat="45.83503" lon="-0.78525">
        <ele>22</ele>
        <time>2014-09-28T09:07:55.845Z</time>
      </trkpt>
      <trkpt lat="45.83503" lon="-0.78524">
        <ele>22</ele>
        <time>2014-09-28T09:07:56.811Z</time>
      </trkpt>
      <trkpt lat="45.83495" lon="-0.78525">
        <ele>21</ele>
        <time>2014-09-28T09:08:04.814Z</time>
      </trkpt>
      <trkpt lat="45.83494" lon="-0.78524">
        <ele>21</ele>
        <time>2014-09-28T09:08:05.823Z</time>
      </trkpt>
      <trkpt lat="45.83486" lon="-0.78518">
        <ele>20</ele>
        <time>2014-09-28T09:08:19.693Z</time>
      </trkpt>
      <trkpt lat="45.83485" lon="-0.78517">
        <ele>20</ele>
        <time>2014-09-28T09:08:19.815Z</time>
      </trkpt>
      <trkpt lat="45.83479" lon="-0.78513">
        <ele>20</ele>
        <time>2014-09-28T09:08:26.821Z</time>
      </trkpt>
      <trkpt lat="45.83477" lon="-0.78512">
        <ele>20</ele>
        <time>2014-09-28T09:08:27.827Z</time>
      </trkpt>
      <trkpt lat="45.83469" lon="-0.78518">
        <ele>20</ele>
        <time>2014-09-28T09:08:38.808Z</time>
      </trkpt>
      <trkpt lat="45.83469" lon="-0.78519">
        <ele>20</ele>
        <time>2014-09-28T09:08:39.843Z</time>
      </trkpt>
      <trkpt lat="45.8346" lon="-0.78523">
        <ele>20</ele>
        <time>2014-09-28T09:08:52.881Z</time>
      </trkpt>
      <trkpt lat="45.8346" lon="-0.78523">
        <ele>20</ele>
        <time>2014-09-28T09:08:53.821Z</time>
      </trkpt>
      <trkpt lat="45.83463" lon="-0.78534">
        <ele>20</ele>
        <time>2014-09-28T09:09:15.801Z</time>
      </trkpt>
      <trkpt lat="45.83463" lon="-0.78535">
        <ele>20</ele>
        <time>2014-09-28T09:09:16.800Z</time>
      </trkpt>
      <trkpt lat="45.83466" lon="-0.78548">
        <ele>20</ele>
        <time>2014-09-28T09:09:22.815Z</time>
      </trkpt>
      <trkpt lat="45.83466" lon="-0.7855">
        <ele>20</ele>
        <time>2014-09-28T09:09:23.807Z</time>
      </trkpt>
      <trkpt lat="45.83468" lon="-0.78562">
        <ele>20</ele>
        <time>2014-09-28T09:09:32.811Z</time>
      </trkpt>
      <trkpt lat="45.83468" lon="-0.78563">
        <ele>20</ele>
        <time>2014-09-28T09:09:33.809Z</time>
      </trkpt>
      <trkpt lat="45.8347" lon="-0.78576">
        <ele>21</ele>
        <time>2014-09-28T09:09:41.809Z</time>
      </trkpt>
      <trkpt lat="45.8347" lon="-0.78577">
        <ele>21</ele>
        <time>2014-09-28T09:09:42.819Z</time>
      </trkpt>
      <trkpt lat="45.8347" lon="-0.78588">
        <ele>22</ele>
        <time>2014-09-28T09:09:49.807Z</time>
      </trkpt>
      <trkpt lat="45.8347" lon="-0.7859">
        <ele>22</ele>
        <time>2014-09-28T09:09:50.812Z</time>
      </trkpt>
      <trkpt lat="45.83468" lon="-0.78601">
        <ele>22</ele>
        <time>2014-09-28T09:09:59.084Z</time>
      </trkpt>
      <trkpt lat="45.83468" lon="-0.78603">
        <ele>22</ele>
        <time>2014-09-28T09:09:59.810Z</time>
      </trkpt>
      <trkpt lat="45.83465" lon="-0.78614">
        <ele>22</ele>
        <time>2014-09-28T09:10:07.809Z</time>
      </trkpt>
      <trkpt lat="45.83465" lon="-0.78616">
        <ele>22</ele>
        <time>2014-09-28T09:10:08.806Z</time>
      </trkpt>
      <trkpt lat="45.83464" lon="-0.78628">
        <ele>22</ele>
        <time>2014-09-28T09:10:14.811Z</time>
      </trkpt>
      <trkpt lat="45.83464" lon="-0.78629">
        <ele>22</ele>
        <time>2014-09-28T09:10:15.808Z</time>
      </trkpt>
      <trkpt lat="45.83464" lon="-0.78641">
        <ele>22</ele>
        <time>2014-09-28T09:10:24.815Z</time>
      </trkpt>
      <trkpt lat="45.83464" lon="-0.78642">
        <ele>22</ele>
        <time>2014-09-28T09:10:25.812Z</time>
      </trkpt>
      <trkpt lat="45.83463" lon="-0.78655">
        <ele>22</ele>
        <time>2014-09-28T09:10:34.241Z</time>
      </trkpt>
      <trkpt lat="45.83463" lon="-0.78656">
        <ele>22</ele>
        <time>2014-09-28T09:10:34.838Z</time>
      </trkpt>
      <trkpt lat="45.83462" lon="-0.78668">
        <ele>23</ele>
        <time>2014-09-28T09:10:41.820Z</time>
      </trkpt>
      <trkpt lat="45.83462" lon="-0.7867">
        <ele>23</ele>
        <time>2014-09-28T09:10:42.811Z</time>
      </trkpt>
      <trkpt lat="45.83462" lon="-0.78682">
        <ele>23</ele>
        <time>2014-09-28T09:10:50.823Z</time>
      </trkpt>
      <trkpt lat="45.83461" lon="-0.78684">
        <ele>23</ele>
        <time>2014-09-28T09:10:51.801Z</time>
      </trkpt>
      <trkpt lat="45.8346" lon="-0.78697">
        <ele>23</ele>
        <time>2014-09-28T09:10:59.188Z</time>
      </trkpt>
      <trkpt lat="45.8346" lon="-0.78699">
        <ele>23</ele>
        <time>2014-09-28T09:10:59.823Z</time>
      </trkpt>
      <trkpt lat="45.83462" lon="-0.78711">
        <ele>24</ele>
        <time>2014-09-28T09:11:07.826Z</time>
      </trkpt>
      <trkpt lat="45.83462" lon="-0.78713">
        <ele>24</ele>
        <time>2014-09-28T09:11:08.823Z</time>
      </trkpt>
      <trkpt lat="45.83463" lon="-0.78725">
        <ele>24</ele>
        <time>2014-09-28T09:11:15.828Z</time>
      </trkpt>
      <trkpt lat="45.83463" lon="-0.78727">
        <ele>24</ele>
        <time>2014-09-28T09:11:16.828Z</time>
      </trkpt>
      <trkpt lat="45.83463" lon="-0.78737">
        <ele>24</ele>
        <time>2014-09-28T09:11:22.836Z</time>
      </trkpt>
      <trkpt lat="45.83463" lon="-0.7874">
        <ele>24</ele>
        <time>2014-09-28T09:11:23.827Z</time>
      </trkpt>
      <trkpt lat="45.83462" lon="-0.78752">
        <ele>25</ele>
        <time>2014-09-28T09:11:30.840Z</time>
      </trkpt>
      <trkpt lat="45.83462" lon="-0.78754">
        <ele>25</ele>
        <time>2014-09-28T09:11:31.826Z</time>
      </trkpt>
      <trkpt lat="45.83461" lon="-0.78766">
        <ele>25</ele>
        <time>2014-09-28T09:11:37.811Z</time>
      </trkpt>
      <trkpt lat="45.8346" lon="-0.78768">
        <ele>25</ele>
        <time>2014-09-28T09:11:38.806Z</time>
      </trkpt>
      <trkpt lat="45.83458" lon="-0.7878">
        <ele>25</ele>
        <time>2014-09-28T09:11:45.816Z</time>
      </trkpt>
      <trkpt lat="45.83458" lon="-0.78783">
        <ele>25</ele>
        <time>2014-09-28T09:11:46.812Z</time>
      </trkpt>
      <trkpt lat="45.83458" lon="-0.78794">
        <ele>25</ele>
        <time>2014-09-28T09:11:54.258Z</time>
      </trkpt>
      <trkpt lat="45.83457" lon="-0.78796">
        <ele>25</ele>
        <time>2014-09-28T09:11:54.796Z</time>
      </trkpt>
      <trkpt lat="45.83456" lon="-0.78808">
        <ele>25</ele>
        <time>2014-09-28T09:12:02.802Z</time>
      </trkpt>
      <trkpt lat="45.83456" lon="-0.7881">
        <ele>25</ele>
        <time>2014-09-28T09:12:03.802Z</time>
      </trkpt>
      <trkpt lat="45.83453" lon="-0.78822">
        <ele>25</ele>
        <time>2014-09-28T09:12:10.928Z</time>
      </trkpt>
      <trkpt lat="45.83453" lon="-0.78823">
        <ele>25</ele>
        <time>2014-09-28T09:12:11.806Z</time>
      </trkpt>
      <trkpt lat="45.83452" lon="-0.78834">
        <ele>25</ele>
        <time>2014-09-28T09:12:19.842Z</time>
      </trkpt>
      <trkpt lat="45.83452" lon="-0.78835">
        <ele>25</ele>
        <time>2014-09-28T09:12:20.815Z</time>
      </trkpt>
      <trkpt lat="45.83451" lon="-0.78845">
        <ele>25</ele>
        <time>2014-09-28T09:12:26.813Z</time>
      </trkpt>
      <trkpt lat="45.83451" lon="-0.78849">
        <ele>25</ele>
        <time>2014-09-28T09:12:27.817Z</time>
      </trkpt>
      <trkpt lat="45.83449" lon="-0.7886">
        <ele>25</ele>
        <time>2014-09-28T09:12:34.820Z</time>
      </trkpt>
      <trkpt lat="45.83448" lon="-0.78862">
        <ele>25</ele>
        <time>2014-09-28T09:12:35.804Z</time>
      </trkpt>
      <trkpt lat="45.83446" lon="-0.78873">
        <ele>25</ele>
        <time>2014-09-28T09:12:41.817Z</time>
      </trkpt>
      <trkpt lat="45.83445" lon="-0.78875">
        <ele>25</ele>
        <time>2014-09-28T09:12:42.825Z</time>
      </trkpt>
      <trkpt lat="45.83445" lon="-0.78887">
        <ele>25</ele>
        <time>2014-09-28T09:12:50.825Z</time>
      </trkpt>
      <trkpt lat="45.83444" lon="-0.78888">
        <ele>25</ele>
        <time>2014-09-28T09:12:51.824Z</time>
      </trkpt>
      <trkpt lat="45.83443" lon="-0.78898">
        <ele>25</ele>
        <time>2014-09-28T09:12:57.819Z</time>
      </trkpt>
      <trkpt lat="45.83442" lon="-0.78901">
        <ele>25</ele>
        <time>2014-09-28T09:12:58.814Z</time>
      </trkpt>
      <trkpt lat="45.8344" lon="-0.78912">
        <ele>24</ele>
        <time>2014-09-28T09:13:04.573Z</time>
      </trkpt>
      <trkpt lat="45.83439" lon="-0.78914">
        <ele>24</ele>
        <time>2014-09-28T09:13:04.822Z</time>
      </trkpt>
      <trkpt lat="45.83438" lon="-0.78925">
        <ele>24</ele>
        <time>2014-09-28T09:13:09.812Z</time>
      </trkpt>
      <trkpt lat="45.83438" lon="-0.78927">
        <ele>24</ele>
        <time>2014-09-28T09:13:10.816Z</time>
      </trkpt>
      <trkpt lat="45.83438" lon="-0.78938">
        <ele>24</ele>
        <time>2014-09-28T09:13:15.816Z</time>
      </trkpt>
      <trkpt lat="45.83438" lon="-0.78941">
        <ele>24</ele>
        <time>2014-09-28T09:13:16.817Z</time>
      </trkpt>
      <trkpt lat="45.83439" lon="-0.78952">
        <ele>24</ele>
        <time>2014-09-28T09:13:24.707Z</time>
      </trkpt>
      <trkpt lat="45.83439" lon="-0.78954">
        <ele>24</ele>
        <time>2014-09-28T09:13:24.853Z</time>
      </trkpt>
      <trkpt lat="45.83437" lon="-0.78966">
        <ele>24</ele>
        <time>2014-09-28T09:13:30.803Z</time>
      </trkpt>
      <trkpt lat="45.83437" lon="-0.78968">
        <ele>24</ele>
        <time>2014-09-28T09:13:31.819Z</time>
      </trkpt>
      <trkpt lat="45.83435" lon="-0.7898">
        <ele>23</ele>
        <time>2014-09-28T09:13:40.809Z</time>
      </trkpt>
      <trkpt lat="45.83434" lon="-0.78981">
        <ele>23</ele>
        <time>2014-09-28T09:13:41.816Z</time>
      </trkpt>
      <trkpt lat="45.83435" lon="-0.78992">
        <ele>23</ele>
        <time>2014-09-28T09:13:46.821Z</time>
      </trkpt>
      <trkpt lat="45.83436" lon="-0.78994">
        <ele>23</ele>
        <time>2014-09-28T09:13:47.812Z</time>
      </trkpt>
      <trkpt lat="45.83441" lon="-0.79003">
        <ele>23</ele>
        <time>2014-09-28T09:13:54.079Z</time>
      </trkpt>
      <trkpt lat="45.83442" lon="-0.79005">
        <ele>23</ele>
        <time>2014-09-28T09:13:54.793Z</time>
      </trkpt>
      <trkpt lat="45.83447" lon="-0.79014">
        <ele>24</ele>
        <time>2014-09-28T09:14:01.814Z</time>
      </trkpt>
      <trkpt lat="45.83447" lon="-0.79016">
        <ele>24</ele>
        <time>2014-09-28T09:14:02.845Z</time>
      </trkpt>
      <trkpt lat="45.83452" lon="-0.79027">
        <ele>24</ele>
        <time>2014-09-28T09:14:11.834Z</time>
      </trkpt>
      <trkpt lat="45.83453" lon="-0.79028">
        <ele>24</ele>
        <time>2014-09-28T09:14:12.823Z</time>
      </trkpt>
      <trkpt lat="45.83456" lon="-0.79039">
        <ele>24</ele>
        <time>2014-09-28T09:14:18.839Z</time>
      </trkpt>
      <trkpt lat="45.83457" lon="-0.79041">
        <ele>24</ele>
        <time>2014-09-28T09:14:19.851Z</time>
      </trkpt>
      <trkpt lat="45.8346" lon="-0.79053">
        <ele>24</ele>
        <time>2014-09-28T09:14:26.900Z</time>
      </trkpt>
      <trkpt lat="45.8346" lon="-0.79054">
        <ele>24</ele>
        <time>2014-09-28T09:14:27.841Z</time>
      </trkpt>
      <trkpt lat="45.83465" lon="-0.79064">
        <ele>24</ele>
        <time>2014-09-28T09:14:35.051Z</time>
      </trkpt>
      <trkpt lat="45.83466" lon="-0.79066">
        <ele>24</ele>
        <time>2014-09-28T09:14:35.825Z</time>
      </trkpt>
      <trkpt lat="45.83471" lon="-0.79076">
        <ele>25</ele>
        <time>2014-09-28T09:14:43.830Z</time>
      </trkpt>
      <trkpt lat="45.83472" lon="-0.79078">
        <ele>25</ele>
        <time>2014-09-28T09:14:44.835Z</time>
      </trkpt>
      <trkpt lat="45.83477" lon="-0.79089">
        <ele>25</ele>
        <time>2014-09-28T09:14:50.826Z</time>
      </trkpt>
      <trkpt lat="45.83478" lon="-0.79091">
        <ele>25</ele>
        <time>2014-09-28T09:14:51.835Z</time>
      </trkpt>
      <trkpt lat="45.83483" lon="-0.791">
        <ele>25</ele>
        <time>2014-09-28T09:14:59.922Z</time>
      </trkpt>
      <trkpt lat="45.83484" lon="-0.791">
        <ele>25</ele>
        <time>2014-09-28T09:15:00.829Z</time>
      </trkpt>
      <trkpt lat="45.83489" lon="-0.79109">
        <ele>25</ele>
        <time>2014-09-28T09:15:07.828Z</time>
      </trkpt>
      <trkpt lat="45.8349" lon="-0.7911">
        <ele>25</ele>
        <time>2014-09-28T09:15:08.829Z</time>
      </trkpt>
      <trkpt lat="45.83496" lon="-0.79119">
        <ele>24</ele>
        <time>2014-09-28T09:15:14.182Z</time>
      </trkpt>
      <trkpt lat="45.83497" lon="-0.79121">
        <ele>24</ele>
        <time>2014-09-28T09:15:14.832Z</time>
      </trkpt>
      <trkpt lat="45.83502" lon="-0.7913">
        <ele>24</ele>
        <time>2014-09-28T09:15:20.838Z</time>
      </trkpt>
      <trkpt lat="45.83502" lon="-0.79131">
        <ele>24</ele>
        <time>2014-09-28T09:15:21.846Z</time>
      </trkpt>
      <trkpt lat="45.83507" lon="-0.79141">
        <ele>24</ele>
        <time>2014-09-28T09:15:27.837Z</time>
      </trkpt>
      <trkpt lat="45.83507" lon="-0.79143">
        <ele>24</ele>
        <time>2014-09-28T09:15:28.846Z</time>
      </trkpt>
      <trkpt lat="45.83513" lon="-0.79153">
        <ele>24</ele>
        <time>2014-09-28T09:15:36.841Z</time>
      </trkpt>
      <trkpt lat="45.83513" lon="-0.79154">
        <ele>24</ele>
        <time>2014-09-28T09:15:37.835Z</time>
      </trkpt>
      <trkpt lat="45.83517" lon="-0.79165">
        <ele>24</ele>
        <time>2014-09-28T09:15:44.846Z</time>
      </trkpt>
      <trkpt lat="45.83517" lon="-0.79166">
        <ele>24</ele>
        <time>2014-09-28T09:15:45.839Z</time>
      </trkpt>
      <trkpt lat="45.83522" lon="-0.79176">
        <ele>23</ele>
        <time>2014-09-28T09:15:51.828Z</time>
      </trkpt>
      <trkpt lat="45.83524" lon="-0.79177">
        <ele>23</ele>
        <time>2014-09-28T09:15:52.827Z</time>
      </trkpt>
      <trkpt lat="45.83529" lon="-0.79187">
        <ele>22</ele>
        <time>2014-09-28T09:16:01.820Z</time>
      </trkpt>
      <trkpt lat="45.8353" lon="-0.79188">
        <ele>22</ele>
        <time>2014-09-28T09:16:02.834Z</time>
      </trkpt>
      <trkpt lat="45.83535" lon="-0.79198">
        <ele>22</ele>
        <time>2014-09-28T09:16:08.825Z</time>
      </trkpt>
      <trkpt lat="45.83536" lon="-0.792">
        <ele>22</ele>
        <time>2014-09-28T09:16:09.819Z</time>
      </trkpt>
      <trkpt lat="45.83541" lon="-0.7921">
        <ele>22</ele>
        <time>2014-09-28T09:16:17.827Z</time>
      </trkpt>
      <trkpt lat="45.83542" lon="-0.79211">
        <ele>22</ele>
        <time>2014-09-28T09:16:18.832Z</time>
      </trkpt>
      <trkpt lat="45.8355" lon="-0.79215">
        <ele>22</ele>
        <time>2014-09-28T09:16:26.831Z</time>
      </trkpt>
      <trkpt lat="45.83551" lon="-0.79214">
        <ele>22</ele>
        <time>2014-09-28T09:16:27.841Z</time>
      </trkpt>
      <trkpt lat="45.83557" lon="-0.79206">
        <ele>22</ele>
        <time>2014-09-28T09:16:32.838Z</time>
      </trkpt>
      <trkpt lat="45.83558" lon="-0.79204">
        <ele>22</ele>
        <time>2014-09-28T09:16:33.828Z</time>
      </trkpt>
      <trkpt lat="45.83566" lon="-0.79204">
        <ele>22</ele>
        <time>2014-09-28T09:16:46.824Z</time>
      </trkpt>
      <trkpt lat="45.83567" lon="-0.79204">
        <ele>21</ele>
        <time>2014-09-28T09:16:47.830Z</time>
      </trkpt>
      <trkpt lat="45.83574" lon="-0.7921">
        <ele>21</ele>
        <time>2014-09-28T09:16:57.829Z</time>
      </trkpt>
      <trkpt lat="45.83575" lon="-0.7921">
        <ele>21</ele>
        <time>2014-09-28T09:16:58.862Z</time>
      </trkpt>
      <trkpt lat="45.83584" lon="-0.79214">
        <ele>18</ele>
        <time>2014-09-28T09:17:06.823Z</time>
      </trkpt>
      <trkpt lat="45.83584" lon="-0.79214">
        <ele>18</ele>
        <time>2014-09-28T09:17:07.832Z</time>
      </trkpt>
      <trkpt lat="45.83593" lon="-0.79214">
        <ele>18</ele>
        <time>2014-09-28T09:17:19.398Z</time>
      </trkpt>
      <trkpt lat="45.83594" lon="-0.79214">
        <ele>18</ele>
        <time>2014-09-28T09:17:19.842Z</time>
      </trkpt>
      <trkpt lat="45.83602" lon="-0.79208">
        <ele>17</ele>
        <time>2014-09-28T09:17:51.845Z</time>
      </trkpt>
      <trkpt lat="45.83602" lon="-0.79208">
        <ele>17</ele>
        <time>2014-09-28T09:17:52.844Z</time>
      </trkpt>
      <trkpt lat="45.8361" lon="-0.79202">
        <ele>17</ele>
        <time>2014-09-28T09:18:07.886Z</time>
      </trkpt>
      <trkpt lat="45.83611" lon="-0.79203">
        <ele>17</ele>
        <time>2014-09-28T09:18:08.869Z</time>
      </trkpt>
      <trkpt lat="45.83618" lon="-0.79209">
        <ele>17</ele>
        <time>2014-09-28T09:18:17.830Z</time>
      </trkpt>
      <trkpt lat="45.83619" lon="-0.7921">
        <ele>17</ele>
        <time>2014-09-28T09:18:18.807Z</time>
      </trkpt>
      <trkpt lat="45.83626" lon="-0.79214">
        <ele>16</ele>
        <time>2014-09-28T09:18:34.835Z</time>
      </trkpt>
      <trkpt lat="45.83627" lon="-0.79215">
        <ele>16</ele>
        <time>2014-09-28T09:18:35.832Z</time>
      </trkpt>
      <trkpt lat="45.83634" lon="-0.79209">
        <ele>16</ele>
        <time>2014-09-28T09:18:42.835Z</time>
      </trkpt>
      <trkpt lat="45.83635" lon="-0.79207">
        <ele>16</ele>
        <time>2014-09-28T09:18:43.834Z</time>
      </trkpt>
      <trkpt lat="45.83641" lon="-0.79198">
        <ele>16</ele>
        <time>2014-09-28T09:18:49.827Z</time>
      </trkpt>
      <trkpt lat="45.83642" lon="-0.79197">
        <ele>16</ele>
        <time>2014-09-28T09:18:50.836Z</time>
      </trkpt>
      <trkpt lat="45.8365" lon="-0.79197">
        <ele>15</ele>
        <time>2014-09-28T09:19:04.654Z</time>
      </trkpt>
      <trkpt lat="45.83651" lon="-0.79197">
        <ele>15</ele>
        <time>2014-09-28T09:19:04.828Z</time>
      </trkpt>
      <trkpt lat="45.83659" lon="-0.79194">
        <ele>15</ele>
        <time>2014-09-28T09:19:16.832Z</time>
      </trkpt>
      <trkpt lat="45.83659" lon="-0.79193">
        <ele>15</ele>
        <time>2014-09-28T09:19:17.835Z</time>
      </trkpt>
      <trkpt lat="45.83668" lon="-0.79191">
        <ele>13</ele>
        <time>2014-09-28T09:19:26.831Z</time>
      </trkpt>
      <trkpt lat="45.83668" lon="-0.79191">
        <ele>13</ele>
        <time>2014-09-28T09:19:27.832Z</time>
      </trkpt>
      <trkpt lat="45.83673" lon="-0.79202">
        <ele>13</ele>
        <time>2014-09-28T09:19:41.821Z</time>
      </trkpt>
      <trkpt lat="45.83674" lon="-0.79202">
        <ele>13</ele>
        <time>2014-09-28T09:19:42.886Z</time>
      </trkpt>
      <trkpt lat="45.83681" lon="-0.79209">
        <ele>13</ele>
        <time>2014-09-28T09:19:54.173Z</time>
      </trkpt>
      <trkpt lat="45.83682" lon="-0.79209">
        <ele>13</ele>
        <time>2014-09-28T09:19:54.829Z</time>
      </trkpt>
      <trkpt lat="45.83691" lon="-0.79211">
        <ele>13</ele>
        <time>2014-09-28T09:20:01.114Z</time>
      </trkpt>
      <trkpt lat="45.83692" lon="-0.7921">
        <ele>13</ele>
        <time>2014-09-28T09:20:01.825Z</time>
      </trkpt>
      <trkpt lat="45.83698" lon="-0.79204">
        <ele>13</ele>
        <time>2014-09-28T09:20:09.268Z</time>
      </trkpt>
      <trkpt lat="45.83699" lon="-0.79203">
        <ele>13</ele>
        <time>2014-09-28T09:20:09.833Z</time>
      </trkpt>
      <trkpt lat="45.83706" lon="-0.79196">
        <ele>13</ele>
        <time>2014-09-28T09:20:16.830Z</time>
      </trkpt>
      <trkpt lat="45.83706" lon="-0.79195">
        <ele>13</ele>
        <time>2014-09-28T09:20:17.837Z</time>
      </trkpt>
      <trkpt lat="45.83713" lon="-0.79187">
        <ele>13</ele>
        <time>2014-09-28T09:20:25.832Z</time>
      </trkpt>
      <trkpt lat="45.83714" lon="-0.79186">
        <ele>13</ele>
        <time>2014-09-28T09:20:26.824Z</time>
      </trkpt>
      <trkpt lat="45.83722" lon="-0.79183">
        <ele>14</ele>
        <time>2014-09-28T09:20:36.834Z</time>
      </trkpt>
      <trkpt lat="45.83722" lon="-0.79183">
        <ele>14</ele>
        <time>2014-09-28T09:20:37.836Z</time>
      </trkpt>
      <trkpt lat="45.83729" lon="-0.79189">
        <ele>14</ele>
        <time>2014-09-28T09:20:47.830Z</time>
      </trkpt>
      <trkpt lat="45.8373" lon="-0.7919">
        <ele>14</ele>
        <time>2014-09-28T09:20:48.828Z</time>
      </trkpt>
      <trkpt lat="45.83736" lon="-0.79196">
        <ele>14</ele>
        <time>2014-09-28T09:20:56.838Z</time>
      </trkpt>
      <trkpt lat="45.83738" lon="-0.79197">
        <ele>14</ele>
        <time>2014-09-28T09:20:57.822Z</time>
      </trkpt>
      <trkpt lat="45.83746" lon="-0.79199">
        <ele>14</ele>
        <time>2014-09-28T09:21:04.821Z</time>
      </trkpt>
      <trkpt lat="45.83747" lon="-0.79199">
        <ele>14</ele>
        <time>2014-09-28T09:21:05.829Z</time>
      </trkpt>
      <trkpt lat="45.83755" lon="-0.79204">
        <ele>16</ele>
        <time>2014-09-28T09:21:13.084Z</time>
      </trkpt>
      <trkpt lat="45.83756" lon="-0.79204">
        <ele>16</ele>
        <time>2014-09-28T09:21:13.819Z</time>
      </trkpt>
      <trkpt lat="45.83764" lon="-0.79205">
        <ele>16</ele>
        <time>2014-09-28T09:21:21.909Z</time>
      </trkpt>
      <trkpt lat="45.83766" lon="-0.79204">
        <ele>16</ele>
        <time>2014-09-28T09:21:22.831Z</time>
      </trkpt>
      <trkpt lat="45.83774" lon="-0.79202">
        <ele>16</ele>
        <time>2014-09-28T09:21:30.820Z</time>
      </trkpt>
      <trkpt lat="45.83775" lon="-0.79202">
        <ele>16</ele>
        <time>2014-09-28T09:21:31.819Z</time>
      </trkpt>
      <trkpt lat="45.83784" lon="-0.79202">
        <ele>17</ele>
        <time>2014-09-28T09:21:41.884Z</time>
      </trkpt>
      <trkpt lat="45.83784" lon="-0.79202">
        <ele>17</ele>
        <time>2014-09-28T09:21:42.814Z</time>
      </trkpt>
      <trkpt lat="45.83793" lon="-0.79199">
        <ele>17</ele>
        <time>2014-09-28T09:21:54.738Z</time>
      </trkpt>
      <trkpt lat="45.83794" lon="-0.79198">
        <ele>17</ele>
        <time>2014-09-28T09:21:54.906Z</time>
      </trkpt>
      <trkpt lat="45.83802" lon="-0.79195">
        <ele>17</ele>
        <time>2014-09-28T09:22:01.884Z</time>
      </trkpt>
      <trkpt lat="45.83803" lon="-0.79195">
        <ele>17</ele>
        <time>2014-09-28T09:22:02.900Z</time>
      </trkpt>
      <trkpt lat="45.8381" lon="-0.79189">
        <ele>18</ele>
        <time>2014-09-28T09:22:10.830Z</time>
      </trkpt>
      <trkpt lat="45.83811" lon="-0.79188">
        <ele>18</ele>
        <time>2014-09-28T09:22:11.830Z</time>
      </trkpt>
      <trkpt lat="45.8382" lon="-0.79189">
        <ele>18</ele>
        <time>2014-09-28T09:22:27.840Z</time>
      </trkpt>
      <trkpt lat="45.8382" lon="-0.79189">
        <ele>18</ele>
        <time>2014-09-28T09:22:28.829Z</time>
      </trkpt>
      <trkpt lat="45.83828" lon="-0.79188">
        <ele>18</ele>
        <time>2014-09-28T09:22:39.830Z</time>
      </trkpt>
      <trkpt lat="45.83829" lon="-0.79188">
        <ele>18</ele>
        <time>2014-09-28T09:22:40.835Z</time>
      </trkpt>
      <trkpt lat="45.83837" lon="-0.79183">
        <ele>20</ele>
        <time>2014-09-28T09:22:48.884Z</time>
      </trkpt>
      <trkpt lat="45.83837" lon="-0.79181">
        <ele>20</ele>
        <time>2014-09-28T09:22:49.901Z</time>
      </trkpt>
      <trkpt lat="45.83845" lon="-0.79175">
        <ele>20</ele>
        <time>2014-09-28T09:23:06.828Z</time>
      </trkpt>
      <trkpt lat="45.83845" lon="-0.79175">
        <ele>20</ele>
        <time>2014-09-28T09:23:07.820Z</time>
      </trkpt>
      <trkpt lat="45.83854" lon="-0.79173">
        <ele>20</ele>
        <time>2014-09-28T09:23:23.824Z</time>
      </trkpt>
      <trkpt lat="45.83854" lon="-0.79173">
        <ele>20</ele>
        <time>2014-09-28T09:23:25.146Z</time>
      </trkpt>
      <trkpt lat="45.83862" lon="-0.79176">
        <ele>21</ele>
        <time>2014-09-28T09:23:34.843Z</time>
      </trkpt>
      <trkpt lat="45.83863" lon="-0.79177">
        <ele>21</ele>
        <time>2014-09-28T09:23:35.911Z</time>
      </trkpt>
      <trkpt lat="45.8387" lon="-0.79171">
        <ele>21</ele>
        <time>2014-09-28T09:23:45.841Z</time>
      </trkpt>
      <trkpt lat="45.83872" lon="-0.7917">
        <ele>21</ele>
        <time>2014-09-28T09:23:46.993Z</time>
      </trkpt>
      <trkpt lat="45.83873" lon="-0.79158">
        <ele>20</ele>
        <time>2014-09-28T09:23:54.837Z</time>
      </trkpt>
      <trkpt lat="45.83872" lon="-0.79157">
        <ele>20</ele>
        <time>2014-09-28T09:23:55.844Z</time>
      </trkpt>
      <trkpt lat="45.83877" lon="-0.79146">
        <ele>20</ele>
        <time>2014-09-28T09:24:05.817Z</time>
      </trkpt>
      <trkpt lat="45.83877" lon="-0.79146">
        <ele>20</ele>
        <time>2014-09-28T09:24:06.826Z</time>
      </trkpt>
      <trkpt lat="45.83886" lon="-0.79145">
        <ele>21</ele>
        <time>2014-09-28T09:24:14.821Z</time>
      </trkpt>
      <trkpt lat="45.83887" lon="-0.79145">
        <ele>21</ele>
        <time>2014-09-28T09:24:15.811Z</time>
      </trkpt>
      <trkpt lat="45.83894" lon="-0.79153">
        <ele>21</ele>
        <time>2014-09-28T09:24:27.830Z</time>
      </trkpt>
      <trkpt lat="45.83895" lon="-0.79154">
        <ele>21</ele>
        <time>2014-09-28T09:24:28.830Z</time>
      </trkpt>
      <trkpt lat="45.83904" lon="-0.79153">
        <ele>21</ele>
        <time>2014-09-28T09:24:38.835Z</time>
      </trkpt>
      <trkpt lat="45.83905" lon="-0.79153">
        <ele>22</ele>
        <time>2014-09-28T09:24:39.847Z</time>
      </trkpt>
      <trkpt lat="45.83913" lon="-0.79156">
        <ele>22</ele>
        <time>2014-09-28T09:24:52.841Z</time>
      </trkpt>
      <trkpt lat="45.83914" lon="-0.79157">
        <ele>22</ele>
        <time>2014-09-28T09:24:53.834Z</time>
      </trkpt>
      <trkpt lat="45.83921" lon="-0.79162">
        <ele>23</ele>
        <time>2014-09-28T09:25:01.841Z</time>
      </trkpt>
      <trkpt lat="45.83922" lon="-0.79163">
        <ele>23</ele>
        <time>2014-09-28T09:25:02.836Z</time>
      </trkpt>
      <trkpt lat="45.8392" lon="-0.79174">
        <ele>23</ele>
        <time>2014-09-28T09:25:19.839Z</time>
      </trkpt>
      <trkpt lat="45.83918" lon="-0.79176">
        <ele>22</ele>
        <time>2014-09-28T09:25:20.832Z</time>
      </trkpt>
      <trkpt lat="45.83913" lon="-0.79185">
        <ele>22</ele>
        <time>2014-09-28T09:25:25.824Z</time>
      </trkpt>
      <trkpt lat="45.83912" lon="-0.79186">
        <ele>22</ele>
        <time>2014-09-28T09:25:26.834Z</time>
      </trkpt>
      <trkpt lat="45.83908" lon="-0.79196">
        <ele>22</ele>
        <time>2014-09-28T09:25:32.835Z</time>
      </trkpt>
      <trkpt lat="45.83907" lon="-0.79198">
        <ele>22</ele>
        <time>2014-09-28T09:25:33.829Z</time>
      </trkpt>
      <trkpt lat="45.83903" lon="-0.79208">
        <ele>21</ele>
        <time>2014-09-28T09:25:39.843Z</time>
      </trkpt>
      <trkpt lat="45.83902" lon="-0.7921">
        <ele>21</ele>
        <time>2014-09-28T09:25:40.846Z</time>
      </trkpt>
      <trkpt lat="45.83898" lon="-0.79221">
        <ele>21</ele>
        <time>2014-09-28T09:25:47.838Z</time>
      </trkpt>
      <trkpt lat="45.83897" lon="-0.79223">
        <ele>21</ele>
        <time>2014-09-28T09:25:48.830Z</time>
      </trkpt>
      <trkpt lat="45.83892" lon="-0.79231">
        <ele>21</ele>
        <time>2014-09-28T09:25:54.838Z</time>
      </trkpt>
      <trkpt lat="45.83891" lon="-0.79233">
        <ele>21</ele>
        <time>2014-09-28T09:25:55.925Z</time>
      </trkpt>
      <trkpt lat="45.83884" lon="-0.79239">
        <ele>21</ele>
        <time>2014-09-28T09:26:03.837Z</time>
      </trkpt>
      <trkpt lat="45.83883" lon="-0.7924">
        <ele>21</ele>
        <time>2014-09-28T09:26:04.834Z</time>
      </trkpt>
      <trkpt lat="45.83876" lon="-0.79247">
        <ele>21</ele>
        <time>2014-09-28T09:26:10.835Z</time>
      </trkpt>
      <trkpt lat="45.83875" lon="-0.79248">
        <ele>21</ele>
        <time>2014-09-28T09:26:11.832Z</time>
      </trkpt>
      <trkpt lat="45.83868" lon="-0.79256">
        <ele>21</ele>
        <time>2014-09-28T09:26:19.834Z</time>
      </trkpt>
      <trkpt lat="45.83867" lon="-0.79257">
        <ele>21</ele>
        <time>2014-09-28T09:26:20.863Z</time>
      </trkpt>
      <trkpt lat="45.8386" lon="-0.79264">
        <ele>21</ele>
        <time>2014-09-28T09:26:31.826Z</time>
      </trkpt>
      <trkpt lat="45.83858" lon="-0.79264">
        <ele>21</ele>
        <time>2014-09-28T09:26:32.830Z</time>
      </trkpt>
      <trkpt lat="45.83849" lon="-0.79264">
        <ele>20</ele>
        <time>2014-09-28T09:26:39.836Z</time>
      </trkpt>
      <trkpt lat="45.83848" lon="-0.79264">
        <ele>20</ele>
        <time>2014-09-28T09:26:40.837Z</time>
      </trkpt>
      <trkpt lat="45.8384" lon="-0.79269">
        <ele>20</ele>
        <time>2014-09-28T09:26:46.844Z</time>
      </trkpt>
      <trkpt lat="45.83839" lon="-0.7927">
        <ele>20</ele>
        <time>2014-09-28T09:26:47.845Z</time>
      </trkpt>
      <trkpt lat="45.83832" lon="-0.79276">
        <ele>19</ele>
        <time>2014-09-28T09:26:53.832Z</time>
      </trkpt>
      <trkpt lat="45.83831" lon="-0.79278">
        <ele>19</ele>
        <time>2014-09-28T09:26:54.851Z</time>
      </trkpt>
      <trkpt lat="45.83824" lon="-0.79285">
        <ele>19</ele>
        <time>2014-09-28T09:27:00.830Z</time>
      </trkpt>
      <trkpt lat="45.83823" lon="-0.79287">
        <ele>19</ele>
        <time>2014-09-28T09:27:01.835Z</time>
      </trkpt>
      <trkpt lat="45.83816" lon="-0.79295">
        <ele>19</ele>
        <time>2014-09-28T09:27:08.842Z</time>
      </trkpt>
      <trkpt lat="45.83815" lon="-0.79296">
        <ele>19</ele>
        <time>2014-09-28T09:27:09.845Z</time>
      </trkpt>
      <trkpt lat="45.83809" lon="-0.79303">
        <ele>19</ele>
        <time>2014-09-28T09:27:15.830Z</time>
      </trkpt>
      <trkpt lat="45.83808" lon="-0.79305">
        <ele>19</ele>
        <time>2014-09-28T09:27:16.837Z</time>
      </trkpt>
      <trkpt lat="45.83802" lon="-0.79314">
        <ele>19</ele>
        <time>2014-09-28T09:27:24.841Z</time>
      </trkpt>
      <trkpt lat="45.83801" lon="-0.79315">
        <ele>19</ele>
        <time>2014-09-28T09:27:25.843Z</time>
      </trkpt>
      <trkpt lat="45.83794" lon="-0.79323">
        <ele>19</ele>
        <time>2014-09-28T09:27:32.842Z</time>
      </trkpt>
      <trkpt lat="45.83793" lon="-0.79324">
        <ele>19</ele>
        <time>2014-09-28T09:27:33.819Z</time>
      </trkpt>
      <trkpt lat="45.83786" lon="-0.7933">
        <ele>19</ele>
        <time>2014-09-28T09:27:39.838Z</time>
      </trkpt>
      <trkpt lat="45.83785" lon="-0.7933">
        <ele>19</ele>
        <time>2014-09-28T09:27:40.927Z</time>
      </trkpt>
      <trkpt lat="45.83779" lon="-0.79337">
        <ele>20</ele>
        <time>2014-09-28T09:27:46.840Z</time>
      </trkpt>
      <trkpt lat="45.83778" lon="-0.79339">
        <ele>20</ele>
        <time>2014-09-28T09:27:47.829Z</time>
      </trkpt>
      <trkpt lat="45.83771" lon="-0.79344">
        <ele>20</ele>
        <time>2014-09-28T09:27:54.823Z</time>
      </trkpt>
      <trkpt lat="45.8377" lon="-0.79346">
        <ele>20</ele>
        <time>2014-09-28T09:27:55.809Z</time>
      </trkpt>
      <trkpt lat="45.83764" lon="-0.79355">
        <ele>20</ele>
        <time>2014-09-28T09:28:02.888Z</time>
      </trkpt>
      <trkpt lat="45.83763" lon="-0.79356">
        <ele>20</ele>
        <time>2014-09-28T09:28:03.835Z</time>
      </trkpt>
      <trkpt lat="45.83755" lon="-0.79361">
        <ele>20</ele>
        <time>2014-09-28T09:28:09.875Z</time>
      </trkpt>
      <trkpt lat="45.83754" lon="-0.79361">
        <ele>20</ele>
        <time>2014-09-28T09:28:10.845Z</time>
      </trkpt>
      <trkpt lat="45.83746" lon="-0.79359">
        <ele>19</ele>
        <time>2014-09-28T09:28:16.932Z</time>
      </trkpt>
      <trkpt lat="45.83745" lon="-0.79359">
        <ele>19</ele>
        <time>2014-09-28T09:28:17.837Z</time>
      </trkpt>
      <trkpt lat="45.83737" lon="-0.79356">
        <ele>19</ele>
        <time>2014-09-28T09:28:25.840Z</time>
      </trkpt>
      <trkpt lat="45.83736" lon="-0.79356">
        <ele>19</ele>
        <time>2014-09-28T09:28:26.841Z</time>
      </trkpt>
      <trkpt lat="45.83728" lon="-0.79351">
        <ele>19</ele>
        <time>2014-09-28T09:28:34.877Z</time>
      </trkpt>
      <trkpt lat="45.83727" lon="-0.79351">
        <ele>19</ele>
        <time>2014-09-28T09:28:35.838Z</time>
      </trkpt>
      <trkpt lat="45.83719" lon="-0.79348">
        <ele>19</ele>
        <time>2014-09-28T09:28:41.846Z</time>
      </trkpt>
      <trkpt lat="45.83718" lon="-0.79348">
        <ele>18</ele>
        <time>2014-09-28T09:28:42.846Z</time>
      </trkpt>
      <trkpt lat="45.83709" lon="-0.79346">
        <ele>18</ele>
        <time>2014-09-28T09:28:47.844Z</time>
      </trkpt>
      <trkpt lat="45.83708" lon="-0.79347">
        <ele>18</ele>
        <time>2014-09-28T09:28:48.842Z</time>
      </trkpt>
      <trkpt lat="45.83699" lon="-0.79347">
        <ele>18</ele>
        <time>2014-09-28T09:28:54.828Z</time>
      </trkpt>
      <trkpt lat="45.83698" lon="-0.79346">
        <ele>18</ele>
        <time>2014-09-28T09:28:55.837Z</time>
      </trkpt>
      <trkpt lat="45.8369" lon="-0.79348">
        <ele>18</ele>
        <time>2014-09-28T09:29:03.870Z</time>
      </trkpt>
      <trkpt lat="45.83689" lon="-0.79348">
        <ele>18</ele>
        <time>2014-09-28T09:29:04.816Z</time>
      </trkpt>
      <trkpt lat="45.83681" lon="-0.79353">
        <ele>17</ele>
        <time>2014-09-28T09:29:10.836Z</time>
      </trkpt>
      <trkpt lat="45.8368" lon="-0.79354">
        <ele>17</ele>
        <time>2014-09-28T09:29:11.828Z</time>
      </trkpt>
      <trkpt lat="45.83672" lon="-0.79357">
        <ele>18</ele>
        <time>2014-09-28T09:29:17.830Z</time>
      </trkpt>
      <trkpt lat="45.83671" lon="-0.79358">
        <ele>18</ele>
        <time>2014-09-28T09:29:18.830Z</time>
      </trkpt>
      <trkpt lat="45.83663" lon="-0.79364">
        <ele>18</ele>
        <time>2014-09-28T09:29:24.834Z</time>
      </trkpt>
      <trkpt lat="45.83663" lon="-0.79365">
        <ele>18</ele>
        <time>2014-09-28T09:29:25.831Z</time>
      </trkpt>
      <trkpt lat="45.83655" lon="-0.7937">
        <ele>18</ele>
        <time>2014-09-28T09:29:31.841Z</time>
      </trkpt>
      <trkpt lat="45.83654" lon="-0.79372">
        <ele>18</ele>
        <time>2014-09-28T09:29:32.872Z</time>
      </trkpt>
      <trkpt lat="45.83646" lon="-0.79376">
        <ele>19</ele>
        <time>2014-09-28T09:29:39.548Z</time>
      </trkpt>
      <trkpt lat="45.83645" lon="-0.79377">
        <ele>19</ele>
        <time>2014-09-28T09:29:39.984Z</time>
      </trkpt>
      <trkpt lat="45.83636" lon="-0.79379">
        <ele>19</ele>
        <time>2014-09-28T09:29:49.497Z</time>
      </trkpt>
      <trkpt lat="45.83635" lon="-0.79379">
        <ele>19</ele>
        <time>2014-09-28T09:29:49.827Z</time>
      </trkpt>
      <trkpt lat="45.83628" lon="-0.79384">
        <ele>19</ele>
        <time>2014-09-28T09:29:56.803Z</time>
      </trkpt>
      <trkpt lat="45.83627" lon="-0.79384">
        <ele>19</ele>
        <time>2014-09-28T09:29:57.824Z</time>
      </trkpt>
      <trkpt lat="45.83619" lon="-0.79385">
        <ele>19</ele>
        <time>2014-09-28T09:30:04.609Z</time>
      </trkpt>
      <trkpt lat="45.83617" lon="-0.79385">
        <ele>19</ele>
        <time>2014-09-28T09:30:04.814Z</time>
      </trkpt>
      <trkpt lat="45.83609" lon="-0.79386">
        <ele>19</ele>
        <time>2014-09-28T09:30:10.815Z</time>
      </trkpt>
      <trkpt lat="45.83608" lon="-0.79387">
        <ele>19</ele>
        <time>2014-09-28T09:30:11.822Z</time>
      </trkpt>
      <trkpt lat="45.83599" lon="-0.7939">
        <ele>19</ele>
        <time>2014-09-28T09:30:18.822Z</time>
      </trkpt>
      <trkpt lat="45.83598" lon="-0.79391">
        <ele>19</ele>
        <time>2014-09-28T09:30:19.875Z</time>
      </trkpt>
      <trkpt lat="45.8359" lon="-0.79391">
        <ele>19</ele>
        <time>2014-09-28T09:30:28.829Z</time>
      </trkpt>
      <trkpt lat="45.83588" lon="-0.79391">
        <ele>19</ele>
        <time>2014-09-28T09:30:29.832Z</time>
      </trkpt>
      <trkpt lat="45.83586" lon="-0.7938">
        <ele>19</ele>
        <time>2014-09-28T09:30:40.080Z</time>
      </trkpt>
      <trkpt lat="45.83586" lon="-0.79379">
        <ele>19</ele>
        <time>2014-09-28T09:30:40.823Z</time>
      </trkpt>
      <trkpt lat="45.83584" lon="-0.79367">
        <ele>19</ele>
        <time>2014-09-28T09:30:49.033Z</time>
      </trkpt>
      <trkpt lat="45.83584" lon="-0.79365">
        <ele>19</ele>
        <time>2014-09-28T09:30:49.819Z</time>
      </trkpt>
      <trkpt lat="45.8358" lon="-0.79354">
        <ele>20</ele>
        <time>2014-09-28T09:30:56.826Z</time>
      </trkpt>
      <trkpt lat="45.8358" lon="-0.79353">
        <ele>20</ele>
        <time>2014-09-28T09:30:57.821Z</time>
      </trkpt>
      <trkpt lat="45.83578" lon="-0.7934">
        <ele>19</ele>
        <time>2014-09-28T09:31:06.822Z</time>
      </trkpt>
      <trkpt lat="45.83578" lon="-0.7934">
        <ele>19</ele>
        <time>2014-09-28T09:31:07.818Z</time>
      </trkpt>
      <trkpt lat="45.83571" lon="-0.79333">
        <ele>19</ele>
        <time>2014-09-28T09:31:17.824Z</time>
      </trkpt>
      <trkpt lat="45.8357" lon="-0.79332">
        <ele>19</ele>
        <time>2014-09-28T09:31:18.837Z</time>
      </trkpt>
      <trkpt lat="45.83563" lon="-0.79325">
        <ele>20</ele>
        <time>2014-09-28T09:31:29.835Z</time>
      </trkpt>
      <trkpt lat="45.83562" lon="-0.79325">
        <ele>20</ele>
        <time>2014-09-28T09:31:29.919Z</time>
      </trkpt>
      <trkpt lat="45.83555" lon="-0.79319">
        <ele>20</ele>
        <time>2014-09-28T09:31:38.819Z</time>
      </trkpt>
      <trkpt lat="45.83554" lon="-0.79319">
        <ele>20</ele>
        <time>2014-09-28T09:31:39.813Z</time>
      </trkpt>
      <trkpt lat="45.83545" lon="-0.79319">
        <ele>21</ele>
        <time>2014-09-28T09:31:50.832Z</time>
      </trkpt>
      <trkpt lat="45.83545" lon="-0.79318">
        <ele>21</ele>
        <time>2014-09-28T09:31:51.837Z</time>
      </trkpt>
      <trkpt lat="45.83537" lon="-0.79313">
        <ele>21</ele>
        <time>2014-09-28T09:31:59.914Z</time>
      </trkpt>
      <trkpt lat="45.83535" lon="-0.79313">
        <ele>21</ele>
        <time>2014-09-28T09:32:00.830Z</time>
      </trkpt>
      <trkpt lat="45.83528" lon="-0.79322">
        <ele>21</ele>
        <time>2014-09-28T09:32:05.827Z</time>
      </trkpt>
      <trkpt lat="45.83528" lon="-0.79324">
        <ele>22</ele>
        <time>2014-09-28T09:32:06.835Z</time>
      </trkpt>
      <trkpt lat="45.83523" lon="-0.79334">
        <ele>22</ele>
        <time>2014-09-28T09:32:15.841Z</time>
      </trkpt>
      <trkpt lat="45.83522" lon="-0.79335">
        <ele>22</ele>
        <time>2014-09-28T09:32:16.829Z</time>
      </trkpt>
      <trkpt lat="45.83517" lon="-0.79344">
        <ele>22</ele>
        <time>2014-09-28T09:32:24.829Z</time>
      </trkpt>
      <trkpt lat="45.83517" lon="-0.79347">
        <ele>22</ele>
        <time>2014-09-28T09:32:25.826Z</time>
      </trkpt>
      <trkpt lat="45.83515" lon="-0.79358">
        <ele>22</ele>
        <time>2014-09-28T09:32:34.695Z</time>
      </trkpt>
      <trkpt lat="45.83515" lon="-0.7936">
        <ele>22</ele>
        <time>2014-09-28T09:32:34.844Z</time>
      </trkpt>
      <trkpt lat="45.8351" lon="-0.79369">
        <ele>22</ele>
        <time>2014-09-28T09:32:43.863Z</time>
      </trkpt>
      <trkpt lat="45.83509" lon="-0.7937">
        <ele>22</ele>
        <time>2014-09-28T09:32:44.821Z</time>
      </trkpt>
      <trkpt lat="45.83514" lon="-0.7938">
        <ele>22</ele>
        <time>2014-09-28T09:32:54.085Z</time>
      </trkpt>
      <trkpt lat="45.83515" lon="-0.79381">
        <ele>22</ele>
        <time>2014-09-28T09:32:54.816Z</time>
      </trkpt>
      <trkpt lat="45.83515" lon="-0.79391">
        <ele>22</ele>
        <time>2014-09-28T09:33:00.822Z</time>
      </trkpt>
      <trkpt lat="45.83515" lon="-0.79394">
        <ele>22</ele>
        <time>2014-09-28T09:33:01.934Z</time>
      </trkpt>
      <trkpt lat="45.83515" lon="-0.79406">
        <ele>22</ele>
        <time>2014-09-28T09:33:11.808Z</time>
      </trkpt>
      <trkpt lat="45.83515" lon="-0.79407">
        <ele>22</ele>
        <time>2014-09-28T09:33:12.845Z</time>
      </trkpt>
      <trkpt lat="45.83513" lon="-0.79418">
        <ele>22</ele>
        <time>2014-09-28T09:33:20.819Z</time>
      </trkpt>
      <trkpt lat="45.83513" lon="-0.7942">
        <ele>22</ele>
        <time>2014-09-28T09:33:21.816Z</time>
      </trkpt>
      <trkpt lat="45.83506" lon="-0.79427">
        <ele>22</ele>
        <time>2014-09-28T09:33:29.437Z</time>
      </trkpt>
      <trkpt lat="45.83505" lon="-0.79428">
        <ele>22</ele>
        <time>2014-09-28T09:33:29.817Z</time>
      </trkpt>
      <trkpt lat="45.83498" lon="-0.79434">
        <ele>24</ele>
        <time>2014-09-28T09:33:39.599Z</time>
      </trkpt>
      <trkpt lat="45.83496" lon="-0.79434">
        <ele>24</ele>
        <time>2014-09-28T09:33:39.838Z</time>
      </trkpt>
      <trkpt lat="45.83488" lon="-0.79433">
        <ele>24</ele>
        <time>2014-09-28T09:33:49.152Z</time>
      </trkpt>
      <trkpt lat="45.83487" lon="-0.79433">
        <ele>24</ele>
        <time>2014-09-28T09:33:49.824Z</time>
      </trkpt>
      <trkpt lat="45.83479" lon="-0.7943">
        <ele>24</ele>
        <time>2014-09-28T09:34:06.830Z</time>
      </trkpt>
      <trkpt lat="45.83478" lon="-0.79429">
        <ele>24</ele>
        <time>2014-09-28T09:34:07.862Z</time>
      </trkpt>
      <trkpt lat="45.83472" lon="-0.79419">
        <ele>24</ele>
        <time>2014-09-28T09:34:17.835Z</time>
      </trkpt>
      <trkpt lat="45.83472" lon="-0.79419">
        <ele>24</ele>
        <time>2014-09-28T09:34:18.874Z</time>
      </trkpt>
      <trkpt lat="45.83464" lon="-0.79413">
        <ele>26</ele>
        <time>2014-09-28T09:34:29.662Z</time>
      </trkpt>
      <trkpt lat="45.83463" lon="-0.79412">
        <ele>26</ele>
        <time>2014-09-28T09:34:29.881Z</time>
      </trkpt>
      <trkpt lat="45.83458" lon="-0.79403">
        <ele>26</ele>
        <time>2014-09-28T09:34:39.856Z</time>
      </trkpt>
      <trkpt lat="45.83458" lon="-0.79402">
        <ele>26</ele>
        <time>2014-09-28T09:34:40.894Z</time>
      </trkpt>
      <trkpt lat="45.83451" lon="-0.79396">
        <ele>26</ele>
        <time>2014-09-28T09:34:51.850Z</time>
      </trkpt>
      <trkpt lat="45.83449" lon="-0.79396">
        <ele>26</ele>
        <time>2014-09-28T09:34:52.847Z</time>
      </trkpt>
      <trkpt lat="45.83441" lon="-0.79391">
        <ele>26</ele>
        <time>2014-09-28T09:35:01.843Z</time>
      </trkpt>
      <trkpt lat="45.83441" lon="-0.79391">
        <ele>26</ele>
        <time>2014-09-28T09:35:02.840Z</time>
      </trkpt>
      <trkpt lat="45.83436" lon="-0.79382">
        <ele>26</ele>
        <time>2014-09-28T09:35:11.842Z</time>
      </trkpt>
      <trkpt lat="45.83434" lon="-0.7938">
        <ele>26</ele>
        <time>2014-09-28T09:35:12.842Z</time>
      </trkpt>
      <trkpt lat="45.83426" lon="-0.79378">
        <ele>27</ele>
        <time>2014-09-28T09:35:19.837Z</time>
      </trkpt>
      <trkpt lat="45.83425" lon="-0.79378">
        <ele>27</ele>
        <time>2014-09-28T09:35:20.834Z</time>
      </trkpt>
      <trkpt lat="45.83417" lon="-0.79372">
        <ele>27</ele>
        <time>2014-09-28T09:35:30.845Z</time>
      </trkpt>
      <trkpt lat="45.83416" lon="-0.79372">
        <ele>27</ele>
        <time>2014-09-28T09:35:31.857Z</time>
      </trkpt>
      <trkpt lat="45.83408" lon="-0.79375">
        <ele>27</ele>
        <time>2014-09-28T09:35:38.854Z</time>
      </trkpt>
      <trkpt lat="45.83407" lon="-0.79377">
        <ele>27</ele>
        <time>2014-09-28T09:35:39.863Z</time>
      </trkpt>
      <trkpt lat="45.83398" lon="-0.7938">
        <ele>27</ele>
        <time>2014-09-28T09:35:47.846Z</time>
      </trkpt>
      <trkpt lat="45.83397" lon="-0.7938">
        <ele>27</ele>
        <time>2014-09-28T09:35:48.853Z</time>
      </trkpt>
      <trkpt lat="45.83389" lon="-0.79375">
        <ele>26</ele>
        <time>2014-09-28T09:35:55.843Z</time>
      </trkpt>
      <trkpt lat="45.83388" lon="-0.79375">
        <ele>26</ele>
        <time>2014-09-28T09:35:56.840Z</time>
      </trkpt>
      <trkpt lat="45.83381" lon="-0.79368">
        <ele>26</ele>
        <time>2014-09-28T09:36:04.378Z</time>
      </trkpt>
      <trkpt lat="45.83381" lon="-0.79366">
        <ele>26</ele>
        <time>2014-09-28T09:36:04.836Z</time>
      </trkpt>
      <trkpt lat="45.83381" lon="-0.79354">
        <ele>26</ele>
        <time>2014-09-28T09:36:10.836Z</time>
      </trkpt>
      <trkpt lat="45.83381" lon="-0.79351">
        <ele>26</ele>
        <time>2014-09-28T09:36:11.824Z</time>
      </trkpt>
      <trkpt lat="45.83374" lon="-0.79343">
        <ele>26</ele>
        <time>2014-09-28T09:36:26.830Z</time>
      </trkpt>
      <trkpt lat="45.83373" lon="-0.79342">
        <ele>26</ele>
        <time>2014-09-28T09:36:27.812Z</time>
      </trkpt>
      <trkpt lat="45.83364" lon="-0.79343">
        <ele>26</ele>
        <time>2014-09-28T09:36:34.916Z</time>
      </trkpt>
      <trkpt lat="45.83364" lon="-0.79342">
        <ele>25</ele>
        <time>2014-09-28T09:36:35.827Z</time>
      </trkpt>
      <trkpt lat="45.83356" lon="-0.79335">
        <ele>25</ele>
        <time>2014-09-28T09:36:45.825Z</time>
      </trkpt>
      <trkpt lat="45.83355" lon="-0.79336">
        <ele>25</ele>
        <time>2014-09-28T09:36:46.852Z</time>
      </trkpt>
      <trkpt lat="45.83349" lon="-0.79341">
        <ele>25</ele>
        <time>2014-09-28T09:36:54.099Z</time>
      </trkpt>
      <trkpt lat="45.83348" lon="-0.79343">
        <ele>25</ele>
        <time>2014-09-28T09:36:54.852Z</time>
      </trkpt>
      <trkpt lat="45.83341" lon="-0.79349">
        <ele>25</ele>
        <time>2014-09-28T09:36:59.825Z</time>
      </trkpt>
      <trkpt lat="45.8334" lon="-0.79349">
        <ele>25</ele>
        <time>2014-09-28T09:37:00.836Z</time>
      </trkpt>
      <trkpt lat="45.83333" lon="-0.79354">
        <ele>24</ele>
        <time>2014-09-28T09:37:05.843Z</time>
      </trkpt>
      <trkpt lat="45.83331" lon="-0.79355">
        <ele>23</ele>
        <time>2014-09-28T09:37:07.009Z</time>
      </trkpt>
      <trkpt lat="45.83323" lon="-0.79354">
        <ele>23</ele>
        <time>2014-09-28T09:37:11.851Z</time>
      </trkpt>
      <trkpt lat="45.83322" lon="-0.79354">
        <ele>23</ele>
        <time>2014-09-28T09:37:12.839Z</time>
      </trkpt>
      <trkpt lat="45.83314" lon="-0.79359">
        <ele>23</ele>
        <time>2014-09-28T09:37:19.243Z</time>
      </trkpt>
      <trkpt lat="45.83313" lon="-0.79359">
        <ele>23</ele>
        <time>2014-09-28T09:37:19.825Z</time>
      </trkpt>
      <trkpt lat="45.83304" lon="-0.79363">
        <ele>23</ele>
        <time>2014-09-28T09:37:26.839Z</time>
      </trkpt>
      <trkpt lat="45.83303" lon="-0.79363">
        <ele>23</ele>
        <time>2014-09-28T09:37:27.839Z</time>
      </trkpt>
      <trkpt lat="45.83295" lon="-0.79362">
        <ele>23</ele>
        <time>2014-09-28T09:37:34.842Z</time>
      </trkpt>
      <trkpt lat="45.83293" lon="-0.79361">
        <ele>23</ele>
        <time>2014-09-28T09:37:35.902Z</time>
      </trkpt>
      <trkpt lat="45.8329" lon="-0.79349">
        <ele>23</ele>
        <time>2014-09-28T09:37:44.501Z</time>
      </trkpt>
      <trkpt lat="45.8329" lon="-0.79347">
        <ele>23</ele>
        <time>2014-09-28T09:37:44.833Z</time>
      </trkpt>
      <trkpt lat="45.83287" lon="-0.79336">
        <ele>23</ele>
        <time>2014-09-28T09:37:50.821Z</time>
      </trkpt>
      <trkpt lat="45.83286" lon="-0.79335">
        <ele>23</ele>
        <time>2014-09-28T09:37:51.838Z</time>
      </trkpt>
      <trkpt lat="45.83281" lon="-0.79326">
        <ele>22</ele>
        <time>2014-09-28T09:37:57.826Z</time>
      </trkpt>
      <trkpt lat="45.83281" lon="-0.79324">
        <ele>22</ele>
        <time>2014-09-28T09:37:58.837Z</time>
      </trkpt>
      <trkpt lat="45.83279" lon="-0.79313">
        <ele>22</ele>
        <time>2014-09-28T09:38:06.835Z</time>
      </trkpt>
      <trkpt lat="45.83278" lon="-0.79311">
        <ele>22</ele>
        <time>2014-09-28T09:38:07.841Z</time>
      </trkpt>
      <trkpt lat="45.83273" lon="-0.79301">
        <ele>22</ele>
        <time>2014-09-28T09:38:15.843Z</time>
      </trkpt>
      <trkpt lat="45.83273" lon="-0.793">
        <ele>22</ele>
        <time>2014-09-28T09:38:16.838Z</time>
      </trkpt>
      <trkpt lat="45.83271" lon="-0.79289">
        <ele>22</ele>
        <time>2014-09-28T09:38:24.401Z</time>
      </trkpt>
      <trkpt lat="45.8327" lon="-0.79287">
        <ele>22</ele>
        <time>2014-09-28T09:38:24.845Z</time>
      </trkpt>
      <trkpt lat="45.83266" lon="-0.79276">
        <ele>22</ele>
        <time>2014-09-28T09:38:29.832Z</time>
      </trkpt>
      <trkpt lat="45.83265" lon="-0.79275">
        <ele>22</ele>
        <time>2014-09-28T09:38:30.843Z</time>
      </trkpt>
      <trkpt lat="45.8326" lon="-0.79266">
        <ele>22</ele>
        <time>2014-09-28T09:38:36.833Z</time>
      </trkpt>
      <trkpt lat="45.83259" lon="-0.79263">
        <ele>22</ele>
        <time>2014-09-28T09:38:37.843Z</time>
      </trkpt>
      <trkpt lat="45.83254" lon="-0.79252">
        <ele>21</ele>
        <time>2014-09-28T09:38:44.824Z</time>
      </trkpt>
      <trkpt lat="45.83254" lon="-0.79251">
        <ele>21</ele>
        <time>2014-09-28T09:38:45.837Z</time>
      </trkpt>
      <trkpt lat="45.83249" lon="-0.7924">
        <ele>21</ele>
        <time>2014-09-28T09:38:54.114Z</time>
      </trkpt>
      <trkpt lat="45.83249" lon="-0.79238">
        <ele>21</ele>
        <time>2014-09-28T09:38:54.821Z</time>
      </trkpt>
      <trkpt lat="45.83245" lon="-0.79228">
        <ele>20</ele>
        <time>2014-09-28T09:38:59.833Z</time>
      </trkpt>
      <trkpt lat="45.83244" lon="-0.79226">
        <ele>20</ele>
        <time>2014-09-28T09:39:00.817Z</time>
      </trkpt>
      <trkpt lat="45.83239" lon="-0.79216">
        <ele>20</ele>
        <time>2014-09-28T09:39:07.826Z</time>
      </trkpt>
      <trkpt lat="45.83239" lon="-0.79215">
        <ele>20</ele>
        <time>2014-09-28T09:39:08.846Z</time>
      </trkpt>
      <trkpt lat="45.83233" lon="-0.79205">
        <ele>20</ele>
        <time>2014-09-28T09:39:16.834Z</time>
      </trkpt>
      <trkpt lat="45.83232" lon="-0.79204">
        <ele>20</ele>
        <time>2014-09-28T09:39:17.835Z</time>
      </trkpt>
      <trkpt lat="45.83228" lon="-0.79193">
        <ele>20</ele>
        <time>2014-09-28T09:39:26.843Z</time>
      </trkpt>
      <trkpt lat="45.83227" lon="-0.79191">
        <ele>20</ele>
        <time>2014-09-28T09:39:27.846Z</time>
      </trkpt>
      <trkpt lat="45.83223" lon="-0.7918">
        <ele>20</ele>
        <time>2014-09-28T09:39:34.844Z</time>
      </trkpt>
      <trkpt lat="45.83222" lon="-0.79178">
        <ele>20</ele>
        <time>2014-09-28T09:39:34.899Z</time>
      </trkpt>
      <trkpt lat="45.83219" lon="-0.79166">
        <ele>19</ele>
        <time>2014-09-28T09:39:41.834Z</time>
      </trkpt>
      <trkpt lat="45.83218" lon="-0.79165">
        <ele>19</ele>
        <time>2014-09-28T09:39:42.838Z</time>
      </trkpt>
      <trkpt lat="45.83213" lon="-0.79154">
        <ele>19</ele>
        <time>2014-09-28T09:39:54.094Z</time>
      </trkpt>
      <trkpt lat="45.83213" lon="-0.79153">
        <ele>19</ele>
        <time>2014-09-28T09:39:54.848Z</time>
      </trkpt>
      <trkpt lat="45.83206" lon="-0.79148">
        <ele>19</ele>
        <time>2014-09-28T09:40:04.151Z</time>
      </trkpt>
      <trkpt lat="45.83205" lon="-0.79148">
        <ele>19</ele>
        <time>2014-09-28T09:40:04.845Z</time>
      </trkpt>
      <trkpt lat="45.83196" lon="-0.79146">
        <ele>19</ele>
        <time>2014-09-28T09:40:10.848Z</time>
      </trkpt>
      <trkpt lat="45.83195" lon="-0.79145">
        <ele>19</ele>
        <time>2014-09-28T09:40:11.850Z</time>
      </trkpt>
      <trkpt lat="45.83186" lon="-0.79142">
        <ele>19</ele>
        <time>2014-09-28T09:40:17.820Z</time>
      </trkpt>
      <trkpt lat="45.83185" lon="-0.79142">
        <ele>19</ele>
        <time>2014-09-28T09:40:18.829Z</time>
      </trkpt>
      <trkpt lat="45.83177" lon="-0.79141">
        <ele>19</ele>
        <time>2014-09-28T09:40:24.833Z</time>
      </trkpt>
      <trkpt lat="45.83176" lon="-0.79141">
        <ele>19</ele>
        <time>2014-09-28T09:40:25.835Z</time>
      </trkpt>
      <trkpt lat="45.83167" lon="-0.79139">
        <ele>19</ele>
        <time>2014-09-28T09:40:34.945Z</time>
      </trkpt>
      <trkpt lat="45.83164" lon="-0.79138">
        <ele>19</ele>
        <time>2014-09-28T09:40:35.838Z</time>
      </trkpt>
      <trkpt lat="45.83156" lon="-0.79135">
        <ele>19</ele>
        <time>2014-09-28T09:40:41.844Z</time>
      </trkpt>
      <trkpt lat="45.83154" lon="-0.79134">
        <ele>19</ele>
        <time>2014-09-28T09:40:42.834Z</time>
      </trkpt>
      <trkpt lat="45.83147" lon="-0.79129">
        <ele>19</ele>
        <time>2014-09-28T09:40:49.928Z</time>
      </trkpt>
      <trkpt lat="45.83145" lon="-0.79128">
        <ele>19</ele>
        <time>2014-09-28T09:40:50.840Z</time>
      </trkpt>
      <trkpt lat="45.83139" lon="-0.7912">
        <ele>18</ele>
        <time>2014-09-28T09:40:57.013Z</time>
      </trkpt>
      <trkpt lat="45.83138" lon="-0.79119">
        <ele>18</ele>
        <time>2014-09-28T09:40:57.838Z</time>
      </trkpt>
      <trkpt lat="45.8313" lon="-0.79113">
        <ele>18</ele>
        <time>2014-09-28T09:41:04.835Z</time>
      </trkpt>
      <trkpt lat="45.83129" lon="-0.79112">
        <ele>18</ele>
        <time>2014-09-28T09:41:05.845Z</time>
      </trkpt>
      <trkpt lat="45.83121" lon="-0.79106">
        <ele>18</ele>
        <time>2014-09-28T09:41:12.843Z</time>
      </trkpt>
      <trkpt lat="45.8312" lon="-0.79105">
        <ele>18</ele>
        <time>2014-09-28T09:41:13.845Z</time>
      </trkpt>
      <trkpt lat="45.83114" lon="-0.79096">
        <ele>18</ele>
        <time>2014-09-28T09:41:20.849Z</time>
      </trkpt>
      <trkpt lat="45.83113" lon="-0.79095">
        <ele>18</ele>
        <time>2014-09-28T09:41:21.845Z</time>
      </trkpt>
      <trkpt lat="45.83106" lon="-0.79089">
        <ele>18</ele>
        <time>2014-09-28T09:41:27.831Z</time>
      </trkpt>
      <trkpt lat="45.83105" lon="-0.79087">
        <ele>18</ele>
        <time>2014-09-28T09:41:28.835Z</time>
      </trkpt>
      <trkpt lat="45.83099" lon="-0.79079">
        <ele>17</ele>
        <time>2014-09-28T09:41:35.838Z</time>
      </trkpt>
      <trkpt lat="45.83098" lon="-0.79078">
        <ele>17</ele>
        <time>2014-09-28T09:41:36.842Z</time>
      </trkpt>
      <trkpt lat="45.83093" lon="-0.7907">
        <ele>17</ele>
        <time>2014-09-28T09:41:42.847Z</time>
      </trkpt>
      <trkpt lat="45.83091" lon="-0.79068">
        <ele>17</ele>
        <time>2014-09-28T09:41:43.833Z</time>
      </trkpt>
      <trkpt lat="45.83087" lon="-0.79058">
        <ele>17</ele>
        <time>2014-09-28T09:41:49.054Z</time>
      </trkpt>
      <trkpt lat="45.83086" lon="-0.79056">
        <ele>17</ele>
        <time>2014-09-28T09:41:49.839Z</time>
      </trkpt>
      <trkpt lat="45.83081" lon="-0.79047">
        <ele>17</ele>
        <time>2014-09-28T09:41:56.839Z</time>
      </trkpt>
      <trkpt lat="45.8308" lon="-0.79045">
        <ele>17</ele>
        <time>2014-09-28T09:41:57.862Z</time>
      </trkpt>
      <trkpt lat="45.83075" lon="-0.79036">
        <ele>17</ele>
        <time>2014-09-28T09:42:04.375Z</time>
      </trkpt>
      <trkpt lat="45.83075" lon="-0.79034">
        <ele>17</ele>
        <time>2014-09-28T09:42:04.844Z</time>
      </trkpt>
      <trkpt lat="45.8307" lon="-0.79024">
        <ele>17</ele>
        <time>2014-09-28T09:42:11.842Z</time>
      </trkpt>
      <trkpt lat="45.83068" lon="-0.79022">
        <ele>17</ele>
        <time>2014-09-28T09:42:12.846Z</time>
      </trkpt>
      <trkpt lat="45.83063" lon="-0.79013">
        <ele>18</ele>
        <time>2014-09-28T09:42:19.508Z</time>
      </trkpt>
      <trkpt lat="45.83062" lon="-0.79011">
        <ele>18</ele>
        <time>2014-09-28T09:42:19.839Z</time>
      </trkpt>
      <trkpt lat="45.83058" lon="-0.79002">
        <ele>18</ele>
        <time>2014-09-28T09:42:25.841Z</time>
      </trkpt>
      <trkpt lat="45.83058" lon="-0.79">
        <ele>18</ele>
        <time>2014-09-28T09:42:26.831Z</time>
      </trkpt>
      <trkpt lat="45.83053" lon="-0.78991">
        <ele>18</ele>
        <time>2014-09-28T09:42:34.847Z</time>
      </trkpt>
      <trkpt lat="45.83052" lon="-0.78989">
        <ele>18</ele>
        <time>2014-09-28T09:42:35.843Z</time>
      </trkpt>
      <trkpt lat="45.83046" lon="-0.7898">
        <ele>18</ele>
        <time>2014-09-28T09:42:44.609Z</time>
      </trkpt>
      <trkpt lat="45.83045" lon="-0.78979">
        <ele>18</ele>
        <time>2014-09-28T09:42:44.831Z</time>
      </trkpt>
      <trkpt lat="45.83041" lon="-0.78968">
        <ele>18</ele>
        <time>2014-09-28T09:42:50.843Z</time>
      </trkpt>
      <trkpt lat="45.8304" lon="-0.78966">
        <ele>18</ele>
        <time>2014-09-28T09:42:51.835Z</time>
      </trkpt>
      <trkpt lat="45.83034" lon="-0.78956">
        <ele>19</ele>
        <time>2014-09-28T09:42:57.835Z</time>
      </trkpt>
      <trkpt lat="45.83034" lon="-0.78954">
        <ele>19</ele>
        <time>2014-09-28T09:42:58.904Z</time>
      </trkpt>
      <trkpt lat="45.83029" lon="-0.78944">
        <ele>19</ele>
        <time>2014-09-28T09:43:05.840Z</time>
      </trkpt>
      <trkpt lat="45.83028" lon="-0.78942">
        <ele>19</ele>
        <time>2014-09-28T09:43:06.846Z</time>
      </trkpt>
      <trkpt lat="45.83023" lon="-0.78932">
        <ele>19</ele>
        <time>2014-09-28T09:43:14.454Z</time>
      </trkpt>
      <trkpt lat="45.83023" lon="-0.78931">
        <ele>19</ele>
        <time>2014-09-28T09:43:14.834Z</time>
      </trkpt>
      <trkpt lat="45.83018" lon="-0.78922">
        <ele>19</ele>
        <time>2014-09-28T09:43:20.833Z</time>
      </trkpt>
      <trkpt lat="45.83017" lon="-0.7892">
        <ele>19</ele>
        <time>2014-09-28T09:43:21.835Z</time>
      </trkpt>
      <trkpt lat="45.83012" lon="-0.78911">
        <ele>19</ele>
        <time>2014-09-28T09:43:27.864Z</time>
      </trkpt>
      <trkpt lat="45.83011" lon="-0.78909">
        <ele>19</ele>
        <time>2014-09-28T09:43:28.837Z</time>
      </trkpt>
      <trkpt lat="45.83006" lon="-0.78901">
        <ele>19</ele>
        <time>2014-09-28T09:43:33.846Z</time>
      </trkpt>
      <trkpt lat="45.83005" lon="-0.78899">
        <ele>19</ele>
        <time>2014-09-28T09:43:34.905Z</time>
      </trkpt>
      <trkpt lat="45.83" lon="-0.78888">
        <ele>19</ele>
        <time>2014-09-28T09:43:41.871Z</time>
      </trkpt>
      <trkpt lat="45.82999" lon="-0.78887">
        <ele>19</ele>
        <time>2014-09-28T09:43:42.841Z</time>
      </trkpt>
      <trkpt lat="45.82991" lon="-0.78882">
        <ele>19</ele>
        <time>2014-09-28T09:43:50.864Z</time>
      </trkpt>
      <trkpt lat="45.8299" lon="-0.78882">
        <ele>19</ele>
        <time>2014-09-28T09:43:51.848Z</time>
      </trkpt>
      <trkpt lat="45.82982" lon="-0.78875">
        <ele>20</ele>
        <time>2014-09-28T09:43:57.844Z</time>
      </trkpt>
      <trkpt lat="45.82981" lon="-0.78873">
        <ele>20</ele>
        <time>2014-09-28T09:43:58.849Z</time>
      </trkpt>
      <trkpt lat="45.82975" lon="-0.78867">
        <ele>20</ele>
        <time>2014-09-28T09:44:06.993Z</time>
      </trkpt>
      <trkpt lat="45.82973" lon="-0.78866">
        <ele>20</ele>
        <time>2014-09-28T09:44:07.826Z</time>
      </trkpt>
      <trkpt lat="45.82967" lon="-0.78859">
        <ele>20</ele>
        <time>2014-09-28T09:44:22.840Z</time>
      </trkpt>
      <trkpt lat="45.82965" lon="-0.78858">
        <ele>20</ele>
        <time>2014-09-28T09:44:23.838Z</time>
      </trkpt>
      <trkpt lat="45.82959" lon="-0.78851">
        <ele>20</ele>
        <time>2014-09-28T09:44:29.957Z</time>
      </trkpt>
      <trkpt lat="45.82957" lon="-0.78849">
        <ele>19</ele>
        <time>2014-09-28T09:44:30.841Z</time>
      </trkpt>
      <trkpt lat="45.82952" lon="-0.78841">
        <ele>19</ele>
        <time>2014-09-28T09:44:36.845Z</time>
      </trkpt>
      <trkpt lat="45.8295" lon="-0.7884">
        <ele>19</ele>
        <time>2014-09-28T09:44:37.870Z</time>
      </trkpt>
      <trkpt lat="45.82944" lon="-0.78834">
        <ele>19</ele>
        <time>2014-09-28T09:44:44.349Z</time>
      </trkpt>
      <trkpt lat="45.82943" lon="-0.78833">
        <ele>20</ele>
        <time>2014-09-28T09:44:44.838Z</time>
      </trkpt>
      <trkpt lat="45.82936" lon="-0.78827">
        <ele>20</ele>
        <time>2014-09-28T09:44:50.842Z</time>
      </trkpt>
      <trkpt lat="45.82935" lon="-0.78827">
        <ele>20</ele>
        <time>2014-09-28T09:44:51.845Z</time>
      </trkpt>
      <trkpt lat="45.82927" lon="-0.7882">
        <ele>20</ele>
        <time>2014-09-28T09:44:59.487Z</time>
      </trkpt>
      <trkpt lat="45.82926" lon="-0.78819">
        <ele>20</ele>
        <time>2014-09-28T09:44:59.844Z</time>
      </trkpt>
      <trkpt lat="45.82918" lon="-0.78814">
        <ele>20</ele>
        <time>2014-09-28T09:45:05.836Z</time>
      </trkpt>
      <trkpt lat="45.82917" lon="-0.78813">
        <ele>20</ele>
        <time>2014-09-28T09:45:06.842Z</time>
      </trkpt>
      <trkpt lat="45.82908" lon="-0.7881">
        <ele>20</ele>
        <time>2014-09-28T09:45:12.833Z</time>
      </trkpt>
      <trkpt lat="45.82907" lon="-0.7881">
        <ele>20</ele>
        <time>2014-09-28T09:45:13.838Z</time>
      </trkpt>
      <trkpt lat="45.82899" lon="-0.78807">
        <ele>20</ele>
        <time>2014-09-28T09:45:20.838Z</time>
      </trkpt>
      <trkpt lat="45.82898" lon="-0.78806">
        <ele>20</ele>
        <time>2014-09-28T09:45:21.840Z</time>
      </trkpt>
      <trkpt lat="45.82889" lon="-0.78804">
        <ele>21</ele>
        <time>2014-09-28T09:45:28.853Z</time>
      </trkpt>
      <trkpt lat="45.82888" lon="-0.78804">
        <ele>21</ele>
        <time>2014-09-28T09:45:29.853Z</time>
      </trkpt>
      <trkpt lat="45.8288" lon="-0.78799">
        <ele>21</ele>
        <time>2014-09-28T09:45:36.846Z</time>
      </trkpt>
      <trkpt lat="45.82879" lon="-0.78799">
        <ele>21</ele>
        <time>2014-09-28T09:45:37.948Z</time>
      </trkpt>
      <trkpt lat="45.8287" lon="-0.78796">
        <ele>21</ele>
        <time>2014-09-28T09:45:45.515Z</time>
      </trkpt>
      <trkpt lat="45.82869" lon="-0.78796">
        <ele>21</ele>
        <time>2014-09-28T09:45:45.847Z</time>
      </trkpt>
      <trkpt lat="45.82861" lon="-0.78792">
        <ele>21</ele>
        <time>2014-09-28T09:45:51.837Z</time>
      </trkpt>
      <trkpt lat="45.8286" lon="-0.78791">
        <ele>21</ele>
        <time>2014-09-28T09:45:52.817Z</time>
      </trkpt>
      <trkpt lat="45.82852" lon="-0.78785">
        <ele>21</ele>
        <time>2014-09-28T09:45:59.080Z</time>
      </trkpt>
      <trkpt lat="45.82851" lon="-0.78785">
        <ele>21</ele>
        <time>2014-09-28T09:45:59.837Z</time>
      </trkpt>
      <trkpt lat="45.82843" lon="-0.78781">
        <ele>22</ele>
        <time>2014-09-28T09:46:05.834Z</time>
      </trkpt>
      <trkpt lat="45.82841" lon="-0.7878">
        <ele>22</ele>
        <time>2014-09-28T09:46:06.836Z</time>
      </trkpt>
      <trkpt lat="45.82832" lon="-0.78777">
        <ele>23</ele>
        <time>2014-09-28T09:46:14.126Z</time>
      </trkpt>
      <trkpt lat="45.82831" lon="-0.78777">
        <ele>23</ele>
        <time>2014-09-28T09:46:14.832Z</time>
      </trkpt>
      <trkpt lat="45.82823" lon="-0.78773">
        <ele>23</ele>
        <time>2014-09-28T09:46:21.832Z</time>
      </trkpt>
      <trkpt lat="45.82821" lon="-0.78772">
        <ele>23</ele>
        <time>2014-09-28T09:46:22.833Z</time>
      </trkpt>
      <trkpt lat="45.82813" lon="-0.78769">
        <ele>23</ele>
        <time>2014-09-28T09:46:29.172Z</time>
      </trkpt>
      <trkpt lat="45.82812" lon="-0.78769">
        <ele>23</ele>
        <time>2014-09-28T09:46:29.830Z</time>
      </trkpt>
      <trkpt lat="45.82804" lon="-0.78766">
        <ele>24</ele>
        <time>2014-09-28T09:46:36.834Z</time>
      </trkpt>
      <trkpt lat="45.82804" lon="-0.78765">
        <ele>24</ele>
        <time>2014-09-28T09:46:37.834Z</time>
      </trkpt>
      <trkpt lat="45.82796" lon="-0.78761">
        <ele>24</ele>
        <time>2014-09-28T09:46:44.196Z</time>
      </trkpt>
      <trkpt lat="45.82795" lon="-0.7876">
        <ele>24</ele>
        <time>2014-09-28T09:46:44.817Z</time>
      </trkpt>
      <trkpt lat="45.82787" lon="-0.78757">
        <ele>24</ele>
        <time>2014-09-28T09:46:51.920Z</time>
      </trkpt>
      <trkpt lat="45.82786" lon="-0.78757">
        <ele>24</ele>
        <time>2014-09-28T09:46:52.817Z</time>
      </trkpt>
      <trkpt lat="45.82777" lon="-0.78754">
        <ele>24</ele>
        <time>2014-09-28T09:47:00.826Z</time>
      </trkpt>
      <trkpt lat="45.82776" lon="-0.78754">
        <ele>24</ele>
        <time>2014-09-28T09:47:01.848Z</time>
      </trkpt>
      <trkpt lat="45.82768" lon="-0.78751">
        <ele>24</ele>
        <time>2014-09-28T09:47:07.966Z</time>
      </trkpt>
      <trkpt lat="45.82767" lon="-0.78751">
        <ele>24</ele>
        <time>2014-09-28T09:47:08.847Z</time>
      </trkpt>
      <trkpt lat="45.82759" lon="-0.78747">
        <ele>25</ele>
        <time>2014-09-28T09:47:15.827Z</time>
      </trkpt>
      <trkpt lat="45.82758" lon="-0.78747">
        <ele>25</ele>
        <time>2014-09-28T09:47:16.840Z</time>
      </trkpt>
      <trkpt lat="45.8275" lon="-0.78744">
        <ele>25</ele>
        <time>2014-09-28T09:47:23.846Z</time>
      </trkpt>
      <trkpt lat="45.82749" lon="-0.78744">
        <ele>25</ele>
        <time>2014-09-28T09:47:24.850Z</time>
      </trkpt>
      <trkpt lat="45.8274" lon="-0.78741">
        <ele>25</ele>
        <time>2014-09-28T09:47:30.846Z</time>
      </trkpt>
      <trkpt lat="45.82739" lon="-0.78741">
        <ele>25</ele>
        <time>2014-09-28T09:47:31.838Z</time>
      </trkpt>
      <trkpt lat="45.82731" lon="-0.78737">
        <ele>25</ele>
        <time>2014-09-28T09:47:38.847Z</time>
      </trkpt>
      <trkpt lat="45.8273" lon="-0.78737">
        <ele>25</ele>
        <time>2014-09-28T09:47:39.834Z</time>
      </trkpt>
      <trkpt lat="45.82722" lon="-0.78733">
        <ele>25</ele>
        <time>2014-09-28T09:47:46.826Z</time>
      </trkpt>
      <trkpt lat="45.8272" lon="-0.78732">
        <ele>25</ele>
        <time>2014-09-28T09:47:47.851Z</time>
      </trkpt>
      <trkpt lat="45.82713" lon="-0.78728">
        <ele>25</ele>
        <time>2014-09-28T09:47:54.838Z</time>
      </trkpt>
      <trkpt lat="45.82712" lon="-0.78727">
        <ele>25</ele>
        <time>2014-09-28T09:47:55.844Z</time>
      </trkpt>
      <trkpt lat="45.82703" lon="-0.78723">
        <ele>25</ele>
        <time>2014-09-28T09:48:02.841Z</time>
      </trkpt>
      <trkpt lat="45.82702" lon="-0.78723">
        <ele>25</ele>
        <time>2014-09-28T09:48:03.846Z</time>
      </trkpt>
      <trkpt lat="45.82695" lon="-0.78719">
        <ele>25</ele>
        <time>2014-09-28T09:48:09.837Z</time>
      </trkpt>
      <trkpt lat="45.82693" lon="-0.78718">
        <ele>25</ele>
        <time>2014-09-28T09:48:10.844Z</time>
      </trkpt>
      <trkpt lat="45.82685" lon="-0.78716">
        <ele>25</ele>
        <time>2014-09-28T09:48:17.848Z</time>
      </trkpt>
      <trkpt lat="45.82684" lon="-0.78715">
        <ele>25</ele>
        <time>2014-09-28T09:48:18.983Z</time>
      </trkpt>
      <trkpt lat="45.82676" lon="-0.78711">
        <ele>25</ele>
        <time>2014-09-28T09:48:24.838Z</time>
      </trkpt>
      <trkpt lat="45.82675" lon="-0.78711">
        <ele>25</ele>
        <time>2014-09-28T09:48:25.837Z</time>
      </trkpt>
      <trkpt lat="45.82667" lon="-0.78708">
        <ele>25</ele>
        <time>2014-09-28T09:48:31.844Z</time>
      </trkpt>
      <trkpt lat="45.82666" lon="-0.78708">
        <ele>25</ele>
        <time>2014-09-28T09:48:32.844Z</time>
      </trkpt>
      <trkpt lat="45.82659" lon="-0.78703">
        <ele>25</ele>
        <time>2014-09-28T09:48:39.640Z</time>
      </trkpt>
      <trkpt lat="45.82658" lon="-0.78703">
        <ele>25</ele>
        <time>2014-09-28T09:48:39.848Z</time>
      </trkpt>
      <trkpt lat="45.82649" lon="-0.787">
        <ele>25</ele>
        <time>2014-09-28T09:48:46.845Z</time>
      </trkpt>
      <trkpt lat="45.82648" lon="-0.787">
        <ele>25</ele>
        <time>2014-09-28T09:48:47.980Z</time>
      </trkpt>
      <trkpt lat="45.82641" lon="-0.78695">
        <ele>25</ele>
        <time>2014-09-28T09:48:54.096Z</time>
      </trkpt>
      <trkpt lat="45.8264" lon="-0.78694">
        <ele>25</ele>
        <time>2014-09-28T09:48:54.852Z</time>
      </trkpt>
      <trkpt lat="45.82633" lon="-0.78691">
        <ele>24</ele>
        <time>2014-09-28T09:49:00.851Z</time>
      </trkpt>
      <trkpt lat="45.82631" lon="-0.7869">
        <ele>24</ele>
        <time>2014-09-28T09:49:01.846Z</time>
      </trkpt>
      <trkpt lat="45.82624" lon="-0.78685">
        <ele>24</ele>
        <time>2014-09-28T09:49:07.849Z</time>
      </trkpt>
      <trkpt lat="45.82623" lon="-0.78685">
        <ele>24</ele>
        <time>2014-09-28T09:49:08.849Z</time>
      </trkpt>
      <trkpt lat="45.82616" lon="-0.78681">
        <ele>24</ele>
        <time>2014-09-28T09:49:14.308Z</time>
      </trkpt>
      <trkpt lat="45.82614" lon="-0.78681">
        <ele>24</ele>
        <time>2014-09-28T09:49:14.887Z</time>
      </trkpt>
      <trkpt lat="45.82607" lon="-0.78677">
        <ele>24</ele>
        <time>2014-09-28T09:49:20.852Z</time>
      </trkpt>
      <trkpt lat="45.82606" lon="-0.78676">
        <ele>24</ele>
        <time>2014-09-28T09:49:21.849Z</time>
      </trkpt>
      <trkpt lat="45.82597" lon="-0.78674">
        <ele>23</ele>
        <time>2014-09-28T09:49:30.839Z</time>
      </trkpt>
      <trkpt lat="45.82595" lon="-0.78674">
        <ele>23</ele>
        <time>2014-09-28T09:49:31.842Z</time>
      </trkpt>
      <trkpt lat="45.82587" lon="-0.78672">
        <ele>23</ele>
        <time>2014-09-28T09:49:37.848Z</time>
      </trkpt>
      <trkpt lat="45.82586" lon="-0.78671">
        <ele>22</ele>
        <time>2014-09-28T09:49:38.850Z</time>
      </trkpt>
      <trkpt lat="45.82578" lon="-0.78666">
        <ele>22</ele>
        <time>2014-09-28T09:49:45.845Z</time>
      </trkpt>
      <trkpt lat="45.82577" lon="-0.78666">
        <ele>21</ele>
        <time>2014-09-28T09:49:46.838Z</time>
      </trkpt>
      <trkpt lat="45.8257" lon="-0.7866">
        <ele>21</ele>
        <time>2014-09-28T09:49:52.852Z</time>
      </trkpt>
      <trkpt lat="45.82569" lon="-0.78659">
        <ele>21</ele>
        <time>2014-09-28T09:49:53.853Z</time>
      </trkpt>
      <trkpt lat="45.82561" lon="-0.78657">
        <ele>21</ele>
        <time>2014-09-28T09:49:59.840Z</time>
      </trkpt>
      <trkpt lat="45.8256" lon="-0.78656">
        <ele>21</ele>
        <time>2014-09-28T09:50:00.827Z</time>
      </trkpt>
      <trkpt lat="45.82552" lon="-0.78653">
        <ele>20</ele>
        <time>2014-09-28T09:50:09.308Z</time>
      </trkpt>
      <trkpt lat="45.82551" lon="-0.78652">
        <ele>20</ele>
        <time>2014-09-28T09:50:09.848Z</time>
      </trkpt>
      <trkpt lat="45.82542" lon="-0.78648">
        <ele>20</ele>
        <time>2014-09-28T09:50:16.851Z</time>
      </trkpt>
      <trkpt lat="45.82541" lon="-0.78648">
        <ele>20</ele>
        <time>2014-09-28T09:50:17.850Z</time>
      </trkpt>
      <trkpt lat="45.82533" lon="-0.78646">
        <ele>20</ele>
        <time>2014-09-28T09:50:24.529Z</time>
      </trkpt>
      <trkpt lat="45.82532" lon="-0.78646">
        <ele>20</ele>
        <time>2014-09-28T09:50:24.828Z</time>
      </trkpt>
      <trkpt lat="45.82525" lon="-0.78643">
        <ele>20</ele>
        <time>2014-09-28T09:50:29.978Z</time>
      </trkpt>
      <trkpt lat="45.82523" lon="-0.78642">
        <ele>20</ele>
        <time>2014-09-28T09:50:30.841Z</time>
      </trkpt>
      <trkpt lat="45.82515" lon="-0.78639">
        <ele>20</ele>
        <time>2014-09-28T09:50:36.835Z</time>
      </trkpt>
      <trkpt lat="45.82513" lon="-0.78638">
        <ele>20</ele>
        <time>2014-09-28T09:50:37.836Z</time>
      </trkpt>
      <trkpt lat="45.82505" lon="-0.78634">
        <ele>20</ele>
        <time>2014-09-28T09:50:44.899Z</time>
      </trkpt>
      <trkpt lat="45.82503" lon="-0.78634">
        <ele>20</ele>
        <time>2014-09-28T09:50:45.828Z</time>
      </trkpt>
      <trkpt lat="45.82495" lon="-0.78631">
        <ele>20</ele>
        <time>2014-09-28T09:50:50.832Z</time>
      </trkpt>
      <trkpt lat="45.82494" lon="-0.7863">
        <ele>20</ele>
        <time>2014-09-28T09:50:51.831Z</time>
      </trkpt>
      <trkpt lat="45.82486" lon="-0.78627">
        <ele>20</ele>
        <time>2014-09-28T09:50:59.246Z</time>
      </trkpt>
      <trkpt lat="45.82484" lon="-0.78626">
        <ele>20</ele>
        <time>2014-09-28T09:50:59.840Z</time>
      </trkpt>
      <trkpt lat="45.82475" lon="-0.78624">
        <ele>20</ele>
        <time>2014-09-28T09:51:06.846Z</time>
      </trkpt>
      <trkpt lat="45.82474" lon="-0.78624">
        <ele>20</ele>
        <time>2014-09-28T09:51:07.854Z</time>
      </trkpt>
      <trkpt lat="45.82466" lon="-0.78623">
        <ele>20</ele>
        <time>2014-09-28T09:51:14.955Z</time>
      </trkpt>
      <trkpt lat="45.82465" lon="-0.78623">
        <ele>20</ele>
        <time>2014-09-28T09:51:15.841Z</time>
      </trkpt>
      <trkpt lat="45.82457" lon="-0.78622">
        <ele>20</ele>
        <time>2014-09-28T09:51:20.849Z</time>
      </trkpt>
      <trkpt lat="45.82456" lon="-0.78622">
        <ele>20</ele>
        <time>2014-09-28T09:51:21.965Z</time>
      </trkpt>
      <trkpt lat="45.82447" lon="-0.78621">
        <ele>20</ele>
        <time>2014-09-28T09:51:27.848Z</time>
      </trkpt>
      <trkpt lat="45.82445" lon="-0.78622">
        <ele>20</ele>
        <time>2014-09-28T09:51:28.854Z</time>
      </trkpt>
      <trkpt lat="45.82437" lon="-0.78622">
        <ele>20</ele>
        <time>2014-09-28T09:51:36.839Z</time>
      </trkpt>
      <trkpt lat="45.82436" lon="-0.78622">
        <ele>20</ele>
        <time>2014-09-28T09:51:37.839Z</time>
      </trkpt>
      <trkpt lat="45.82428" lon="-0.78625">
        <ele>20</ele>
        <time>2014-09-28T09:51:44.455Z</time>
      </trkpt>
      <trkpt lat="45.82426" lon="-0.78625">
        <ele>20</ele>
        <time>2014-09-28T09:51:44.843Z</time>
      </trkpt>
      <trkpt lat="45.82419" lon="-0.78627">
        <ele>20</ele>
        <time>2014-09-28T09:51:51.844Z</time>
      </trkpt>
      <trkpt lat="45.82417" lon="-0.78627">
        <ele>20</ele>
        <time>2014-09-28T09:51:52.844Z</time>
      </trkpt>
      <trkpt lat="45.82409" lon="-0.78629">
        <ele>19</ele>
        <time>2014-09-28T09:51:59.841Z</time>
      </trkpt>
      <trkpt lat="45.82408" lon="-0.7863">
        <ele>19</ele>
        <time>2014-09-28T09:52:00.831Z</time>
      </trkpt>
      <trkpt lat="45.824" lon="-0.78633">
        <ele>19</ele>
        <time>2014-09-28T09:52:07.851Z</time>
      </trkpt>
      <trkpt lat="45.82398" lon="-0.78634">
        <ele>19</ele>
        <time>2014-09-28T09:52:08.843Z</time>
      </trkpt>
      <trkpt lat="45.8239" lon="-0.78637">
        <ele>19</ele>
        <time>2014-09-28T09:52:14.838Z</time>
      </trkpt>
      <trkpt lat="45.82389" lon="-0.78637">
        <ele>19</ele>
        <time>2014-09-28T09:52:15.840Z</time>
      </trkpt>
      <trkpt lat="45.8238" lon="-0.78636">
        <ele>19</ele>
        <time>2014-09-28T09:52:24.549Z</time>
      </trkpt>
      <trkpt lat="45.82379" lon="-0.78635">
        <ele>19</ele>
        <time>2014-09-28T09:52:24.835Z</time>
      </trkpt>
      <trkpt lat="45.82371" lon="-0.78635">
        <ele>19</ele>
        <time>2014-09-28T09:52:30.833Z</time>
      </trkpt>
      <trkpt lat="45.8237" lon="-0.78635">
        <ele>19</ele>
        <time>2014-09-28T09:52:31.831Z</time>
      </trkpt>
      <trkpt lat="45.82362" lon="-0.78638">
        <ele>19</ele>
        <time>2014-09-28T09:52:37.829Z</time>
      </trkpt>
      <trkpt lat="45.8236" lon="-0.78638">
        <ele>19</ele>
        <time>2014-09-28T09:52:38.830Z</time>
      </trkpt>
      <trkpt lat="45.82352" lon="-0.7864">
        <ele>19</ele>
        <time>2014-09-28T09:52:46.839Z</time>
      </trkpt>
      <trkpt lat="45.82351" lon="-0.7864">
        <ele>19</ele>
        <time>2014-09-28T09:52:47.816Z</time>
      </trkpt>
      <trkpt lat="45.82342" lon="-0.78637">
        <ele>19</ele>
        <time>2014-09-28T09:52:55.829Z</time>
      </trkpt>
      <trkpt lat="45.82341" lon="-0.78637">
        <ele>19</ele>
        <time>2014-09-28T09:52:56.848Z</time>
      </trkpt>
      <trkpt lat="45.82333" lon="-0.78635">
        <ele>18</ele>
        <time>2014-09-28T09:53:01.837Z</time>
      </trkpt>
      <trkpt lat="45.82332" lon="-0.78635">
        <ele>18</ele>
        <time>2014-09-28T09:53:02.818Z</time>
      </trkpt>
      <trkpt lat="45.82324" lon="-0.78634">
        <ele>18</ele>
        <time>2014-09-28T09:53:10.846Z</time>
      </trkpt>
      <trkpt lat="45.82323" lon="-0.78634">
        <ele>18</ele>
        <time>2014-09-28T09:53:11.843Z</time>
      </trkpt>
      <trkpt lat="45.82315" lon="-0.78634">
        <ele>18</ele>
        <time>2014-09-28T09:53:19.259Z</time>
      </trkpt>
      <trkpt lat="45.82313" lon="-0.78633">
        <ele>18</ele>
        <time>2014-09-28T09:53:19.847Z</time>
      </trkpt>
      <trkpt lat="45.82305" lon="-0.78634">
        <ele>18</ele>
        <time>2014-09-28T09:53:27.855Z</time>
      </trkpt>
      <trkpt lat="45.82304" lon="-0.78633">
        <ele>18</ele>
        <time>2014-09-28T09:53:28.856Z</time>
      </trkpt>
      <trkpt lat="45.82295" lon="-0.78633">
        <ele>18</ele>
        <time>2014-09-28T09:53:35.846Z</time>
      </trkpt>
      <trkpt lat="45.82294" lon="-0.78633">
        <ele>18</ele>
        <time>2014-09-28T09:53:36.840Z</time>
      </trkpt>
      <trkpt lat="45.82287" lon="-0.78633">
        <ele>18</ele>
        <time>2014-09-28T09:53:42.850Z</time>
      </trkpt>
      <trkpt lat="45.82285" lon="-0.78632">
        <ele>18</ele>
        <time>2014-09-28T09:53:43.843Z</time>
      </trkpt>
      <trkpt lat="45.82276" lon="-0.78634">
        <ele>18</ele>
        <time>2014-09-28T09:53:49.820Z</time>
      </trkpt>
      <trkpt lat="45.82275" lon="-0.78634">
        <ele>18</ele>
        <time>2014-09-28T09:53:50.828Z</time>
      </trkpt>
      <trkpt lat="45.82267" lon="-0.78635">
        <ele>18</ele>
        <time>2014-09-28T09:53:59.268Z</time>
      </trkpt>
      <trkpt lat="45.82266" lon="-0.78635">
        <ele>18</ele>
        <time>2014-09-28T09:53:59.833Z</time>
      </trkpt>
      <trkpt lat="45.82257" lon="-0.78636">
        <ele>18</ele>
        <time>2014-09-28T09:54:07.825Z</time>
      </trkpt>
      <trkpt lat="45.82256" lon="-0.78637">
        <ele>18</ele>
        <time>2014-09-28T09:54:08.837Z</time>
      </trkpt>
      <trkpt lat="45.82248" lon="-0.78639">
        <ele>18</ele>
        <time>2014-09-28T09:54:14.965Z</time>
      </trkpt>
      <trkpt lat="45.82247" lon="-0.78639">
        <ele>18</ele>
        <time>2014-09-28T09:54:15.831Z</time>
      </trkpt>
      <trkpt lat="45.8224" lon="-0.78635">
        <ele>18</ele>
        <time>2014-09-28T09:54:22.832Z</time>
      </trkpt>
      <trkpt lat="45.82238" lon="-0.78634">
        <ele>18</ele>
        <time>2014-09-28T09:54:23.831Z</time>
      </trkpt>
      <trkpt lat="45.82229" lon="-0.78631">
        <ele>18</ele>
        <time>2014-09-28T09:54:31.847Z</time>
      </trkpt>
      <trkpt lat="45.82228" lon="-0.78631">
        <ele>18</ele>
        <time>2014-09-28T09:54:32.901Z</time>
      </trkpt>
      <trkpt lat="45.8222" lon="-0.7863">
        <ele>18</ele>
        <time>2014-09-28T09:54:40.805Z</time>
      </trkpt>
      <trkpt lat="45.82219" lon="-0.78629">
        <ele>18</ele>
        <time>2014-09-28T09:54:41.830Z</time>
      </trkpt>
      <trkpt lat="45.82211" lon="-0.78626">
        <ele>18</ele>
        <time>2014-09-28T09:54:47.890Z</time>
      </trkpt>
      <trkpt lat="45.8221" lon="-0.78626">
        <ele>18</ele>
        <time>2014-09-28T09:54:48.829Z</time>
      </trkpt>
      <trkpt lat="45.82201" lon="-0.78623">
        <ele>18</ele>
        <time>2014-09-28T09:54:57.831Z</time>
      </trkpt>
      <trkpt lat="45.822" lon="-0.78623">
        <ele>18</ele>
        <time>2014-09-28T09:54:58.819Z</time>
      </trkpt>
      <trkpt lat="45.82192" lon="-0.78622">
        <ele>18</ele>
        <time>2014-09-28T09:55:06.839Z</time>
      </trkpt>
      <trkpt lat="45.82191" lon="-0.78622">
        <ele>18</ele>
        <time>2014-09-28T09:55:07.838Z</time>
      </trkpt>
      <trkpt lat="45.82182" lon="-0.78624">
        <ele>18</ele>
        <time>2014-09-28T09:55:19.582Z</time>
      </trkpt>
      <trkpt lat="45.8218" lon="-0.78625">
        <ele>18</ele>
        <time>2014-09-28T09:55:19.843Z</time>
      </trkpt>
      <trkpt lat="45.82172" lon="-0.78625">
        <ele>18</ele>
        <time>2014-09-28T09:55:24.900Z</time>
      </trkpt>
      <trkpt lat="45.82171" lon="-0.78625">
        <ele>18</ele>
        <time>2014-09-28T09:55:25.837Z</time>
      </trkpt>
      <trkpt lat="45.82164" lon="-0.78618">
        <ele>18</ele>
        <time>2014-09-28T09:55:45.832Z</time>
      </trkpt>
      <trkpt lat="45.82164" lon="-0.78617">
        <ele>18</ele>
        <time>2014-09-28T09:55:46.828Z</time>
      </trkpt>
      <trkpt lat="45.82164" lon="-0.78605">
        <ele>18</ele>
        <time>2014-09-28T09:55:57.836Z</time>
      </trkpt>
      <trkpt lat="45.82166" lon="-0.78605">
        <ele>18</ele>
        <time>2014-09-28T09:55:58.846Z</time>
      </trkpt>
      <trkpt lat="45.8217" lon="-0.78594">
        <ele>18</ele>
        <time>2014-09-28T09:56:14.835Z</time>
      </trkpt>
      <trkpt lat="45.82171" lon="-0.78594">
        <ele>18</ele>
        <time>2014-09-28T09:56:15.822Z</time>
      </trkpt>
      <trkpt lat="45.82179" lon="-0.78597">
        <ele>18</ele>
        <time>2014-09-28T09:56:25.817Z</time>
      </trkpt>
      <trkpt lat="45.82181" lon="-0.78598">
        <ele>18</ele>
        <time>2014-09-28T09:56:26.821Z</time>
      </trkpt>
      <trkpt lat="45.82188" lon="-0.78603">
        <ele>18</ele>
        <time>2014-09-28T09:56:31.959Z</time>
      </trkpt>
      <trkpt lat="45.82189" lon="-0.78604">
        <ele>18</ele>
        <time>2014-09-28T09:56:32.838Z</time>
      </trkpt>
      <trkpt lat="45.82196" lon="-0.78608">
        <ele>18</ele>
        <time>2014-09-28T09:56:39.018Z</time>
      </trkpt>
      <trkpt lat="45.82198" lon="-0.78608">
        <ele>18</ele>
        <time>2014-09-28T09:56:39.826Z</time>
      </trkpt>
      <trkpt lat="45.82204" lon="-0.786">
        <ele>17</ele>
        <time>2014-09-28T09:56:46.812Z</time>
      </trkpt>
      <trkpt lat="45.82205" lon="-0.78599">
        <ele>17</ele>
        <time>2014-09-28T09:56:47.821Z</time>
      </trkpt>
      <trkpt lat="45.82212" lon="-0.78592">
        <ele>17</ele>
        <time>2014-09-28T09:56:55.827Z</time>
      </trkpt>
      <trkpt lat="45.82213" lon="-0.78593">
        <ele>17</ele>
        <time>2014-09-28T09:56:56.821Z</time>
      </trkpt>
      <trkpt lat="45.82221" lon="-0.78591">
        <ele>17</ele>
        <time>2014-09-28T09:57:01.829Z</time>
      </trkpt>
      <trkpt lat="45.82222" lon="-0.7859">
        <ele>17</ele>
        <time>2014-09-28T09:57:02.831Z</time>
      </trkpt>
      <trkpt lat="45.8223" lon="-0.78586">
        <ele>17</ele>
        <time>2014-09-28T09:57:09.840Z</time>
      </trkpt>
      <trkpt lat="45.82232" lon="-0.78585">
        <ele>16</ele>
        <time>2014-09-28T09:57:10.836Z</time>
      </trkpt>
      <trkpt lat="45.82239" lon="-0.78579">
        <ele>16</ele>
        <time>2014-09-28T09:57:19.281Z</time>
      </trkpt>
      <trkpt lat="45.8224" lon="-0.78578">
        <ele>16</ele>
        <time>2014-09-28T09:57:19.834Z</time>
      </trkpt>
      <trkpt lat="45.82248" lon="-0.78573">
        <ele>16</ele>
        <time>2014-09-28T09:57:27.827Z</time>
      </trkpt>
      <trkpt lat="45.82249" lon="-0.78572">
        <ele>16</ele>
        <time>2014-09-28T09:57:28.822Z</time>
      </trkpt>
      <trkpt lat="45.82249" lon="-0.78561">
        <ele>16</ele>
        <time>2014-09-28T09:57:34.435Z</time>
      </trkpt>
      <trkpt lat="45.82248" lon="-0.78558">
        <ele>17</ele>
        <time>2014-09-28T09:57:34.829Z</time>
      </trkpt>
      <trkpt lat="45.82247" lon="-0.78547">
        <ele>17</ele>
        <time>2014-09-28T09:57:44.830Z</time>
      </trkpt>
      <trkpt lat="45.82247" lon="-0.78545">
        <ele>17</ele>
        <time>2014-09-28T09:57:45.836Z</time>
      </trkpt>
      <trkpt lat="45.8224" lon="-0.78539">
        <ele>17</ele>
        <time>2014-09-28T09:57:54.895Z</time>
      </trkpt>
      <trkpt lat="45.82239" lon="-0.78537">
        <ele>17</ele>
        <time>2014-09-28T09:57:55.832Z</time>
      </trkpt>
      <trkpt lat="45.82234" lon="-0.78528">
        <ele>17</ele>
        <time>2014-09-28T09:58:04.812Z</time>
      </trkpt>
      <trkpt lat="45.82234" lon="-0.78526">
        <ele>17</ele>
        <time>2014-09-28T09:58:05.829Z</time>
      </trkpt>
      <trkpt lat="45.82229" lon="-0.78515">
        <ele>17</ele>
        <time>2014-09-28T09:58:12.814Z</time>
      </trkpt>
      <trkpt lat="45.82229" lon="-0.78514">
        <ele>17</ele>
        <time>2014-09-28T09:58:13.810Z</time>
      </trkpt>
      <trkpt lat="45.82226" lon="-0.78502">
        <ele>17</ele>
        <time>2014-09-28T09:58:23.812Z</time>
      </trkpt>
      <trkpt lat="45.82226" lon="-0.78501">
        <ele>17</ele>
        <time>2014-09-28T09:58:24.826Z</time>
      </trkpt>
      <trkpt lat="45.82221" lon="-0.78491">
        <ele>18</ele>
        <time>2014-09-28T09:58:33.815Z</time>
      </trkpt>
      <trkpt lat="45.8222" lon="-0.7849">
        <ele>18</ele>
        <time>2014-09-28T09:58:34.825Z</time>
      </trkpt>
      <trkpt lat="45.82217" lon="-0.78479">
        <ele>18</ele>
        <time>2014-09-28T09:58:45.402Z</time>
      </trkpt>
      <trkpt lat="45.82216" lon="-0.78477">
        <ele>18</ele>
        <time>2014-09-28T09:58:45.832Z</time>
      </trkpt>
      <trkpt lat="45.82212" lon="-0.78468">
        <ele>18</ele>
        <time>2014-09-28T09:58:52.839Z</time>
      </trkpt>
      <trkpt lat="45.82211" lon="-0.78467">
        <ele>18</ele>
        <time>2014-09-28T09:58:53.834Z</time>
      </trkpt>
      <trkpt lat="45.82204" lon="-0.78459">
        <ele>18</ele>
        <time>2014-09-28T09:59:01.840Z</time>
      </trkpt>
      <trkpt lat="45.82204" lon="-0.78458">
        <ele>18</ele>
        <time>2014-09-28T09:59:03.010Z</time>
      </trkpt>
      <trkpt lat="45.82199" lon="-0.78447">
        <ele>18</ele>
        <time>2014-09-28T09:59:09.974Z</time>
      </trkpt>
      <trkpt lat="45.82199" lon="-0.78445">
        <ele>18</ele>
        <time>2014-09-28T09:59:10.814Z</time>
      </trkpt>
      <trkpt lat="45.82199" lon="-0.78433">
        <ele>18</ele>
        <time>2014-09-28T09:59:17.815Z</time>
      </trkpt>
      <trkpt lat="45.82199" lon="-0.78431">
        <ele>18</ele>
        <time>2014-09-28T09:59:18.825Z</time>
      </trkpt>
      <trkpt lat="45.82199" lon="-0.78419">
        <ele>18</ele>
        <time>2014-09-28T09:59:25.827Z</time>
      </trkpt>
      <trkpt lat="45.822" lon="-0.78417">
        <ele>18</ele>
        <time>2014-09-28T09:59:26.834Z</time>
      </trkpt>
      <trkpt lat="45.82201" lon="-0.78406">
        <ele>17</ele>
        <time>2014-09-28T09:59:35.180Z</time>
      </trkpt>
      <trkpt lat="45.82202" lon="-0.78404">
        <ele>17</ele>
        <time>2014-09-28T09:59:35.830Z</time>
      </trkpt>
      <trkpt lat="45.82206" lon="-0.78393">
        <ele>17</ele>
        <time>2014-09-28T09:59:45.302Z</time>
      </trkpt>
      <trkpt lat="45.82207" lon="-0.78394">
        <ele>17</ele>
        <time>2014-09-28T09:59:45.831Z</time>
      </trkpt>
      <trkpt lat="45.82215" lon="-0.78394">
        <ele>16</ele>
        <time>2014-09-28T09:59:59.237Z</time>
      </trkpt>
      <trkpt lat="45.82216" lon="-0.78394">
        <ele>16</ele>
        <time>2014-09-28T09:59:59.851Z</time>
      </trkpt>
      <trkpt lat="45.82221" lon="-0.78384">
        <ele>16</ele>
        <time>2014-09-28T10:00:09.289Z</time>
      </trkpt>
      <trkpt lat="45.82222" lon="-0.78382">
        <ele>16</ele>
        <time>2014-09-28T10:00:09.830Z</time>
      </trkpt>
      <trkpt lat="45.82221" lon="-0.7837">
        <ele>16</ele>
        <time>2014-09-28T10:00:17.844Z</time>
      </trkpt>
      <trkpt lat="45.8222" lon="-0.78369">
        <ele>16</ele>
        <time>2014-09-28T10:00:18.844Z</time>
      </trkpt>
      <trkpt lat="45.82214" lon="-0.7836">
        <ele>16</ele>
        <time>2014-09-28T10:00:26.835Z</time>
      </trkpt>
      <trkpt lat="45.82213" lon="-0.78359">
        <ele>16</ele>
        <time>2014-09-28T10:00:27.832Z</time>
      </trkpt>
      <trkpt lat="45.82207" lon="-0.7835">
        <ele>16</ele>
        <time>2014-09-28T10:00:34.439Z</time>
      </trkpt>
      <trkpt lat="45.82206" lon="-0.78348">
        <ele>16</ele>
        <time>2014-09-28T10:00:34.831Z</time>
      </trkpt>
      <trkpt lat="45.822" lon="-0.78338">
        <ele>16</ele>
        <time>2014-09-28T10:00:41.820Z</time>
      </trkpt>
      <trkpt lat="45.822" lon="-0.78337">
        <ele>16</ele>
        <time>2014-09-28T10:00:42.830Z</time>
      </trkpt>
      <trkpt lat="45.82201" lon="-0.78325">
        <ele>15</ele>
        <time>2014-09-28T10:00:56.829Z</time>
      </trkpt>
      <trkpt lat="45.82202" lon="-0.78324">
        <ele>15</ele>
        <time>2014-09-28T10:00:57.831Z</time>
      </trkpt>
      <trkpt lat="45.82206" lon="-0.78314">
        <ele>15</ele>
        <time>2014-09-28T10:01:04.832Z</time>
      </trkpt>
      <trkpt lat="45.82206" lon="-0.78313">
        <ele>15</ele>
        <time>2014-09-28T10:01:05.827Z</time>
      </trkpt>
      <trkpt lat="45.8221" lon="-0.78301">
        <ele>15</ele>
        <time>2014-09-28T10:01:20.841Z</time>
      </trkpt>
      <trkpt lat="45.82211" lon="-0.783">
        <ele>15</ele>
        <time>2014-09-28T10:01:21.833Z</time>
      </trkpt>
      <trkpt lat="45.82216" lon="-0.78292">
        <ele>15</ele>
        <time>2014-09-28T10:01:29.595Z</time>
      </trkpt>
      <trkpt lat="45.82217" lon="-0.78291">
        <ele>15</ele>
        <time>2014-09-28T10:01:29.821Z</time>
      </trkpt>
      <trkpt lat="45.82213" lon="-0.7828">
        <ele>15</ele>
        <time>2014-09-28T10:01:45.825Z</time>
      </trkpt>
      <trkpt lat="45.82212" lon="-0.78278">
        <ele>15</ele>
        <time>2014-09-28T10:01:46.828Z</time>
      </trkpt>
      <trkpt lat="45.82211" lon="-0.78267">
        <ele>15</ele>
        <time>2014-09-28T10:02:09.445Z</time>
      </trkpt>
      <trkpt lat="45.82211" lon="-0.78264">
        <ele>15</ele>
        <time>2014-09-28T10:02:09.957Z</time>
      </trkpt>
      <trkpt lat="45.82209" lon="-0.78253">
        <ele>15</ele>
        <time>2014-09-28T10:02:15.809Z</time>
      </trkpt>
      <trkpt lat="45.82208" lon="-0.78252">
        <ele>15</ele>
        <time>2014-09-28T10:02:16.816Z</time>
      </trkpt>
      <trkpt lat="45.82203" lon="-0.78243">
        <ele>16</ele>
        <time>2014-09-28T10:02:22.820Z</time>
      </trkpt>
      <trkpt lat="45.82203" lon="-0.78241">
        <ele>16</ele>
        <time>2014-09-28T10:02:23.819Z</time>
      </trkpt>
      <trkpt lat="45.82198" lon="-0.78232">
        <ele>16</ele>
        <time>2014-09-28T10:02:31.844Z</time>
      </trkpt>
      <trkpt lat="45.82198" lon="-0.7823">
        <ele>16</ele>
        <time>2014-09-28T10:02:32.836Z</time>
      </trkpt>
      <trkpt lat="45.82192" lon="-0.78224">
        <ele>16</ele>
        <time>2014-09-28T10:02:36.826Z</time>
      </trkpt>
      <trkpt lat="45.8219" lon="-0.78222">
        <ele>16</ele>
        <time>2014-09-28T10:02:37.835Z</time>
      </trkpt>
      <trkpt lat="45.82186" lon="-0.78211">
        <ele>16</ele>
        <time>2014-09-28T10:02:45.014Z</time>
      </trkpt>
      <trkpt lat="45.82186" lon="-0.78209">
        <ele>16</ele>
        <time>2014-09-28T10:02:45.826Z</time>
      </trkpt>
      <trkpt lat="45.82184" lon="-0.78198">
        <ele>16</ele>
        <time>2014-09-28T10:02:51.835Z</time>
      </trkpt>
      <trkpt lat="45.82184" lon="-0.78197">
        <ele>16</ele>
        <time>2014-09-28T10:02:52.836Z</time>
      </trkpt>
      <trkpt lat="45.82182" lon="-0.78184">
        <ele>16</ele>
        <time>2014-09-28T10:02:59.836Z</time>
      </trkpt>
      <trkpt lat="45.82182" lon="-0.78183">
        <ele>16</ele>
        <time>2014-09-28T10:03:00.826Z</time>
      </trkpt>
      <trkpt lat="45.82182" lon="-0.78171">
        <ele>16</ele>
        <time>2014-09-28T10:03:07.831Z</time>
      </trkpt>
      <trkpt lat="45.82182" lon="-0.78168">
        <ele>16</ele>
        <time>2014-09-28T10:03:08.967Z</time>
      </trkpt>
      <trkpt lat="45.82182" lon="-0.78155">
        <ele>17</ele>
        <time>2014-09-28T10:03:15.834Z</time>
      </trkpt>
      <trkpt lat="45.82182" lon="-0.78153">
        <ele>17</ele>
        <time>2014-09-28T10:03:16.842Z</time>
      </trkpt>
      <trkpt lat="45.8218" lon="-0.78142">
        <ele>18</ele>
        <time>2014-09-28T10:03:22.833Z</time>
      </trkpt>
      <trkpt lat="45.8218" lon="-0.78141">
        <ele>18</ele>
        <time>2014-09-28T10:03:23.835Z</time>
      </trkpt>
      <trkpt lat="45.82179" lon="-0.78129">
        <ele>18</ele>
        <time>2014-09-28T10:03:30.815Z</time>
      </trkpt>
      <trkpt lat="45.82179" lon="-0.78126">
        <ele>18</ele>
        <time>2014-09-28T10:03:31.829Z</time>
      </trkpt>
      <trkpt lat="45.82178" lon="-0.78114">
        <ele>18</ele>
        <time>2014-09-28T10:03:39.625Z</time>
      </trkpt>
      <trkpt lat="45.82177" lon="-0.78112">
        <ele>18</ele>
        <time>2014-09-28T10:03:39.825Z</time>
      </trkpt>
      <trkpt lat="45.82175" lon="-0.781">
        <ele>19</ele>
        <time>2014-09-28T10:03:46.833Z</time>
      </trkpt>
      <trkpt lat="45.82175" lon="-0.78098">
        <ele>19</ele>
        <time>2014-09-28T10:03:47.840Z</time>
      </trkpt>
      <trkpt lat="45.82174" lon="-0.78086">
        <ele>19</ele>
        <time>2014-09-28T10:03:55.820Z</time>
      </trkpt>
      <trkpt lat="45.82173" lon="-0.78084">
        <ele>19</ele>
        <time>2014-09-28T10:03:56.830Z</time>
      </trkpt>
      <trkpt lat="45.82171" lon="-0.78072">
        <ele>20</ele>
        <time>2014-09-28T10:04:02.869Z</time>
      </trkpt>
      <trkpt lat="45.8217" lon="-0.7807">
        <ele>20</ele>
        <time>2014-09-28T10:04:03.837Z</time>
      </trkpt>
      <trkpt lat="45.82167" lon="-0.78059">
        <ele>20</ele>
        <time>2014-09-28T10:04:09.833Z</time>
      </trkpt>
      <trkpt lat="45.82167" lon="-0.78057">
        <ele>20</ele>
        <time>2014-09-28T10:04:10.839Z</time>
      </trkpt>
      <trkpt lat="45.82167" lon="-0.78045">
        <ele>21</ele>
        <time>2014-09-28T10:04:16.826Z</time>
      </trkpt>
      <trkpt lat="45.82167" lon="-0.78043">
        <ele>21</ele>
        <time>2014-09-28T10:04:17.829Z</time>
      </trkpt>
      <trkpt lat="45.82163" lon="-0.78032">
        <ele>20</ele>
        <time>2014-09-28T10:04:26.820Z</time>
      </trkpt>
      <trkpt lat="45.82162" lon="-0.78031">
        <ele>20</ele>
        <time>2014-09-28T10:04:27.838Z</time>
      </trkpt>
      <trkpt lat="45.8216" lon="-0.7802">
        <ele>20</ele>
        <time>2014-09-28T10:04:34.806Z</time>
      </trkpt>
      <trkpt lat="45.82159" lon="-0.78018">
        <ele>20</ele>
        <time>2014-09-28T10:04:34.926Z</time>
      </trkpt>
      <trkpt lat="45.82157" lon="-0.78007">
        <ele>21</ele>
        <time>2014-09-28T10:04:40.856Z</time>
      </trkpt>
      <trkpt lat="45.82157" lon="-0.78004">
        <ele>21</ele>
        <time>2014-09-28T10:04:41.847Z</time>
      </trkpt>
      <trkpt lat="45.82155" lon="-0.77993">
        <ele>22</ele>
        <time>2014-09-28T10:04:46.841Z</time>
      </trkpt>
      <trkpt lat="45.82155" lon="-0.77991">
        <ele>22</ele>
        <time>2014-09-28T10:04:47.837Z</time>
      </trkpt>
      <trkpt lat="45.82153" lon="-0.77979">
        <ele>22</ele>
        <time>2014-09-28T10:04:54.116Z</time>
      </trkpt>
      <trkpt lat="45.82153" lon="-0.77978">
        <ele>22</ele>
        <time>2014-09-28T10:04:54.841Z</time>
      </trkpt>
      <trkpt lat="45.82152" lon="-0.77965">
        <ele>22</ele>
        <time>2014-09-28T10:05:01.827Z</time>
      </trkpt>
      <trkpt lat="45.82151" lon="-0.77964">
        <ele>22</ele>
        <time>2014-09-28T10:05:02.831Z</time>
      </trkpt>
      <trkpt lat="45.82149" lon="-0.77953">
        <ele>22</ele>
        <time>2014-09-28T10:05:09.828Z</time>
      </trkpt>
      <trkpt lat="45.82149" lon="-0.77951">
        <ele>22</ele>
        <time>2014-09-28T10:05:10.841Z</time>
      </trkpt>
      <trkpt lat="45.82149" lon="-0.77939">
        <ele>22</ele>
        <time>2014-09-28T10:05:16.834Z</time>
      </trkpt>
      <trkpt lat="45.82149" lon="-0.77937">
        <ele>22</ele>
        <time>2014-09-28T10:05:17.832Z</time>
      </trkpt>
      <trkpt lat="45.8215" lon="-0.77925">
        <ele>23</ele>
        <time>2014-09-28T10:05:24.466Z</time>
      </trkpt>
      <trkpt lat="45.8215" lon="-0.77923">
        <ele>23</ele>
        <time>2014-09-28T10:05:24.841Z</time>
      </trkpt>
      <trkpt lat="45.82149" lon="-0.77911">
        <ele>24</ele>
        <time>2014-09-28T10:05:30.836Z</time>
      </trkpt>
      <trkpt lat="45.82149" lon="-0.7791">
        <ele>24</ele>
        <time>2014-09-28T10:05:31.843Z</time>
      </trkpt>
      <trkpt lat="45.82149" lon="-0.77897">
        <ele>24</ele>
        <time>2014-09-28T10:05:38.866Z</time>
      </trkpt>
      <trkpt lat="45.82149" lon="-0.77896">
        <ele>24</ele>
        <time>2014-09-28T10:05:39.852Z</time>
      </trkpt>
      <trkpt lat="45.82149" lon="-0.77883">
        <ele>24</ele>
        <time>2014-09-28T10:05:46.852Z</time>
      </trkpt>
      <trkpt lat="45.82149" lon="-0.77882">
        <ele>24</ele>
        <time>2014-09-28T10:05:47.843Z</time>
      </trkpt>
      <trkpt lat="45.82146" lon="-0.7787">
        <ele>24</ele>
        <time>2014-09-28T10:05:54.844Z</time>
      </trkpt>
      <trkpt lat="45.82145" lon="-0.77868">
        <ele>24</ele>
        <time>2014-09-28T10:05:55.847Z</time>
      </trkpt>
      <trkpt lat="45.82141" lon="-0.77856">
        <ele>24</ele>
        <time>2014-09-28T10:06:02.961Z</time>
      </trkpt>
      <trkpt lat="45.82141" lon="-0.77854">
        <ele>24</ele>
        <time>2014-09-28T10:06:03.837Z</time>
      </trkpt>
      <trkpt lat="45.82137" lon="-0.77843">
        <ele>24</ele>
        <time>2014-09-28T10:06:09.853Z</time>
      </trkpt>
      <trkpt lat="45.82136" lon="-0.77841">
        <ele>24</ele>
        <time>2014-09-28T10:06:10.832Z</time>
      </trkpt>
      <trkpt lat="45.82133" lon="-0.77829">
        <ele>25</ele>
        <time>2014-09-28T10:06:17.834Z</time>
      </trkpt>
      <trkpt lat="45.82132" lon="-0.77827">
        <ele>25</ele>
        <time>2014-09-28T10:06:18.838Z</time>
      </trkpt>
      <trkpt lat="45.8213" lon="-0.77815">
        <ele>25</ele>
        <time>2014-09-28T10:06:25.828Z</time>
      </trkpt>
      <trkpt lat="45.82129" lon="-0.77814">
        <ele>25</ele>
        <time>2014-09-28T10:06:26.838Z</time>
      </trkpt>
      <trkpt lat="45.82128" lon="-0.77802">
        <ele>25</ele>
        <time>2014-09-28T10:06:33.851Z</time>
      </trkpt>
      <trkpt lat="45.82128" lon="-0.778">
        <ele>25</ele>
        <time>2014-09-28T10:06:34.849Z</time>
      </trkpt>
      <trkpt lat="45.82124" lon="-0.77789">
        <ele>25</ele>
        <time>2014-09-28T10:06:40.846Z</time>
      </trkpt>
      <trkpt lat="45.82124" lon="-0.77787">
        <ele>25</ele>
        <time>2014-09-28T10:06:41.849Z</time>
      </trkpt>
      <trkpt lat="45.82122" lon="-0.77775">
        <ele>25</ele>
        <time>2014-09-28T10:06:49.820Z</time>
      </trkpt>
      <trkpt lat="45.82121" lon="-0.77774">
        <ele>25</ele>
        <time>2014-09-28T10:06:50.837Z</time>
      </trkpt>
      <trkpt lat="45.82117" lon="-0.77763">
        <ele>25</ele>
        <time>2014-09-28T10:06:57.832Z</time>
      </trkpt>
      <trkpt lat="45.82117" lon="-0.77761">
        <ele>25</ele>
        <time>2014-09-28T10:06:58.840Z</time>
      </trkpt>
      <trkpt lat="45.82114" lon="-0.77751">
        <ele>25</ele>
        <time>2014-09-28T10:07:03.827Z</time>
      </trkpt>
      <trkpt lat="45.82113" lon="-0.77749">
        <ele>26</ele>
        <time>2014-09-28T10:07:04.824Z</time>
      </trkpt>
      <trkpt lat="45.8211" lon="-0.77737">
        <ele>26</ele>
        <time>2014-09-28T10:07:11.826Z</time>
      </trkpt>
      <trkpt lat="45.82109" lon="-0.77736">
        <ele>26</ele>
        <time>2014-09-28T10:07:12.822Z</time>
      </trkpt>
      <trkpt lat="45.82104" lon="-0.77727">
        <ele>26</ele>
        <time>2014-09-28T10:07:19.818Z</time>
      </trkpt>
      <trkpt lat="45.82103" lon="-0.77725">
        <ele>26</ele>
        <time>2014-09-28T10:07:20.831Z</time>
      </trkpt>
      <trkpt lat="45.82099" lon="-0.77714">
        <ele>26</ele>
        <time>2014-09-28T10:07:26.827Z</time>
      </trkpt>
      <trkpt lat="45.82099" lon="-0.77712">
        <ele>26</ele>
        <time>2014-09-28T10:07:27.860Z</time>
      </trkpt>
      <trkpt lat="45.82098" lon="-0.777">
        <ele>26</ele>
        <time>2014-09-28T10:07:35.159Z</time>
      </trkpt>
      <trkpt lat="45.82098" lon="-0.77698">
        <ele>26</ele>
        <time>2014-09-28T10:07:35.822Z</time>
      </trkpt>
      <trkpt lat="45.82094" lon="-0.77689">
        <ele>26</ele>
        <time>2014-09-28T10:07:41.851Z</time>
      </trkpt>
      <trkpt lat="45.82093" lon="-0.77687">
        <ele>26</ele>
        <time>2014-09-28T10:07:42.848Z</time>
      </trkpt>
      <trkpt lat="45.82091" lon="-0.77675">
        <ele>26</ele>
        <time>2014-09-28T10:07:51.897Z</time>
      </trkpt>
      <trkpt lat="45.82091" lon="-0.77674">
        <ele>26</ele>
        <time>2014-09-28T10:07:52.837Z</time>
      </trkpt>
      <trkpt lat="45.82089" lon="-0.77662">
        <ele>26</ele>
        <time>2014-09-28T10:07:59.845Z</time>
      </trkpt>
      <trkpt lat="45.82089" lon="-0.7766">
        <ele>26</ele>
        <time>2014-09-28T10:08:00.827Z</time>
      </trkpt>
      <trkpt lat="45.82087" lon="-0.77649">
        <ele>27</ele>
        <time>2014-09-28T10:08:06.831Z</time>
      </trkpt>
      <trkpt lat="45.82087" lon="-0.77647">
        <ele>27</ele>
        <time>2014-09-28T10:08:07.835Z</time>
      </trkpt>
      <trkpt lat="45.82085" lon="-0.77636">
        <ele>27</ele>
        <time>2014-09-28T10:08:14.193Z</time>
      </trkpt>
      <trkpt lat="45.82085" lon="-0.77634">
        <ele>27</ele>
        <time>2014-09-28T10:08:14.826Z</time>
      </trkpt>
      <trkpt lat="45.82085" lon="-0.77622">
        <ele>27</ele>
        <time>2014-09-28T10:08:21.837Z</time>
      </trkpt>
      <trkpt lat="45.82084" lon="-0.77619">
        <ele>27</ele>
        <time>2014-09-28T10:08:22.836Z</time>
      </trkpt>
      <trkpt lat="45.82082" lon="-0.77607">
        <ele>25</ele>
        <time>2014-09-28T10:08:29.377Z</time>
      </trkpt>
      <trkpt lat="45.82082" lon="-0.77604">
        <ele>25</ele>
        <time>2014-09-28T10:08:29.860Z</time>
      </trkpt>
      <trkpt lat="45.82081" lon="-0.77592">
        <ele>26</ele>
        <time>2014-09-28T10:08:36.861Z</time>
      </trkpt>
      <trkpt lat="45.82081" lon="-0.7759">
        <ele>26</ele>
        <time>2014-09-28T10:08:37.860Z</time>
      </trkpt>
      <trkpt lat="45.8208" lon="-0.77578">
        <ele>27</ele>
        <time>2014-09-28T10:08:44.832Z</time>
      </trkpt>
      <trkpt lat="45.8208" lon="-0.77577">
        <ele>27</ele>
        <time>2014-09-28T10:08:45.876Z</time>
      </trkpt>
      <trkpt lat="45.82078" lon="-0.77565">
        <ele>27</ele>
        <time>2014-09-28T10:08:51.845Z</time>
      </trkpt>
      <trkpt lat="45.82078" lon="-0.77563">
        <ele>27</ele>
        <time>2014-09-28T10:08:52.925Z</time>
      </trkpt>
      <trkpt lat="45.82075" lon="-0.77552">
        <ele>27</ele>
        <time>2014-09-28T10:08:59.143Z</time>
      </trkpt>
      <trkpt lat="45.82075" lon="-0.7755">
        <ele>27</ele>
        <time>2014-09-28T10:08:59.850Z</time>
      </trkpt>
      <trkpt lat="45.82071" lon="-0.77541">
        <ele>27</ele>
        <time>2014-09-28T10:09:04.843Z</time>
      </trkpt>
      <trkpt lat="45.82071" lon="-0.77539">
        <ele>27</ele>
        <time>2014-09-28T10:09:05.849Z</time>
      </trkpt>
      <trkpt lat="45.82067" lon="-0.77528">
        <ele>27</ele>
        <time>2014-09-28T10:09:11.849Z</time>
      </trkpt>
      <trkpt lat="45.82067" lon="-0.77526">
        <ele>27</ele>
        <time>2014-09-28T10:09:12.844Z</time>
      </trkpt>
      <trkpt lat="45.82063" lon="-0.77517">
        <ele>27</ele>
        <time>2014-09-28T10:09:18.852Z</time>
      </trkpt>
      <trkpt lat="45.82062" lon="-0.77515">
        <ele>27</ele>
        <time>2014-09-28T10:09:19.840Z</time>
      </trkpt>
      <trkpt lat="45.82058" lon="-0.77503">
        <ele>27</ele>
        <time>2014-09-28T10:09:26.848Z</time>
      </trkpt>
      <trkpt lat="45.82058" lon="-0.77502">
        <ele>27</ele>
        <time>2014-09-28T10:09:27.856Z</time>
      </trkpt>
      <trkpt lat="45.82054" lon="-0.77493">
        <ele>28</ele>
        <time>2014-09-28T10:09:33.036Z</time>
      </trkpt>
      <trkpt lat="45.82053" lon="-0.77491">
        <ele>28</ele>
        <time>2014-09-28T10:09:33.844Z</time>
      </trkpt>
      <trkpt lat="45.82049" lon="-0.77479">
        <ele>28</ele>
        <time>2014-09-28T10:09:40.819Z</time>
      </trkpt>
      <trkpt lat="45.82049" lon="-0.77478">
        <ele>28</ele>
        <time>2014-09-28T10:09:41.841Z</time>
      </trkpt>
      <trkpt lat="45.82047" lon="-0.77468">
        <ele>28</ele>
        <time>2014-09-28T10:09:48.845Z</time>
      </trkpt>
      <trkpt lat="45.82046" lon="-0.77465">
        <ele>28</ele>
        <time>2014-09-28T10:09:49.841Z</time>
      </trkpt>
      <trkpt lat="45.82046" lon="-0.77454">
        <ele>28</ele>
        <time>2014-09-28T10:09:55.836Z</time>
      </trkpt>
      <trkpt lat="45.82046" lon="-0.77451">
        <ele>28</ele>
        <time>2014-09-28T10:09:56.850Z</time>
      </trkpt>
      <trkpt lat="45.82046" lon="-0.77439">
        <ele>28</ele>
        <time>2014-09-28T10:10:03.851Z</time>
      </trkpt>
      <trkpt lat="45.82046" lon="-0.77438">
        <ele>28</ele>
        <time>2014-09-28T10:10:04.850Z</time>
      </trkpt>
      <trkpt lat="45.82045" lon="-0.77426">
        <ele>28</ele>
        <time>2014-09-28T10:10:11.839Z</time>
      </trkpt>
      <trkpt lat="45.82046" lon="-0.77424">
        <ele>28</ele>
        <time>2014-09-28T10:10:12.885Z</time>
      </trkpt>
      <trkpt lat="45.82048" lon="-0.77413">
        <ele>30</ele>
        <time>2014-09-28T10:10:19.733Z</time>
      </trkpt>
      <trkpt lat="45.82048" lon="-0.77411">
        <ele>30</ele>
        <time>2014-09-28T10:10:19.860Z</time>
      </trkpt>
      <trkpt lat="45.82052" lon="-0.77399">
        <ele>30</ele>
        <time>2014-09-28T10:10:27.850Z</time>
      </trkpt>
      <trkpt lat="45.82052" lon="-0.77397">
        <ele>30</ele>
        <time>2014-09-28T10:10:28.846Z</time>
      </trkpt>
      <trkpt lat="45.82056" lon="-0.77386">
        <ele>30</ele>
        <time>2014-09-28T10:10:36.846Z</time>
      </trkpt>
      <trkpt lat="45.82057" lon="-0.77384">
        <ele>30</ele>
        <time>2014-09-28T10:10:37.850Z</time>
      </trkpt>
      <trkpt lat="45.82061" lon="-0.77373">
        <ele>31</ele>
        <time>2014-09-28T10:10:44.943Z</time>
      </trkpt>
      <trkpt lat="45.82061" lon="-0.77371">
        <ele>31</ele>
        <time>2014-09-28T10:10:45.847Z</time>
      </trkpt>
      <trkpt lat="45.82064" lon="-0.7736">
        <ele>31</ele>
        <time>2014-09-28T10:10:51.849Z</time>
      </trkpt>
      <trkpt lat="45.82065" lon="-0.77358">
        <ele>31</ele>
        <time>2014-09-28T10:10:52.845Z</time>
      </trkpt>
      <trkpt lat="45.82068" lon="-0.77348">
        <ele>31</ele>
        <time>2014-09-28T10:11:00.840Z</time>
      </trkpt>
      <trkpt lat="45.82069" lon="-0.77346">
        <ele>31</ele>
        <time>2014-09-28T10:11:01.842Z</time>
      </trkpt>
      <trkpt lat="45.82072" lon="-0.77334">
        <ele>32</ele>
        <time>2014-09-28T10:11:07.842Z</time>
      </trkpt>
      <trkpt lat="45.82073" lon="-0.77332">
        <ele>32</ele>
        <time>2014-09-28T10:11:08.853Z</time>
      </trkpt>
      <trkpt lat="45.82073" lon="-0.7732">
        <ele>32</ele>
        <time>2014-09-28T10:11:14.829Z</time>
      </trkpt>
      <trkpt lat="45.82073" lon="-0.77317">
        <ele>32</ele>
        <time>2014-09-28T10:11:15.849Z</time>
      </trkpt>
      <trkpt lat="45.82072" lon="-0.77306">
        <ele>32</ele>
        <time>2014-09-28T10:11:20.869Z</time>
      </trkpt>
      <trkpt lat="45.82071" lon="-0.77304">
        <ele>32</ele>
        <time>2014-09-28T10:11:21.851Z</time>
      </trkpt>
      <trkpt lat="45.82068" lon="-0.77293">
        <ele>32</ele>
        <time>2014-09-28T10:11:26.846Z</time>
      </trkpt>
      <trkpt lat="45.82067" lon="-0.77292">
        <ele>32</ele>
        <time>2014-09-28T10:11:27.857Z</time>
      </trkpt>
      <trkpt lat="45.82064" lon="-0.7728">
        <ele>33</ele>
        <time>2014-09-28T10:11:33.849Z</time>
      </trkpt>
      <trkpt lat="45.82064" lon="-0.77278">
        <ele>33</ele>
        <time>2014-09-28T10:11:34.848Z</time>
      </trkpt>
      <trkpt lat="45.82064" lon="-0.77266">
        <ele>33</ele>
        <time>2014-09-28T10:11:40.854Z</time>
      </trkpt>
      <trkpt lat="45.82064" lon="-0.77264">
        <ele>33</ele>
        <time>2014-09-28T10:11:41.854Z</time>
      </trkpt>
      <trkpt lat="45.82061" lon="-0.77253">
        <ele>33</ele>
        <time>2014-09-28T10:11:50.840Z</time>
      </trkpt>
      <trkpt lat="45.8206" lon="-0.77251">
        <ele>33</ele>
        <time>2014-09-28T10:11:51.846Z</time>
      </trkpt>
      <trkpt lat="45.82059" lon="-0.77239">
        <ele>33</ele>
        <time>2014-09-28T10:11:57.848Z</time>
      </trkpt>
      <trkpt lat="45.82059" lon="-0.77238">
        <ele>33</ele>
        <time>2014-09-28T10:11:58.850Z</time>
      </trkpt>
      <trkpt lat="45.82056" lon="-0.77228">
        <ele>33</ele>
        <time>2014-09-28T10:12:06.152Z</time>
      </trkpt>
      <trkpt lat="45.82056" lon="-0.77226">
        <ele>33</ele>
        <time>2014-09-28T10:12:06.826Z</time>
      </trkpt>
      <trkpt lat="45.82054" lon="-0.77214">
        <ele>33</ele>
        <time>2014-09-28T10:12:14.861Z</time>
      </trkpt>
      <trkpt lat="45.82054" lon="-0.77212">
        <ele>33</ele>
        <time>2014-09-28T10:12:15.860Z</time>
      </trkpt>
      <trkpt lat="45.82051" lon="-0.772">
        <ele>32</ele>
        <time>2014-09-28T10:12:22.837Z</time>
      </trkpt>
      <trkpt lat="45.82052" lon="-0.77199">
        <ele>32</ele>
        <time>2014-09-28T10:12:23.838Z</time>
      </trkpt>
      <trkpt lat="45.82055" lon="-0.77188">
        <ele>32</ele>
        <time>2014-09-28T10:12:30.836Z</time>
      </trkpt>
      <trkpt lat="45.82055" lon="-0.77186">
        <ele>32</ele>
        <time>2014-09-28T10:12:31.840Z</time>
      </trkpt>
      <trkpt lat="45.82057" lon="-0.77174">
        <ele>32</ele>
        <time>2014-09-28T10:12:45.351Z</time>
      </trkpt>
    </trkseg>
  </trk>
</gpx>